[[{"header":{"parameterUnit":"m.s-1","parameterCategory":1,"la1":30.6,"la2":29.2853,"lo1":-89.7004,"lo2":-87.6739,"dy":0.0162,"dx":0.0183,"nx":112,"ny":82,"refTime":"2025-08-20T00:00:00:Z","depth":0,"parameterNumber":2,"parameterNumberName":"U-component_of_WINDS"},"data":[0.0,0.0,0.0,0.0,0.0,0.0,0.0,0.0,0.0,0.0,0.0,0.0,0.0,0.0,0.0,0.0,0.0,0.0,0.0,0.0,0.0,0.0,0.0,0.0,0.0,0.0,0.0,0.0,0.0,0.0,0.0,0.0,0.0,0.0,0.0,0.0,0.0,0.0,0.0,0.0,0.0,0.0,0.0,0.0,0.0,0.0,0.0,0.0,0.0,0.0,0.0,0.0,0.0,0.0,0.0,0.0,0.0,0.0,0.0,0.0,0.0,0.0,0.0,0.0,0.0,0.0,0.0,0.0,0.0,0.0,0.0,0.0,0.0,0.0,0.0,0.0,0.0,0.0,0.0,0.0,0.0,0.0,0.0,0.0,0.0,0.0,0.0,0.0,0.0,0.0,-2.3783,-2.4884,-2.4904,-2.476,-2.4564,-2.4512,-2.4428,-2.4246,0.0,0.0,0.0,0.0,0.0,0.0,0.0,0.0,0.0,0.0,0.0,0.0,0.0,0.0,0.0,0.0,0.0,0.0,0.0,0.0,0.0,0.0,0.0,0.0,0.0,0.0,0.0,0.0,0.0,0.0,0.0,0.0,0.0,0.0,0.0,0.0,0.0,0.0,0.0,0.0,0.0,0.0,0.0,0.0,0.0,0.0,0.0,0.0,0.0,0.0,0.0,0.0,0.0,0.0,0.0,0.0,0.0,0.0,0.0,0.0,0.0,0.0,0.0,0.0,0.0,0.0,0.0,0.0,0.0,0.0,0.0,0.0,0.0,0.0,0.0,0.0,0.0,0.0,0.0,0.0,0.0,0.0,0.0,0.0,0.0,0.0,0.0,0.0,0.0,0.0,0.0,0.0,0.0,0.0,0.0,0.0,0.0,0.0,0.0,0.0,0.0,0.0,0.0,0.0,-2.3323,-2.4851,-2.4986,-2.4915,-2.4776,-2.4596,-2.4479,-2.4468,0.0,0.0,0.0,0.0,0.0,0.0,0.0,0.0,0.0,0.0,0.0,0.0,0.0,0.0,0.0,0.0,0.0,0.0,0.0,0.0,0.0,0.0,0.0,0.0,0.0,0.0,0.0,0.0,0.0,0.0,0.0,0.0,0.0,0.0,0.0,0.0,0.0,0.0,0.0,0.0,0.0,0.0,0.0,0.0,0.0,0.0,0.0,0.0,0.0,0.0,0.0,0.0,0.0,0.0,0.0,0.0,0.0,0.0,0.0,0.0,0.0,0.0,0.0,0.0,0.0,0.0,0.0,0.0,0.0,0.0,0.0,0.0,0.0,0.0,0.0,0.0,0.0,0.0,0.0,0.0,0.0,0.0,0.0,0.0,0.0,0.0,0.0,0.0,0.0,0.0,0.0,0.0,0.0,0.0,0.0,0.0,0.0,0.0,0.0,0.0,0.0,0.0,0.0,-2.3063,-2.3871,-2.5028,-2.5163,-2.5088,-2.493,-2.4761,-2.4623,-2.4523,-2.2556,0.0,0.0,0.0,0.0,0.0,0.0,0.0,0.0,0.0,0.0,0.0,0.0,0.0,0.0,0.0,0.0,0.0,0.0,0.0,0.0,0.0,0.0,0.0,0.0,0.0,0.0,0.0,0.0,0.0,0.0,0.0,0.0,0.0,0.0,0.0,0.0,0.0,0.0,0.0,0.0,0.0,0.0,0.0,0.0,0.0,0.0,0.0,0.0,0.0,0.0,0.0,0.0,0.0,0.0,0.0,0.0,0.0,0.0,0.0,0.0,0.0,0.0,0.0,0.0,0.0,0.0,0.0,0.0,0.0,0.0,0.0,0.0,0.0,0.0,0.0,0.0,0.0,0.0,0.0,0.0,0.0,0.0,0.0,0.0,0.0,0.0,0.0,0.0,0.0,0.0,0.0,0.0,0.0,0.0,0.0,0.0,0.0,0.0,0.0,0.0,0.0,0.0,-2.4168,-2.463,-2.5245,-2.5303,-2.5245,-2.5091,-2.4897,-2.4724,-2.4579,-2.259,0.0,0.0,0.0,0.0,0.0,0.0,0.0,0.0,0.0,0.0,0.0,0.0,0.0,0.0,0.0,0.0,0.0,0.0,0.0,0.0,0.0,0.0,0.0,0.0,0.0,0.0,0.0,0.0,0.0,0.0,0.0,0.0,0.0,0.0,0.0,0.0,0.0,0.0,0.0,0.0,0.0,0.0,0.0,0.0,0.0,0.0,0.0,0.0,0.0,0.0,0.0,0.0,0.0,0.0,0.0,0.0,0.0,0.0,0.0,0.0,0.0,0.0,0.0,0.0,0.0,0.0,0.0,0.0,0.0,0.0,0.0,0.0,0.0,0.0,0.0,0.0,0.0,0.0,0.0,0.0,0.0,0.0,0.0,0.0,0.0,0.0,0.0,0.0,0.0,0.0,0.0,0.0,0.0,0.0,0.0,0.0,0.0,0.0,0.0,0.0,0.0,0.0,-2.4385,-2.5303,-2.5303,-2.5303,-2.5284,-2.5284,-2.4975,-2.4803,-2.4783,-2.2645,0.0,0.0,0.0,0.0,0.0,0.0,0.0,0.0,0.0,0.0,0.0,0.0,0.0,0.0,0.0,0.0,0.0,0.0,0.0,0.0,0.0,0.0,0.0,0.0,0.0,0.0,0.0,0.0,0.0,0.0,0.0,0.0,0.0,0.0,0.0,0.0,0.0,0.0,0.0,0.0,0.0,0.0,0.0,0.0,0.0,0.0,0.0,0.0,0.0,0.0,0.0,0.0,0.0,0.0,0.0,0.0,0.0,0.0,0.0,0.0,0.0,0.0,0.0,0.0,0.0,0.0,0.0,0.0,0.0,0.0,0.0,0.0,0.0,0.0,0.0,0.0,0.0,0.0,0.0,0.0,0.0,0.0,0.0,0.0,0.0,0.0,0.0,0.0,0.0,0.0,0.0,0.0,0.0,0.0,0.0,0.0,0.0,0.0,0.0,0.0,0.0,0.0,-2.3967,-2.4832,-2.5245,-2.5303,-2.5303,-2.5303,-2.4988,-2.4804,-2.4801,0.0,0.0,0.0,0.0,0.0,0.0,0.0,0.0,0.0,0.0,0.0,0.0,0.0,0.0,0.0,0.0,0.0,0.0,0.0,0.0,0.0,0.0,0.0,0.0,0.0,0.0,0.0,0.0,0.0,0.0,0.0,0.0,0.0,0.0,0.0,0.0,0.0,0.0,0.0,0.0,0.0,0.0,0.0,0.0,0.0,0.0,0.0,0.0,0.0,0.0,0.0,0.0,0.0,0.0,0.0,0.0,0.0,0.0,0.0,0.0,0.0,0.0,0.0,0.0,0.0,0.0,0.0,0.0,0.0,0.0,0.0,0.0,0.0,0.0,0.0,0.0,0.0,0.0,0.0,0.0,0.0,0.0,0.0,0.0,0.0,0.0,0.0,0.0,0.0,0.0,0.0,0.0,0.0,0.0,0.0,0.0,0.0,0.0,0.0,0.0,0.0,0.0,-2.2923,-2.3934,-2.4793,-2.5245,-2.5303,-2.5303,-2.5303,-2.4991,-2.4685,-2.4393,0.0,0.0,0.0,0.0,0.0,0.0,0.0,0.0,0.0,0.0,0.0,0.0,0.0,0.0,0.0,0.0,0.0,0.0,0.0,0.0,0.0,0.0,0.0,0.0,0.0,0.0,0.0,0.0,0.0,0.0,0.0,0.0,0.0,0.0,0.0,0.0,0.0,0.0,0.0,0.0,0.0,0.0,0.0,0.0,0.0,0.0,0.0,0.0,0.0,0.0,0.0,0.0,0.0,0.0,0.0,0.0,0.0,0.0,0.0,0.0,0.0,0.0,0.0,0.0,0.0,0.0,0.0,0.0,0.0,0.0,0.0,0.0,0.0,0.0,0.0,0.0,0.0,0.0,0.0,0.0,0.0,0.0,0.0,0.0,0.0,0.0,0.0,0.0,0.0,0.0,0.0,0.0,0.0,0.0,0.0,0.0,0.0,0.0,0.0,0.0,0.0,0.0,-2.302,-2.4476,-2.5447,-2.5303,-2.5303,-2.5303,-2.5303,-2.4987,-2.4425,0.0,0.0,0.0,0.0,0.0,0.0,0.0,0.0,0.0,0.0,0.0,0.0,0.0,0.0,0.0,0.0,0.0,0.0,0.0,0.0,0.0,0.0,0.0,0.0,0.0,0.0,0.0,0.0,0.0,0.0,0.0,0.0,0.0,0.0,0.0,0.0,0.0,0.0,0.0,0.0,0.0,0.0,0.0,0.0,0.0,0.0,0.0,0.0,0.0,0.0,0.0,0.0,0.0,0.0,0.0,0.0,0.0,0.0,0.0,0.0,0.0,0.0,0.0,0.0,0.0,0.0,0.0,0.0,0.0,0.0,0.0,0.0,0.0,0.0,0.0,0.0,0.0,0.0,0.0,0.0,0.0,0.0,0.0,0.0,0.0,0.0,0.0,0.0,0.0,0.0,0.0,0.0,0.0,0.0,0.0,0.0,0.0,0.0,0.0,0.0,0.0,0.0,0.0,-2.3777,-2.476,-2.539,-2.5322,-2.5303,-2.5245,-2.5111,-2.4898,-2.44,-2.3423,0.0,0.0,0.0,0.0,0.0,0.0,0.0,0.0,0.0,0.0,0.0,0.0,0.0,0.0,0.0,0.0,0.0,0.0,0.0,0.0,0.0,0.0,0.0,0.0,0.0,0.0,0.0,0.0,0.0,0.0,0.0,0.0,0.0,0.0,0.0,0.0,0.0,0.0,0.0,0.0,0.0,0.0,0.0,0.0,0.0,0.0,0.0,0.0,0.0,0.0,0.0,0.0,0.0,0.0,0.0,0.0,0.0,0.0,0.0,0.0,0.0,0.0,0.0,0.0,0.0,0.0,0.0,0.0,0.0,0.0,0.0,0.0,0.0,0.0,0.0,0.0,0.0,0.0,0.0,0.0,0.0,0.0,0.0,0.0,0.0,0.0,0.0,0.0,0.0,0.0,0.0,0.0,0.0,0.0,0.0,0.0,0.0,0.0,0.0,0.0,0.0,0.0,-2.4054,-2.489,-2.5372,-2.5303,-2.5303,-2.5224,-2.5008,-2.4874,-2.4382,-2.336,0.0,0.0,0.0,0.0,0.0,0.0,0.0,0.0,0.0,0.0,0.0,0.0,0.0,0.0,0.0,0.0,0.0,0.0,0.0,0.0,0.0,0.0,0.0,0.0,0.0,0.0,0.0,0.0,0.0,0.0,0.0,0.0,0.0,0.0,0.0,0.0,0.0,0.0,0.0,0.0,0.0,0.0,0.0,0.0,0.0,0.0,0.0,0.0,0.0,0.0,0.0,0.0,0.0,0.0,0.0,0.0,0.0,0.0,0.0,0.0,0.0,0.0,0.0,0.0,0.0,0.0,0.0,0.0,0.0,0.0,0.0,0.0,0.0,0.0,0.0,0.0,0.0,0.0,0.0,0.0,0.0,0.0,0.0,0.0,0.0,0.0,0.0,0.0,0.0,0.0,0.0,0.0,0.0,0.0,0.0,0.0,0.0,0.0,0.0,0.0,0.0,0.0,-2.4121,-2.4907,-2.5379,-2.5322,-2.5303,-2.5228,-2.5021,-2.4885,-2.436,-2.3361,0.0,0.0,0.0,0.0,0.0,0.0,0.0,0.0,0.0,0.0,0.0,0.0,0.0,0.0,0.0,0.0,0.0,0.0,0.0,0.0,0.0,0.0,0.0,0.0,0.0,0.0,0.0,0.0,0.0,0.0,0.0,0.0,0.0,0.0,0.0,0.0,0.0,0.0,0.0,0.0,0.0,0.0,0.0,0.0,0.0,0.0,0.0,0.0,0.0,0.0,0.0,0.0,0.0,0.0,0.0,0.0,0.0,0.0,0.0,0.0,-3.4041,0.0,0.0,0.0,0.0,0.0,0.0,0.0,0.0,0.0,0.0,0.0,0.0,0.0,0.0,0.0,0.0,0.0,0.0,0.0,0.0,0.0,0.0,0.0,0.0,0.0,0.0,0.0,0.0,0.0,0.0,0.0,0.0,0.0,0.0,0.0,0.0,0.0,0.0,0.0,0.0,0.0,-2.5011,-2.5239,-2.5322,-2.5313,-2.5303,-2.5225,-2.5028,-2.4872,-2.4362,-2.3363,-2.2953,0.0,0.0,0.0,0.0,0.0,0.0,0.0,0.0,0.0,0.0,0.0,0.0,0.0,0.0,0.0,0.0,0.0,0.0,0.0,0.0,0.0,0.0,0.0,0.0,0.0,0.0,0.0,0.0,0.0,0.0,0.0,0.0,0.0,0.0,0.0,0.0,0.0,0.0,0.0,0.0,0.0,0.0,0.0,0.0,0.0,0.0,0.0,0.0,0.0,0.0,0.0,0.0,0.0,0.0,0.0,0.0,0.0,0.0,0.0,0.0,-3.4805,0.0,0.0,0.0,0.0,0.0,0.0,0.0,0.0,0.0,0.0,0.0,0.0,0.0,0.0,0.0,0.0,0.0,0.0,0.0,0.0,0.0,0.0,0.0,0.0,0.0,0.0,0.0,0.0,0.0,0.0,0.0,0.0,0.0,0.0,0.0,0.0,0.0,0.0,0.0,0.0,-2.5249,-2.5312,-2.5303,-2.5303,-2.5303,-2.5225,-2.5018,-2.4936,-2.4587,-2.3921,-2.3423,0.0,0.0,0.0,0.0,0.0,0.0,0.0,0.0,0.0,0.0,0.0,0.0,0.0,0.0,0.0,0.0,0.0,0.0,0.0,0.0,0.0,0.0,0.0,0.0,0.0,0.0,0.0,0.0,0.0,0.0,0.0,0.0,0.0,0.0,0.0,0.0,0.0,0.0,0.0,0.0,0.0,0.0,0.0,0.0,0.0,0.0,0.0,0.0,0.0,0.0,0.0,0.0,0.0,-3.7072,-3.7611,-3.9004,-3.7559,-3.7695,-3.9004,-3.8281,-3.7305,-3.6172,0.0,0.0,0.0,0.0,0.0,0.0,0.0,0.0,0.0,0.0,0.0,0.0,0.0,0.0,0.0,0.0,0.0,0.0,0.0,0.0,0.0,0.0,0.0,0.0,0.0,-3.0445,-3.0467,0.0,0.0,0.0,0.0,0.0,0.0,0.0,0.0,0.0,0.0,0.0,0.0,-2.5207,-2.5303,-2.5303,-2.5303,-2.5303,-2.5224,-2.5077,-2.5022,-2.4872,-2.4575,-2.3894,-2.3409,0.0,0.0,0.0,0.0,0.0,0.0,0.0,0.0,0.0,0.0,0.0,0.0,0.0,0.0,0.0,0.0,0.0,0.0,0.0,0.0,0.0,0.0,0.0,0.0,0.0,0.0,0.0,0.0,0.0,0.0,0.0,0.0,-2.7767,-2.8929,0.0,0.0,0.0,0.0,0.0,0.0,0.0,0.0,0.0,0.0,0.0,0.0,0.0,-3.7927,-4.0307,-3.9683,-3.937,-3.9384,-4.0132,-4.0625,-4.0859,-4.0625,-4.0644,-4.0859,-4.0742,0.0,-3.7129,-3.6992,0.0,0.0,0.0,0.0,0.0,0.0,0.0,0.0,0.0,0.0,0.0,0.0,0.0,0.0,0.0,0.0,0.0,0.0,0.0,0.0,0.0,0.0,-3.1848,-3.1833,-3.1367,-3.0799,0.0,-2.9177,-2.8029,-2.7769,-2.7024,0.0,0.0,0.0,0.0,0.0,0.0,0.0,-2.5284,-2.5303,-2.5303,-2.5303,-2.5303,-2.5303,-2.5264,-2.5099,-2.4924,-2.4775,-2.4498,-2.4243,-2.4062,-2.3272,0.0,0.0,0.0,0.0,0.0,0.0,0.0,0.0,0.0,0.0,0.0,0.0,0.0,0.0,0.0,0.0,0.0,0.0,0.0,0.0,0.0,0.0,0.0,0.0,0.0,0.0,0.0,0.0,0.0,-2.785,-2.9279,-2.9934,-3.0481,-3.0434,0.0,0.0,0.0,0.0,0.0,0.0,0.0,0.0,0.0,-3.3398,-3.6074,-3.8476,-4.0443,-4.0585,-4.0605,-4.0541,-4.0995,-4.1191,-4.1191,-4.1191,-4.1191,-4.1191,-4.1191,-4.0547,-3.9414,-3.8437,-3.6992,-3.5273,0.0,0.0,0.0,0.0,0.0,-3.1769,-3.2959,-3.3335,0.0,0.0,0.0,0.0,0.0,0.0,0.0,0.0,0.0,0.0,0.0,0.0,0.0,-3.1562,-3.1543,-3.1464,-3.0832,-3.0103,-2.9246,0.0,-2.7652,-2.7059,-2.6042,0.0,0.0,0.0,0.0,-2.5303,-2.5303,-2.5303,-2.5303,-2.5303,-2.5303,-2.5303,-2.5303,-2.5214,-2.5107,-2.493,-2.4756,-2.4575,-2.4375,-2.3916,-2.3343,0.0,0.0,0.0,0.0,0.0,0.0,0.0,0.0,0.0,0.0,0.0,0.0,0.0,0.0,0.0,0.0,0.0,0.0,0.0,0.0,0.0,0.0,0.0,0.0,0.0,0.0,0.0,0.0,-2.9393,-3.08,-3.1128,-3.2155,-3.2286,0.0,0.0,0.0,0.0,0.0,0.0,-3.5996,-3.6582,-3.7305,-3.8262,-3.8496,-3.9121,-4.0215,-4.0879,-4.1094,-4.0879,-4.0879,-4.0879,-4.0879,-4.0879,-4.0996,-4.1191,-4.0957,-4.0879,-4.0762,-3.9473,-3.8047,-3.6562,-3.5469,-3.4492,-3.373,-3.373,-3.3687,-3.3743,-3.4569,-3.4841,-3.4697,-3.3996,0.0,-3.3214,-3.1933,0.0,0.0,0.0,0.0,-3.1517,-3.0873,-3.1287,-3.1699,-3.1055,-3.1406,-3.1601,-3.0625,-3.043,-2.9993,0.0,-2.8155,-2.75,-2.5927,0.0,0.0,0.0,0.0,-2.5303,-2.5303,-2.5303,-2.5303,-2.5303,-2.5303,-2.5303,-2.5303,-2.5303,-2.5214,-2.5022,-2.4904,-2.4741,-2.4512,-2.4357,-2.3878,-2.3042,0.0,0.0,0.0,0.0,0.0,0.0,0.0,0.0,0.0,0.0,0.0,0.0,0.0,0.0,0.0,0.0,0.0,0.0,0.0,0.0,0.0,0.0,0.0,0.0,0.0,0.0,0.0,0.0,0.0,-3.2918,-3.4409,0.0,0.0,0.0,0.0,-3.7526,-3.6576,-3.7324,-4.0664,-3.9824,-3.9766,-4.0976,-4.1016,-4.1055,-4.1133,-4.1172,-4.0781,-3.9961,-3.9961,-3.9961,-3.9961,-3.9961,-4.043,-4.1152,-4.0312,-3.9961,-3.9961,-3.9863,-3.9297,-3.8301,-3.6601,-3.5391,-3.4629,-3.4629,-3.459,-3.4667,-3.5522,-3.5749,-3.5626,-3.5587,-3.5055,-3.4392,-3.4187,-3.3067,0.0,0.0,-3.1324,-3.076,-3.0701,-3.0834,-3.0957,-3.0918,-3.0937,-3.0723,-2.9844,-2.9668,-2.9566,0.0,-2.8565,-2.7708,-2.6792,0.0,-2.5303,-2.5303,-2.5303,-2.5303,-2.5303,-2.5303,-2.5303,-2.5303,-2.5303,-2.5303,-2.5303,-2.5303,-2.5214,-2.5022,-2.4979,-2.4845,-2.4493,-2.4495,-2.4374,-2.4135,-2.3364,0.0,0.0,0.0,0.0,0.0,0.0,0.0,0.0,0.0,0.0,0.0,0.0,0.0,0.0,0.0,0.0,0.0,0.0,0.0,0.0,0.0,0.0,0.0,0.0,0.0,0.0,0.0,0.0,-3.459,-3.6165,0.0,-3.5194,-3.5366,-3.5873,-3.6619,-3.7507,-3.8878,-4.0898,-4.0716,-4.05,-4.0371,-4.0156,-3.9883,-3.9531,-4.0078,-4.0215,-3.9902,-3.9902,-3.9902,-3.9902,-3.9902,-3.9766,-3.9531,-3.9785,-3.957,-3.9062,-3.9062,-3.8555,-3.7695,-3.707,-3.6309,-3.5547,-3.5547,-3.5488,-3.539,-3.5154,-3.503,-3.4896,-3.435,-3.393,-3.3738,-3.4178,-3.3905,-3.3441,-3.3438,-3.2905,-3.218,-3.1672,-3.117,-3.0657,-3.0175,-3.0059,-2.9824,-2.8945,-2.8769,-2.8574,-2.7936,-2.7496,-2.6935,-2.6015,-2.5553,-2.5303,-2.5303,-2.5303,-2.5303,-2.5303,-2.5303,-2.5303,-2.5303,-2.5341,-2.5341,-2.5303,-2.5341,-2.5331,-2.5203,-2.5058,-2.492,-2.4705,-2.457,-2.441,-2.419,-2.3914,-2.3326,0.0,0.0,0.0,0.0,0.0,0.0,0.0,0.0,0.0,0.0,0.0,0.0,0.0,0.0,0.0,0.0,0.0,0.0,0.0,0.0,0.0,0.0,0.0,0.0,0.0,0.0,-3.4944,-3.5446,-3.7012,-3.7507,-3.611,-3.6737,-3.719,-3.7035,-3.8413,-3.974,-4.0801,-4.107,-4.0742,-3.9767,-3.8767,-3.8262,-3.8301,-3.8867,-3.9101,-3.9023,-3.9023,-3.9023,-3.9023,-3.9023,-3.8867,-3.8613,-3.8906,-3.8691,-3.8144,-3.7832,-3.7383,-3.6894,-3.7187,-3.6777,-3.5996,-3.5996,-3.5781,-3.5371,-3.4502,-3.4203,-3.4103,-3.3503,-3.3249,-3.3271,-3.3732,-3.3655,-3.3422,-3.3429,-3.288,-3.2171,-3.1638,-3.1076,-3.0479,-2.9737,-2.9568,-2.9258,-2.8105,-2.7851,-2.7598,-2.6738,-2.6683,-2.6519,-2.5614,-2.5393,-2.533,-2.533,-2.5339,-2.534,-2.5293,-2.5303,-2.5303,-2.5303,-2.5341,-2.5341,-2.5303,-2.5341,-2.5341,-2.5303,-2.5168,-2.5018,-2.4815,-2.4678,-2.4478,-2.4227,-2.3933,-2.3529,-2.2978,0.0,0.0,0.0,0.0,0.0,0.0,0.0,0.0,0.0,0.0,0.0,0.0,0.0,0.0,0.0,0.0,0.0,0.0,0.0,0.0,0.0,0.0,0.0,-3.2147,-3.3677,-3.4944,-3.5451,-3.6988,-3.768,-3.6834,-3.7559,-3.8446,-3.929,-3.9478,-3.9887,-4.0673,-4.0979,-4.0571,-3.9381,-3.7187,-3.6562,-3.7637,-3.7676,-3.7559,-3.7305,-3.7305,-3.7305,-3.7305,-3.7305,-3.7754,-3.8476,-3.7656,-3.7285,-3.7187,-3.6348,-3.5996,-3.6074,-3.6934,-3.6738,-3.5996,-3.5976,-3.5391,-3.4492,-3.3652,-3.334,-3.33,-3.3258,-3.3171,-3.3096,-3.3005,-3.2373,-3.1718,-3.1725,-3.1167,-3.0527,-3.0543,-3.0568,-3.0392,-2.9632,-2.9459,-2.9004,-2.7324,-2.6953,-2.6719,-2.5859,-2.6281,-2.6505,-2.5733,-2.5502,-2.5406,-2.5401,-2.5401,0.0,-2.5313,-2.5293,-2.5303,-2.5303,-2.5303,-2.5303,-2.5303,-2.5303,-2.5303,-2.5303,-2.5303,-2.5149,-2.4814,-2.4804,-2.4607,-2.4209,-2.3437,-2.3033,-2.3015,0.0,0.0,0.0,0.0,0.0,0.0,0.0,0.0,0.0,0.0,0.0,0.0,0.0,0.0,0.0,0.0,0.0,0.0,0.0,0.0,0.0,-3.1219,-3.2398,-3.2742,-3.4384,-3.5704,-3.605,-3.7206,-3.7911,-3.768,-3.7877,-3.8117,-3.8381,-3.8433,-3.8575,-3.8905,-3.8986,-3.8656,-3.7836,-3.7206,-3.6738,-3.6465,-3.709,-3.7363,-3.7305,-3.7305,-3.7305,-3.7305,-3.7305,-3.709,-3.6738,-3.7129,-3.6934,-3.6348,-3.6094,-3.5996,-3.6016,-3.6269,-3.6211,-3.5918,-3.5293,-3.4141,-3.2851,-3.2617,-3.2129,-3.1582,-3.1561,-3.1448,-3.1436,-3.2025,-3.1971,-3.1819,-3.241,-3.1996,-3.1388,-3.1419,-3.1,-3.0198,-2.8868,-2.8569,-2.8105,-2.6426,-2.6055,-2.5996,-2.5742,-2.5824,-2.5859,-2.5648,-2.5526,-2.5468,-2.5468,-2.5464,0.0,-2.5453,-2.5401,-2.537,-2.537,-2.537,-2.5341,-2.5303,-2.5341,-2.5341,-2.5303,-2.5303,-2.5196,-2.4938,-2.4853,-2.4685,-2.4409,-2.4063,-2.3658,0.0,0.0,0.0,0.0,0.0,0.0,0.0,0.0,0.0,0.0,0.0,0.0,0.0,0.0,0.0,0.0,0.0,0.0,0.0,0.0,0.0,0.0,-3.2284,-3.3169,-3.3309,-3.4404,-3.5426,-3.6065,-3.6814,-3.7424,-3.7789,-3.7924,-3.8007,-3.8007,-3.8007,-3.8026,-3.8112,-3.8164,-3.7877,-3.7136,-3.7172,-3.6813,-3.6016,-3.6504,-3.6758,-3.6758,-3.6758,-3.6758,-3.6758,-3.6758,-3.6289,0.0,-3.6387,-3.6055,-3.4941,-3.5293,-3.5234,0.0,0.0,0.0,0.0,0.0,-3.332,-3.2148,-3.1777,-3.1328,-3.0898,-3.0898,-3.0757,-3.0684,-3.1203,-3.1263,-3.1249,-3.1718,-3.1518,-3.108,-3.0751,-3.0289,-2.9525,-2.7948,-2.7586,-2.7259,-2.5937,-2.5684,-2.5703,-2.5703,0.0,0.0,-2.5634,-2.5593,-2.5537,-2.5531,-2.5548,-2.5539,-2.5493,-2.5473,-2.5441,-2.5441,-2.5448,-2.5406,-2.5351,-2.539,0.0,0.0,0.0,-2.5215,-2.5015,-2.4869,0.0,0.0,0.0,0.0,0.0,0.0,0.0,0.0,-2.2095,-2.1581,0.0,0.0,0.0,0.0,0.0,0.0,0.0,0.0,0.0,0.0,0.0,0.0,0.0,0.0,0.0,0.0,-3.3293,-3.3807,-3.3807,-3.3993,-3.4531,-3.5574,-3.5989,-3.6476,-3.7239,-3.7574,-3.7719,-3.7719,-3.7719,-3.7719,-3.7719,0.0,0.0,0.0,0.0,-3.6699,-3.6016,-3.5996,-3.5996,-3.5996,-3.5898,-3.5859,-3.5859,-3.5859,-3.5371,-3.4609,-3.5469,-3.4922,-3.3457,-3.4238,-3.4043,-3.3359,-3.4219,-3.4961,-3.5371,-3.3828,-3.2754,0.0,0.0,0.0,0.0,-3.0898,-3.078,-3.0617,-3.0617,-3.0513,-3.0398,-3.0414,-3.0414,-3.0202,-2.9325,-2.9113,-2.8698,-2.7091,-2.6761,-2.6581,-2.5777,-2.5644,-2.5703,-2.5703,-2.5683,-2.5683,-2.5683,-2.5641,-2.5615,-2.5605,-2.5619,-2.5595,-2.5539,-2.5526,-2.5503,-2.5503,0.0,0.0,-2.5408,-2.5399,-2.537,-2.5303,-2.5303,-2.5212,-2.5013,-2.4888,-2.4823,-2.482,-2.4623,-2.4532,-2.4524,-2.4283,-2.3828,-2.3165,-2.2156,-2.1626,0.0,0.0,0.0,0.0,0.0,0.0,0.0,0.0,0.0,0.0,0.0,0.0,0.0,0.0,0.0,-3.2499,-3.3293,-3.3807,-3.3807,-3.3842,-3.4042,-3.447,-3.5001,-3.5391,-3.5562,-3.5833,-3.5988,-3.5988,-3.5988,-3.5988,-3.5988,-3.5996,0.0,-3.5947,-3.5989,-3.5986,-3.5996,-3.5996,-3.5996,-3.5996,0.0,0.0,-3.4941,-3.4941,-3.4473,-3.3691,-3.457,-3.4355,-3.3418,-3.3574,-3.3164,-3.2519,-3.332,-3.3359,-3.2891,-3.2559,-3.1894,-3.1133,-3.0957,-3.0898,-3.0898,-3.0898,-3.0792,-3.0684,-3.0684,-3.0555,0.0,-3.047,-3.0443,-3.0211,-2.9327,-2.9138,-2.8753,-2.7101,-2.6792,-2.6659,-2.5781,-2.565,-2.5703,-2.5703,-2.5655,-2.5629,-2.5625,-2.5655,-2.5683,-2.5684,-2.5683,-2.5682,-2.5661,-2.5607,-2.557,-2.557,-2.5531,-2.5471,-2.542,-2.5406,-2.537,-2.5303,-2.5303,-2.5203,-2.5018,-2.4987,-2.4968,-2.4966,-2.4828,-2.4741,-2.4742,-2.4264,-2.3753,-2.3204,-2.2986,-2.2241,0.0,0.0,0.0,0.0,0.0,0.0,0.0,0.0,0.0,0.0,0.0,-3.063,-3.1493,0.0,-3.287,-3.3149,-3.3532,-3.3807,-3.3807,-3.3458,-3.3382,-3.3931,-3.4532,-3.4908,-3.4908,-3.5254,-3.5493,-3.5493,-3.5493,-3.5493,-3.5493,-3.5493,-3.5546,-3.5638,-3.5682,-3.5783,-3.5948,-3.5976,-3.5781,-3.5332,-3.4902,-3.4473,-3.4043,-3.4043,-3.3594,-3.2851,-3.3691,-3.332,-3.2148,-3.2148,-3.1914,-3.1582,-3.1992,-3.1894,-3.1601,-3.2031,-3.1641,-3.0898,-3.0898,-3.0898,-3.0898,-3.0898,-3.0814,-3.0696,-3.0696,-3.0603,-3.0516,-3.0535,-3.0203,-2.9664,-2.8822,-2.8295,-2.7678,-2.6393,-2.6184,-2.6125,-2.5698,-2.5659,-2.5703,-2.5703,-2.5654,-2.5597,-2.5604,-2.5601,-2.5605,-2.5633,-2.5681,-2.5703,-2.5703,-2.5662,-2.5658,-2.5658,-2.5629,-2.557,-2.5507,-2.5439,-2.5369,-2.5293,-2.5303,-2.5264,-2.5152,-2.5152,-2.5152,-2.5152,-2.4996,-2.4873,-2.4804,-2.4429,-2.3899,-2.3199,-2.3194,-2.241,0.0,0.0,0.0,0.0,0.0,0.0,0.0,-2.8371,-2.9109,-2.9362,-3.0771,-3.2012,-3.2319,-3.2913,-3.3458,-3.3642,-3.3606,-3.3568,-3.3568,-3.2871,-3.2614,-3.3256,-3.3817,-3.4163,-3.4222,-3.4795,-3.5196,-3.5224,-3.5411,-3.5493,-3.5493,-3.5493,-3.5528,-3.56,-3.5671,-3.5755,-3.5869,-3.5951,-3.5566,-3.4686,-3.4512,-3.4004,-3.3164,-3.3164,-3.2715,-3.1973,-3.2637,-3.2148,-3.0898,-3.0898,-3.0898,-3.0898,-3.0898,-3.0898,-3.0996,-3.1699,-3.1504,-3.0898,-3.0898,-3.0898,-3.0898,-3.0898,-3.0836,-3.0704,-3.0548,-3.0329,-3.0151,-3.0141,-2.9547,-2.8743,-2.8032,-2.7337,-2.6603,-2.5707,-2.5561,-2.5613,-2.5602,-2.5644,-2.5703,-2.5703,-2.5633,-2.5582,-2.5589,-2.5523,-2.5503,-2.5578,-2.5625,-2.5602,-2.5446,-2.5584,-2.5624,-2.5468,-2.5605,-2.5662,-2.5595,-2.5459,-2.5354,-2.5293,-2.5303,-2.5303,-2.5303,-2.5303,-2.5303,-2.5303,-2.5149,-2.4973,-2.4804,-2.4647,-2.4105,-2.32,-2.3119,-2.2323,-2.4481,-2.4141,-2.422,-2.6039,-2.6046,-2.624,0.0,-2.8745,-2.8737,-2.995,-3.0359,-3.0775,-3.1695,-3.2295,-3.2737,-3.3184,-3.2967,-3.2742,-3.2742,-3.2045,-3.1568,-3.1659,-3.1941,-3.221,-3.2449,-3.3401,-3.4083,-3.432,-3.5064,-3.5493,-3.5493,-3.5493,-3.5528,-3.56,-3.5671,-3.571,-3.5717,-3.5903,-3.5524,-3.4599,-3.3884,-3.3125,-3.2324,-3.2324,-3.1855,-3.1055,-3.1133,-3.1074,-3.0898,-3.0898,-3.0898,-3.0898,-3.0898,-3.0898,-3.0918,-3.1016,-3.0976,-3.0898,-3.0898,-3.0898,-3.0898,-3.0898,-3.0898,-3.0722,-2.9961,-2.9179,-2.8532,-2.8488,-2.8008,-2.7433,-2.705,-2.6922,-2.6653,-2.5717,-2.5601,-2.5662,-2.5618,-2.5657,-2.5703,-2.5703,-2.56,-2.5505,-2.5512,-2.5453,-2.5427,-2.5505,-2.5517,-2.5258,-2.4546,-2.5122,-2.5334,-2.4616,-2.5232,-2.5658,-2.5511,-2.5383,-2.5303,-2.5303,-2.5303,-2.5303,-2.5303,-2.5303,-2.5303,-2.5303,-2.5284,-2.5118,-2.4804,-2.4789,-2.4248,-2.3195,-2.2824,-2.2062,-2.384,-2.4319,-2.4938,-2.5744,-2.6324,-2.699,-2.8112,-2.8404,-2.8647,-2.921,-2.991,-3.068,-3.1301,-3.188,-3.2475,-3.3099,-3.2679,-3.2338,-3.2562,-3.1513,-3.0705,-3.0705,-3.0383,-3.0646,-3.1854,-3.2651,-3.3146,-3.3259,-3.4183,-3.4737,-3.4737,-3.5218,-3.5515,-3.5534,-3.5601,-3.5405,-3.49,-3.5051,-3.4436,-3.3074,-3.2758,-3.2184,-3.1445,-3.1445,-3.123,-3.0898,-3.0898,-3.0898,-3.0898,-3.0898,-3.0898,-3.0898,-3.0898,-3.0898,-3.0898,-3.0898,-3.0898,-3.0898,-3.0898,-3.0566,-3.0234,-3.0742,-3.0215,-2.9414,-2.9551,-2.8984,-2.8281,-2.8278,-2.7709,-2.7082,-2.6956,-2.655,-2.6106,-2.5709,-2.566,-2.5683,-2.5658,-2.5682,-2.5703,-2.5703,-2.5625,-2.5546,-2.5507,-2.5447,-2.5403,-2.5393,-2.5053,-2.4681,-2.433,-2.4623,-2.4918,-2.5076,-2.5466,-2.566,-2.5564,-2.5477,-2.5406,-2.5363,-2.5312,-2.5303,-2.5303,-2.5303,-2.5303,-2.5303,-2.5303,-2.5138,-2.4804,-2.4802,-2.4244,-2.3182,-2.3041,-2.237,-2.3403,-2.4146,-2.4834,-2.5014,-2.5775,-2.6476,-2.6526,-2.706,-2.759,-2.7743,-2.8654,-2.9653,-3.0209,-3.0954,-3.1754,-3.2414,-3.2206,-3.2025,-3.2074,-3.0998,-3.021,-3.021,-2.9696,-2.9863,-3.124,-3.177,-3.2205,-3.2565,-3.3312,-3.389,-3.418,-3.4564,-3.4776,-3.4776,-3.4859,-3.4594,-3.3914,-3.4078,-3.3393,-3.1943,-3.1975,-3.1587,-3.0857,-3.0879,-3.0898,-3.0898,-3.0898,-3.0898,-3.0898,-3.0898,-3.0879,-3.0838,-3.0838,-3.0835,-3.0811,-3.0836,-3.0722,-3.0547,-3.0547,-2.9961,-2.9355,-2.998,-2.9336,-2.8379,-2.8769,-2.8437,-2.7891,-2.7656,-2.7129,-2.6641,-2.6641,-2.6172,-2.5703,-2.5703,-2.5703,-2.5703,-2.5703,-2.5703,-2.5703,-2.5703,-2.5657,-2.5573,-2.5543,-2.5459,-2.524,-2.4722,-2.4205,-2.3964,-2.4216,-2.4273,-2.4623,-2.55,-2.5643,-2.5659,-2.5603,-2.5543,-2.5463,-2.5401,-2.536,-2.5357,-2.5321,-2.5321,-2.534,-2.534,-2.5303,-2.5138,-2.4804,-2.4804,-2.4259,-2.3191,-2.3074,-2.2532,-2.3349,-2.3084,-2.285,-2.3487,-2.3683,-2.3742,-2.3817,-2.4332,-2.4955,-2.5589,-2.6201,-2.696,-2.8068,-2.927,-3.0236,-3.0699,-3.1462,-3.173,-3.0954,-3.048,-3.021,-3.021,-3.0173,-3.0191,0.0,-3.0494,-3.1186,-3.2511,-3.2638,-3.3111,-3.4141,-3.341,-3.2987,-3.2987,-3.3111,-3.3102,-3.2942,-3.3134,-3.2759,-3.1805,-3.1934,-3.1555,-3.0718,-3.0837,-3.0898,-3.0898,-3.0898,-3.0898,-3.0898,-3.0898,-3.0817,-3.0716,-3.0716,-3.0669,-3.0623,-3.068,-3.0245,-2.9648,-2.9648,-2.9062,-2.834,-2.8379,-2.834,-2.8144,-2.7324,-2.7051,-2.6855,-2.6016,-2.5762,-2.5742,-2.5742,-2.5723,-2.5703,-2.5703,-2.5703,-2.5703,-2.5703,-2.5703,-2.5703,-2.5703,-2.5657,-2.5601,-2.5601,-2.5493,-2.4844,-2.3224,-2.2894,-2.3157,-2.4004,-2.4225,-2.4623,-2.55,-2.5604,-2.5603,-2.5601,-2.5543,-2.5463,-2.5401,-2.5465,-2.5457,-2.5394,-2.5398,-2.5391,-2.5391,-2.533,-2.5138,-2.4804,-2.4804,-2.4244,-2.3189,-2.2785,-2.2253,-2.2272,-2.2459,-2.2722,-2.2962,-2.3327,-2.3677,-2.3701,-2.323,-2.2997,-2.354,-2.3888,-2.4564,-2.599,-2.7331,-2.8743,-3.042,-3.0485,-3.0645,-3.1492,-3.103,-3.0701,-3.0956,-3.0999,0.0,0.0,0.0,0.0,-3.1498,-3.1648,-3.2216,-3.3282,-3.3064,-3.2891,-3.2891,-3.2933,-3.2682,-3.2102,-3.218,-3.1777,-3.0944,-3.1076,-3.1038,-3.0837,-3.0879,-3.0898,-3.0898,-3.0898,-3.0898,-3.0898,-3.0795,-3.0745,-3.0693,-3.0657,-3.0628,-3.0547,-3.0034,-2.9331,-2.876,-2.9374,-2.8652,-2.7539,-2.8105,-2.7519,-2.6621,-2.6914,-2.6602,-2.6074,-2.5781,-2.5703,-2.5703,-2.5703,-2.5703,-2.5703,-2.5703,-2.5703,-2.5703,-2.5703,-2.5703,-2.5703,-2.5703,-2.5683,-2.5659,-2.5605,-2.5561,-2.4929,-2.3172,-2.2354,-2.2254,-2.3129,-2.3851,-2.4631,-2.5442,-2.56,-2.5661,-2.5661,-2.5603,-2.5558,-2.552,-2.5503,-2.5484,-2.5477,-2.5421,-2.5406,-2.5406,-2.5197,-2.4993,-2.4804,-2.4433,-2.3911,-2.3189,-2.2838,-2.2434,-2.1302,-2.1409,-2.1496,-2.1051,-2.1277,-2.155,-2.1462,-2.0984,-2.0751,-2.1299,-2.1814,-2.2535,-2.3795,-2.5401,-2.7232,-2.9134,-2.9696,-3.0296,-3.1342,-3.1356,-3.1309,-3.1599,-3.173,-3.1825,-3.1825,0.0,0.0,-3.1411,-3.125,-3.1535,-3.2417,-3.2179,-3.2006,-3.2006,-3.2006,-3.1756,-3.1237,-3.1237,-3.1011,-3.0537,-3.0614,-3.076,-3.0898,-3.0898,-3.0898,-3.0898,-3.0898,-3.0878,-3.0796,-3.0433,-3.0404,-3.0594,-3.0237,-3.0288,-3.0432,-2.9641,-2.8824,-2.8188,-2.8524,-2.7714,-2.6621,-2.7187,-2.6602,-2.5801,-2.6367,-2.6133,-2.5703,-2.5703,-2.5703,-2.5703,-2.5703,-2.5703,-2.5703,-2.5703,-2.5703,-2.5703,-2.5703,-2.5703,-2.5703,-2.5703,-2.5703,-2.5683,-2.5637,-2.5121,-2.4294,-2.3081,-2.1861,-2.139,-2.2224,-2.3457,-2.4452,-2.4971,-2.5386,-2.5636,-2.5661,-2.5625,-2.5599,-2.5603,-2.5573,-2.5551,-2.5493,-2.5465,-2.5421,-2.5406,-2.5137,-2.4924,-2.4804,-2.4385,-2.383,-2.3189,-2.2972,-2.2712,-2.0406,-1.9951,-1.9211,-1.803,-1.7713,-1.7647,-1.731,-1.7725,-1.8287,-1.89,-1.9964,-2.0984,-2.1546,-2.362,-2.5691,-2.7007,-2.9119,-3.0647,-3.0663,-3.1434,-3.2007,-3.2054,-3.2411,-3.2625,-3.2588,-3.1916,0.0,-3.2071,0.0,-3.1075,-3.1642,-3.0859,-3.0398,-3.0398,-3.0398,-3.0398,-3.0398,-3.0398,-3.0472,-3.06,-3.06,-3.0708,-3.0879,-3.0898,-3.0898,-3.0879,-3.0898,-3.0816,-3.0635,-2.9874,-2.9907,-3.0344,-2.953,-2.9641,-3.0171,-2.937,-2.8593,-2.7823,-2.7086,-2.6337,-2.5683,-2.5683,-2.5683,-2.5683,-2.5703,-2.5703,-2.5703,-2.5703,-2.5703,-2.5703,-2.5703,-2.5703,-2.5703,-2.5703,-2.5703,-2.5703,-2.5703,-2.5703,-2.5684,-2.5644,-2.5625,-2.5625,-2.5566,-2.4232,-2.3085,-2.2874,-2.1423,-2.0663,-2.1455,-2.3064,-2.4154,-2.4251,-2.5005,-2.5511,-2.5598,-2.5601,-2.56,-2.5607,-2.5661,-2.5637,-2.5526,-2.5493,-2.5477,-2.5406,-2.5137,-2.493,-2.4804,-2.4575,-2.4042,-2.323,-2.3212,-2.3021,-1.8785,-1.8218,-1.7493,-1.6899,-1.6741,-1.6751,-1.6646,-1.6727,-1.7017,-1.7549,-1.8679,-1.9841,-2.0775,-2.2979,-2.5211,-2.6916,-2.8543,-3.001,-3.13,-3.169,-3.21,-3.2817,-3.2965,-3.2938,-3.2643,-3.2412,-3.1937,0.0,-3.0396,-3.0419,-3.1365,-3.0759,-3.0398,-3.0398,-3.0398,-3.0398,-3.0398,-3.0398,-3.0441,-3.0521,-3.0521,-3.0587,-3.0676,-3.0735,-3.0713,-3.0681,-3.0735,-3.0707,-3.0608,-3.0361,-2.9955,-2.9511,-2.9226,-2.8884,-2.8429,-2.7585,-2.717,-2.6916,-2.6062,-2.5683,-2.5558,-2.5605,-2.5598,-2.5564,-2.5662,-2.5661,-2.5634,-2.5683,-2.5703,-2.5703,-2.5703,-2.5703,-2.5703,-2.5703,-2.5703,-2.5703,-2.5703,-2.5703,-2.5508,-2.4863,-2.4727,-2.4531,-2.3867,-2.3899,-2.3539,-2.2215,-2.1593,-2.1552,-2.2367,-2.278,-2.3551,-2.4941,-2.5201,-2.5365,-2.5576,-2.5601,-2.5615,-2.5663,-2.5683,-2.5683,-2.5658,-2.5554,-2.5484,-2.5463,-2.5064,-2.4828,-2.4804,-2.4192,-2.378,-2.3566,-2.3323,-2.3141,-1.7381,-1.6676,-1.6034,-1.53,-1.5124,-1.5171,-1.5252,-1.5255,-1.5499,-1.6341,-1.7252,-1.8235,-1.9368,-2.1539,-2.3904,-2.6059,-2.7734,-2.9409,-3.1261,-3.1696,-3.2057,-3.2809,-3.2769,-3.2643,-3.2598,-3.1971,-3.1238,0.0,-3.0219,-3.0245,-3.0579,-3.0357,-3.0222,-3.0222,-3.0343,-3.0398,-3.0398,-2.9679,-2.9505,-2.9918,-2.9577,-2.9438,-2.9508,-2.9546,-2.9542,-2.9508,0.0,-2.9523,-2.9421,-2.9009,-2.8758,-2.8579,-2.8172,-2.7948,-2.7794,-2.6928,-2.6622,-2.6524,-2.5663,-2.5376,-2.5428,-2.5511,-2.5539,-2.5503,-2.5595,-2.5595,-2.5561,-2.5603,-2.5607,-2.5607,-2.5607,-2.5607,-2.5629,-2.5658,-2.5659,-2.5661,-2.5683,-2.5703,-2.5449,-2.457,-2.4707,-2.457,-2.3359,-2.3513,-2.3343,-2.1909,-2.1337,-2.1333,-2.2057,-2.2384,-2.2969,-2.406,-2.4734,-2.5224,-2.5489,-2.5543,-2.5573,-2.5659,-2.5683,-2.5683,-2.566,-2.5558,-2.5498,-2.5465,-2.5019,-2.4804,-2.4804,-2.4211,-2.3837,-2.3692,-2.3522,-2.3414,-1.6298,-1.5558,-1.4807,-1.371,-1.3418,-1.3471,-1.3635,-1.3721,-1.4133,-1.5276,-1.5959,-1.6718,-1.7814,-1.9966,-2.2376,-2.4812,-2.6841,-2.8787,-3.0796,-3.147,-3.1845,-3.2243,-3.2059,-3.1978,-3.218,-3.0992,-3.0173,-3.0063,-3.0257,-3.0161,-2.9681,-2.9845,-2.9912,-2.9827,-3.0081,-3.0179,-3.0083,-2.864,-2.828,-2.901,-2.8321,-2.8027,-2.8065,-2.8076,-2.8076,-2.8065,0.0,0.0,-2.7934,-2.7168,-2.7198,-2.764,-2.6909,-2.6986,-2.7467,-2.6717,-2.6428,-2.6332,-2.5553,-2.5303,-2.5331,-2.5453,-2.5473,-2.5488,-2.5484,-2.5484,-2.5498,-2.5493,-2.5489,-2.5503,-2.5503,-2.5503,-2.5517,-2.5573,-2.5601,-2.5629,-2.5683,-2.5605,-2.5293,-2.4551,-2.4922,-2.4863,-2.3301,-2.3027,-2.2692,-2.1682,-2.0877,-2.0563,-2.1043,-2.1904,-2.2532,-2.2699,-2.4048,-2.5061,-2.534,-2.5414,-2.5507,-2.5598,-2.5661,-2.5662,-2.5627,-2.5547,-2.5424,-2.5259,-2.4969,-2.4757,-2.4662,-2.4389,-2.4095,-2.3819,-2.3777,-2.3774,-1.6435,-1.5443,-1.4299,-1.3263,-1.2988,-1.3018,-1.3036,-1.342,-1.4003,-1.4698,-1.5696,-1.6604,-1.7299,-1.939,-2.1698,-2.3727,-2.6018,-2.8233,-3.0179,-3.0942,-3.1247,-3.1064,-3.1258,-3.1082,-3.0215,-3.0173,-2.9934,0.0,-2.9265,-2.9329,-2.9453,-2.9643,-2.9526,-2.9008,-2.9212,-2.9006,-2.8332,-2.8052,-2.7986,-2.8124,-2.7981,-2.7913,-2.7933,-2.7981,-2.7992,-2.7943,0.0,0.0,-2.7913,-2.7739,-2.7363,-2.6813,-2.6659,-2.6255,-2.5726,-2.5572,-2.5534,-2.5495,-2.5341,-2.5303,-2.5313,-2.5398,-2.5376,-2.5354,-2.5477,-2.5465,-2.5434,-2.5477,-2.5508,-2.5505,-2.5505,-2.5505,-2.5515,-2.5587,-2.5601,-2.5629,-2.5683,-2.5137,-2.457,-2.4434,-2.3984,-2.3301,-2.2305,-2.2129,-2.1775,-2.0787,-2.05,-2.0328,-2.008,-2.135,-2.2539,-2.3271,-2.408,-2.4738,-2.512,-2.5201,-2.5341,-2.5598,-2.5661,-2.5683,-2.5683,-2.5561,-2.5177,-2.4506,-2.4812,-2.4638,-2.396,-2.4286,-2.4426,-2.4355,-2.4191,-2.4113,-1.5862,-1.5159,-1.4443,-1.3973,-1.3836,-1.3836,-1.3836,-1.3826,-1.405,-1.496,-1.5353,-1.5947,-1.745,-1.8975,-2.066,-2.2821,-2.4453,-2.631,-2.8893,-2.9493,-2.9956,-3.0629,-3.0488,-3.0082,-2.9426,-2.9285,-2.9082,-2.8718,-2.8863,-2.9062,-2.9181,-2.8986,-2.8796,-2.8647,-2.7994,-2.7668,-2.7739,-2.6941,-2.6783,-2.7225,-2.6755,-2.6544,-2.6544,-2.6573,-2.6593,-2.6544,-2.6573,0.0,-2.6544,-2.6544,-2.6294,-2.5928,-2.5928,-2.5668,-2.5303,-2.5303,-2.5303,-2.5303,-2.5303,-2.5303,-2.5313,-2.5339,-2.5321,-2.5313,-2.5387,-2.536,-2.5354,-2.5381,-2.5398,-2.5401,-2.5401,-2.5401,-2.5403,-2.5482,-2.5551,-2.5601,-2.5601,-2.5299,-2.4757,-2.3847,-2.4065,-2.37,-2.1494,-2.1893,-2.2031,-2.0618,-2.0399,-2.0294,-1.9992,-2.0914,-2.1721,-2.2055,-2.2768,-2.3363,-2.3771,-2.3867,-2.3993,-2.4222,-2.43,-2.4353,-2.4394,-2.428,-2.4014,-2.3625,-2.3678,-2.3728,-2.3797,-2.3927,-2.4207,-2.4654,-2.4561,-2.4512,-1.5709,-1.5333,-1.5014,-1.488,-1.4858,-1.4858,-1.4858,-1.4411,-1.4318,-1.5365,-1.5231,-1.5487,-1.7395,-1.8371,-1.9646,-2.1909,-2.3041,-2.4712,-2.7886,-2.8411,-2.8984,-3.0177,-2.9851,-2.929,-2.877,-2.8523,-2.8394,-2.8394,-2.8609,0.0,-2.8741,-2.8174,-2.7867,-2.7909,-2.6811,-2.651,-2.7034,-2.5841,-2.561,-2.6311,-2.563,-2.5303,-2.5303,-2.5303,-2.5303,-2.5303,-2.5303,0.0,0.0,-2.5303,-2.5303,-2.5303,-2.5303,-2.5303,-2.5303,-2.5303,-2.5303,-2.5303,-2.5303,-2.5303,-2.5303,-2.5303,-2.5303,-2.5303,-2.5303,-2.5303,-2.5303,-2.5303,-2.5303,-2.5303,-2.5303,-2.5303,-2.5322,-2.5376,-2.5498,-2.5561,-2.5503,-2.541,-2.4918,-2.3543,-2.4047,-2.3825,-2.1134,-2.1703,-2.2037,-2.0591,-2.0377,-2.0316,-2.0104,-2.047,-2.0687,-2.056,-2.1389,-2.211,-2.2505,-2.2604,-2.2748,-2.2974,-2.3068,-2.3137,-2.3203,-2.3096,-2.2933,-2.273,-2.2797,-2.3004,-2.3307,-2.3657,-2.409,-2.4596,-2.4724,-2.4775,-1.6918,-1.6696,-1.6108,-1.556,-1.5416,-1.5416,-1.5416,-1.5016,-1.4789,-1.5454,-1.5543,-1.5764,-1.6497,-1.7475,-1.8863,-2.0923,-2.2559,-2.4713,-2.7923,-2.8845,-2.9187,-2.9163,-2.9368,-2.8951,-2.7608,-2.8037,-2.8394,-2.8394,0.0,0.0,-2.7915,-2.734,-2.6692,-2.5984,-2.5995,-2.5764,-2.5247,-2.5094,-2.5168,-2.5418,-2.5341,-2.5303,-2.5303,-2.5303,-2.5303,-2.5303,-2.5303,0.0,0.0,-2.5303,-2.5303,-2.5303,-2.5303,-2.5303,-2.5303,-2.5303,-2.5303,-2.5303,-2.5303,-2.5303,-2.5303,-2.5303,-2.5303,-2.5303,-2.5303,-2.5303,-2.5303,-2.5303,-2.5303,-2.5303,-2.5303,-2.5303,-2.5322,-2.5383,-2.5465,-2.5517,-2.5493,-2.4934,-2.4365,-2.4203,-2.3032,-2.1956,-2.1641,-2.1062,-2.0564,-2.0345,-2.0315,-2.0248,-2.0041,-1.9953,-1.9849,-1.9734,-2.0968,-2.1964,-2.229,-2.2391,-2.2601,-2.2989,-2.3068,-2.3137,-2.3203,-2.3132,-2.2692,-2.1839,-2.3218,-2.3215,-2.1718,-2.3823,-2.4517,-2.3895,-2.4515,-2.47,-1.7859,-1.7882,-1.7514,-1.7633,-1.7118,-1.6579,-1.6579,-1.5915,-1.541,-1.6008,-1.5864,-1.5896,-1.6811,-1.7585,-1.8585,-2.0145,-2.1188,-2.2855,-2.5648,-2.6527,-2.712,-2.7757,-2.823,-2.8049,-2.7041,-2.7422,-2.7639,-2.7442,0.0,0.0,-2.6081,-2.6029,-2.5855,-2.554,-2.5239,-2.4965,-2.4696,-2.4809,-2.4968,-2.5133,-2.5122,-2.5173,-2.5303,-2.5303,-2.5303,-2.5303,-2.5303,0.0,0.0,-2.5303,-2.5303,-2.5303,-2.5303,-2.5224,-2.5111,-2.5111,-2.5072,-2.5006,-2.5006,-2.5006,-2.5,-2.5088,-2.5069,-2.5038,-2.5234,-2.5303,-2.5303,-2.5303,-2.5303,-2.5303,-2.5303,-2.5303,-2.5303,-2.533,-2.5391,-2.5421,-2.5383,-2.5156,-2.4652,-2.3608,-2.3253,-2.2658,-2.1119,-2.1012,-2.0943,-2.0389,-2.0301,-2.0272,-2.0192,-2.0027,-1.9879,-1.9738,-1.9951,-2.026,-2.0633,-2.0632,-2.0771,-2.123,-2.1394,-2.1745,-2.2336,-2.2339,-2.2396,-2.2544,-2.3134,-2.3109,-2.2416,-2.3339,-2.362,-2.3342,-2.4043,-2.4339,-1.8178,-1.8652,-1.8712,-1.8808,-1.8329,-1.7717,-1.7393,-1.6544,-1.6008,-1.6423,-1.6151,-1.6126,-1.6909,-1.7626,-1.8418,-1.9504,-2.0401,-2.184,-2.4157,-2.514,-2.5928,-2.6755,-2.7634,-2.7651,-2.638,-2.6553,-2.664,-2.6419,0.0,0.0,0.0,-2.4775,-2.4955,-2.5034,-2.4617,-2.4431,-2.4504,-2.4655,-2.4787,-2.4949,-2.4934,-2.5005,-2.5149,-2.5152,-2.5173,-2.5214,0.0,0.0,0.0,-2.5182,-2.5179,-2.5212,-2.5179,-2.5072,-2.4937,-2.4937,-2.4877,-2.4804,-2.4804,-2.4804,-2.4832,-2.4917,-2.4873,-2.4835,-2.5079,-2.5187,-2.5226,-2.5284,-2.5303,-2.5303,-2.5303,-2.5303,-2.5303,-2.5303,-2.533,-2.5354,-2.5303,-2.4962,-2.4262,-2.3041,-2.2896,-2.2403,-2.06,-2.08,-2.1001,-2.0389,-2.0312,-2.0312,-2.0312,-2.0131,-1.9954,-1.9863,-1.9394,-1.9218,-1.9567,-1.9453,-1.9557,-2.0065,-2.0475,-2.1025,-2.1776,-2.205,-2.2475,-2.3088,-2.328,-2.312,-2.2613,-2.3115,-2.3227,-2.3023,-2.3767,-2.4234,-1.7591,-1.8862,-1.962,-1.8472,-1.864,-1.8755,-1.7555,-1.6879,-1.6479,-1.6522,-1.6522,-1.6466,-1.6522,-1.7394,-1.8339,-1.8989,-2.0553,-2.237,-2.4219,-2.5552,-2.6278,-2.6334,-2.7881,-2.8005,-2.5464,-2.5342,-2.5459,0.0,0.0,0.0,0.0,-2.371,-2.3876,-2.4208,-2.4208,-2.4301,-2.4504,-2.4503,-2.4601,-2.4797,-2.4802,-2.4804,-2.4804,-2.4815,-2.4873,0.0,0.0,0.0,0.0,-2.4936,-2.4874,-2.4987,-2.4861,-2.4804,-2.4804,-2.4804,-2.4804,-2.4804,-2.4804,-2.4804,-2.4799,-2.4796,-2.4797,-2.4797,-2.48,-2.4908,-2.5043,-2.5245,-2.5303,-2.5303,-2.5303,-2.5303,-2.5303,-2.5303,-2.5303,-2.5303,-2.5303,-2.4005,-2.2821,-2.2793,-2.1466,-2.0331,-2.0312,-2.0312,-2.0312,-2.0312,-2.0312,-2.0312,-2.0312,-2.0131,-2.0007,-2.0007,-1.9532,-1.9312,-1.9594,-1.9372,-1.9468,-2.0065,-2.0908,-2.1501,-2.1793,-2.2632,-2.3081,-2.3109,-2.3883,-2.3439,-2.1722,-2.3387,-2.3772,-2.3017,-2.3767,-2.4524,-1.8267,-1.8989,-1.9221,-1.8874,-1.8329,-1.7772,-1.7393,-1.6879,-1.6522,-1.6522,-1.6522,-1.6522,-1.6522,-1.7394,-1.8616,-2.0199,-2.1553,-2.29,-2.4366,-2.562,-2.6213,-2.5743,-2.6805,-2.7002,-2.5611,0.0,-2.5128,0.0,0.0,0.0,0.0,-2.3236,-2.3628,-2.417,-2.419,-2.4226,-2.4301,-2.4303,-2.4414,-2.4598,-2.4586,-2.4663,-2.4801,-2.4804,0.0,0.0,0.0,0.0,0.0,-2.4847,-2.4818,-2.4861,-2.4818,-2.4716,-2.4591,-2.4591,-2.4512,-2.4393,-2.4393,-2.4393,-2.4409,-2.4564,-2.45,-2.4431,-2.4713,-2.4889,-2.5005,-2.5091,-2.5091,-2.5091,-2.5091,-2.5091,-2.513,-2.5264,-2.5303,-2.5303,-2.5303,-2.4447,-2.3514,-2.2908,-2.1889,-2.0946,-2.0389,-2.0312,-2.0312,-2.0312,-2.0312,-2.0312,-2.0312,-2.0246,-2.015,-2.0007,-1.9726,-1.9563,-1.9596,-1.9182,-1.9158,-1.9717,-1.9974,-2.0794,-2.2346,-2.2721,-2.3503,-2.478,-2.5098,-2.4684,-2.3548,-2.4074,-2.4149,-2.383,-2.4012,-2.4535,-1.8028,-1.883,-1.9212,-1.8598,-1.8076,-1.7576,-1.7115,-1.6752,-1.6522,-1.6522,-1.6522,-1.6522,-1.6522,-1.7188,-1.8344,-2.0059,-2.1282,-2.2532,-2.4014,-2.5268,-2.606,-2.6103,-2.5835,-2.568,0.0,-2.5063,0.0,0.0,0.0,0.0,0.0,-2.2898,-2.3259,-2.3816,-2.3816,-2.3937,-2.4208,-2.4074,-2.4149,-2.4374,-2.4395,-2.4447,-2.4574,-2.4582,0.0,0.0,0.0,0.0,0.0,-2.4645,-2.4631,-2.4687,-2.4613,-2.4495,-2.4393,-2.4393,-2.4303,-2.419,-2.419,-2.419,-2.4228,-2.4338,-2.4302,-2.4266,-2.4586,-2.4793,-2.4928,-2.4928,-2.4912,-2.4929,-2.4929,-2.4931,-2.4966,-2.5091,-2.5111,-2.513,-2.5187,-2.4493,-2.3668,-2.2938,-2.2027,-2.1156,-2.0438,-2.0312,-2.0312,-2.0312,-2.0312,-2.0312,-2.0312,-2.0312,-2.0246,-2.0131,-1.9941,-1.9801,-1.974,-1.9264,-1.9284,-2.0089,-2.0331,-2.1256,-2.3071,-2.3475,-2.4273,-2.5562,-2.5636,-2.5252,-2.4394,-2.4373,-2.4288,-2.4172,-2.4464,-2.4679,0.0,-1.8526,-1.9462,-1.7804,-1.7795,-1.7886,-1.6751,-1.6522,0.0,-1.6522,-1.6522,-1.6547,-1.6622,-1.7041,-1.7839,-1.9142,-2.0357,-2.1754,-2.3522,-2.4706,-2.5882,-2.7089,-2.5145,-2.4282,-2.5668,-2.4103,0.0,0.0,0.0,0.0,0.0,-2.2643,-2.2822,-2.3141,-2.3159,-2.3455,-2.4113,-2.3816,-2.3816,-2.4132,-2.4132,-2.4132,-2.4132,-2.4132,0.0,0.0,0.0,0.0,0.0,-2.434,-2.4319,-2.4467,-2.4282,-2.419,-2.419,-2.419,-2.419,-2.419,-2.419,-2.419,-2.419,-2.419,-2.419,-2.4226,-2.4411,-2.4625,-2.4771,-2.4771,-2.4779,-2.4781,-2.4781,-2.4783,-2.4771,-2.479,-2.479,-2.4839,-2.4955,-2.419,-2.3372,-2.293,-2.1952,-2.1003,-2.0455,-2.0307,-2.0269,-2.0269,-2.0269,-2.0269,-2.0277,-2.0277,-2.0277,-2.0285,-2.0116,-2.0001,-1.9991,-1.9512,-1.9722,-2.0916,-2.157,-2.2507,-2.3813,-2.462,-2.5205,-2.5595,-2.5603,-2.5245,-2.4492,-2.4422,-2.4323,-2.423,-2.5038,-2.4954,-1.8518,0.0,-1.8403,-1.7539,-1.7115,-1.6832,0.0,-1.6522,-1.6522,-1.6522,-1.6522,-1.6785,-1.7652,-1.8275,-1.936,-2.1509,-2.2927,-2.4075,-2.4985,-2.5348,-2.5819,-2.6523,-2.5636,-2.4657,-2.3867,-2.3346,0.0,0.0,0.0,0.0,0.0,-2.2198,-2.2527,-2.2822,-2.2634,-2.2798,-2.3414,-2.3369,-2.3369,-2.3455,-2.3455,-2.3455,-2.3455,-2.3455,0.0,0.0,0.0,0.0,-2.3978,-2.4133,-2.4226,-2.4282,-2.4208,-2.419,-2.419,-2.419,-2.419,-2.419,-2.419,-2.419,-2.419,-2.419,-2.419,-2.4208,-2.4245,-2.4413,-2.4571,-2.4571,-2.4561,-2.4559,-2.4559,-2.4579,-2.4625,-2.4756,-2.481,-2.4818,-2.4842,-2.4144,-2.3479,-2.3357,-2.2085,-2.1008,-2.0854,-2.0327,-1.9909,-1.9909,-1.9909,-1.9952,-2.006,-1.9984,-1.9964,-2.0057,-2.0024,-1.9999,-1.9997,-1.9595,-1.9787,-2.0785,-2.096,-2.1792,-2.3525,-2.3965,-2.4609,-2.5511,-2.5611,-2.5585,-2.5391,-2.5322,-2.5242,-2.5171,-2.5337,-2.5266,-1.853,-1.8799,-1.889,-1.8605,-1.79,-1.7287,-1.7287,-1.6886,-1.6522,-1.6522,-1.6722,-1.7099,-1.7714,-1.8494,-1.9798,-2.1987,-2.3112,-2.4261,-2.5819,-2.5794,-2.5693,-2.6001,-2.4904,-2.3769,0.0,0.0,0.0,0.0,0.0,0.0,0.0,-2.1584,-2.1866,-2.2186,-2.1895,-2.2175,-2.3189,-2.3045,-2.3045,-2.3189,-2.3189,-2.3189,-2.3189,-2.3189,-2.3189,0.0,0.0,0.0,-2.3522,-2.3996,-2.4113,-2.3996,-2.4151,-2.419,-2.419,-2.419,-2.419,-2.419,-2.419,-2.4116,-2.395,-2.3803,-2.3729,-2.3729,-2.3729,-2.3913,-2.4171,-2.4319,-2.4356,-2.4356,-2.4356,-2.4356,-2.4393,-2.4504,-2.4522,-2.4561,-2.4644,-2.4225,-2.3764,-2.3543,-2.2687,-2.1906,-2.1591,-2.1198,-2.091,-2.0904,-2.0897,-2.0802,-2.0497,-2.041,-2.0243,-1.9945,-1.9954,-2.0153,-2.0554,-2.0441,-2.0714,-2.1524,-2.183,-2.2663,-2.4132,-2.4331,-2.475,-2.5489,-2.5634,-2.5683,-2.5659,-2.5629,-2.5564,-2.5489,-2.5471,-2.5227,-1.8349,-1.9265,-1.9887,-1.9859,-1.9059,-1.8304,-1.8229,-1.7463,-1.6773,-1.6773,-1.7174,-1.7589,-1.784,-1.8677,-1.9894,-2.1786,-2.2594,-2.3829,-2.6248,-2.5935,-2.5458,-2.5615,-2.3954,0.0,0.0,0.0,0.0,0.0,0.0,0.0,0.0,-2.0959,-2.115,-2.1491,-2.1181,-2.1606,-2.2863,-2.2652,-2.2721,-2.3063,-2.3063,-2.3063,-2.3063,-2.3063,-2.3063,0.0,0.0,0.0,-2.3165,-2.3795,-2.3878,-2.3656,-2.3978,-2.4114,-2.4135,-2.4171,-2.419,-2.419,-2.419,-2.3981,-2.3656,-2.3361,-2.3231,-2.3195,-2.3195,-2.3397,-2.3678,-2.3967,-2.4135,-2.419,-2.419,-2.419,-2.419,-2.419,-2.419,-2.4245,-2.4411,-2.4319,-2.4079,-2.3674,-2.3361,-2.2997,-2.2421,-2.2223,-2.2144,-2.2149,-2.2145,-2.1896,-2.1255,-2.1016,-2.0715,-2.02,-2.0149,-2.0511,-2.1374,-2.1723,-2.2144,-2.2699,-2.3278,-2.4037,-2.5015,-2.5069,-2.5187,-2.5473,-2.5627,-2.5664,-2.5593,-2.5609,-2.5573,-2.5526,-2.5526,-2.5133,-1.9857,-2.0435,-2.0244,-1.937,-1.9025,-1.8781,-1.8304,-1.8066,-1.794,-1.794,-1.8016,-1.8505,-1.9899,-2.0348,-2.1077,-2.2789,-2.3689,-2.4696,-2.6303,-2.543,-2.4888,-2.5506,0.0,0.0,0.0,0.0,0.0,0.0,0.0,0.0,0.0,-2.0797,-2.1039,-2.1086,-2.1023,-2.1118,-2.1336,-2.1609,-2.201,-2.2443,-2.2443,-2.2443,-2.2443,-2.2443,-2.2443,0.0,0.0,-2.2822,-2.2822,-2.3189,-2.3325,-2.3303,-2.3638,-2.3771,-2.3821,-2.4116,-2.419,-2.419,-2.419,-2.3993,-2.3692,-2.3657,-2.3431,-2.3204,-2.3204,-2.3239,-2.3293,-2.3343,-2.3747,-2.419,-2.419,-2.419,-2.419,-2.419,-2.419,-2.4208,-2.4226,-2.4208,-2.4171,-2.4116,-2.351,-2.2997,-2.2883,-2.2311,-2.1854,-2.1875,-2.1854,-2.1863,-2.1853,-2.1115,-2.0856,-2.1573,-2.1234,-2.1262,-2.2078,-2.3099,-2.3736,-2.3852,-2.3938,-2.4379,-2.5215,-2.5301,-2.5356,-2.5401,-2.5547,-2.5609,-2.5593,-2.5664,-2.5658,-2.5573,-2.5573,-2.5496,-1.8577,-1.9344,-1.9671,-1.949,-1.9915,-2.03,-2.0037,-1.951,-1.907,-1.907,-1.9309,-1.9773,-2.058,-2.1199,-2.2102,-2.3585,-2.419,-2.4662,-2.5328,-2.4352,-2.366,0.0,0.0,0.0,0.0,0.0,0.0,0.0,0.0,0.0,0.0,0.0,-2.0398,-2.0616,-2.0398,-2.0499,-2.1007,-2.0943,-2.1134,-2.1584,-2.1811,-2.1928,-2.1928,-2.218,-2.231,-2.2293,0.0,-2.2625,-2.2527,-2.2999,-2.3088,-2.2964,-2.3301,-2.3424,-2.3446,-2.3602,-2.3671,-2.3649,-2.367,-2.3436,-2.3172,-2.3162,-2.2943,-2.27,-2.27,-2.2813,-2.2935,-2.2923,-2.3408,-2.3913,-2.3913,-2.406,-2.419,-2.419,-2.419,-2.419,-2.419,-2.419,-2.419,-2.419,-2.3896,-2.3639,-2.3639,-2.3346,-2.3107,-2.3088,-2.3088,-2.2959,-2.2605,-2.215,-2.1855,-2.1893,-2.1807,-2.2071,-2.288,-2.3662,-2.4284,-2.4716,-2.4755,-2.4909,-2.5284,-2.5371,-2.5406,-2.5398,-2.5503,-2.5551,-2.5551,-2.559,-2.5586,-2.5558,-2.5558,-2.5522,-1.7388,-1.8292,-1.9183,-1.9836,-2.0665,-2.1368,-2.1619,-2.0916,-2.0225,-2.0363,-2.074,-2.1016,-2.0932,-2.1656,-2.2571,-2.3501,-2.3817,-2.3974,-2.4053,-2.3122,-2.2501,-2.2699,0.0,0.0,0.0,0.0,0.0,0.0,0.0,0.0,0.0,0.0,-1.9839,-2.0158,-1.9874,-2.0015,-2.0698,-2.033,-2.0431,-2.0991,-2.1306,-2.1491,-2.1612,-2.1957,-2.2209,-2.231,-2.2527,-2.2473,-2.2349,-2.2785,-2.2835,-2.2643,-2.2963,-2.3126,-2.3191,-2.32,-2.3189,-2.3183,-2.3203,-2.2979,-2.2702,-2.2684,-2.2507,-2.231,-2.231,-2.244,-2.2604,-2.2604,-2.3035,-2.35,-2.3652,-2.3895,-2.4116,-2.4171,-2.419,-2.419,-2.419,-2.419,-2.419,-2.419,-2.419,-2.419,-2.419,-2.419,-2.419,-2.419,-2.419,-2.3988,-2.3364,-2.3125,-2.285,-2.246,-2.2518,-2.2943,-2.3847,-2.4203,-2.4639,-2.5264,-2.5303,-2.5274,-2.5224,-2.5309,-2.536,-2.5307,-2.5415,-2.5488,-2.5488,-2.5484,-2.5493,-2.5493,-2.5493,-2.5493,-1.7852,-1.8581,-1.9284,-2.0338,-2.0718,-2.0991,-2.202,-2.1794,-2.1506,-2.2033,-2.2159,-2.2033,-2.1518,-2.192,-2.2159,-2.1794,-2.211,-2.2508,-2.271,0.0,-2.191,0.0,0.0,0.0,0.0,0.0,0.0,0.0,0.0,0.0,0.0,0.0,0.0,-1.9747,-1.9726,-1.9726,-1.9782,-1.9747,-2.0174,-2.0991,-2.1039,-2.1244,-2.1582,-2.1628,-2.1899,-2.231,-2.2321,-2.2338,-2.231,-2.2349,-2.2332,-2.2355,-2.2626,-2.2937,-2.3194,-2.3189,-2.3189,-2.3189,-2.3206,-2.2972,-2.2712,-2.2702,-2.2529,-2.231,-2.231,-2.231,-2.2327,-2.2327,-2.2541,-2.2929,-2.3544,-2.371,-2.3821,-2.4135,-2.419,-2.419,-2.419,-2.419,-2.419,-2.419,-2.419,-2.419,-2.419,-2.419,-2.419,-2.419,-2.419,-2.4171,-2.4116,-2.3474,-2.3345,-2.4219,-2.3769,-2.3891,-2.507,-2.5197,-2.5245,-2.5303,-2.5303,-2.5214,-2.5034,-2.5214,-2.5224,-2.5027,-2.528,-2.542,-2.5413,-2.5477,-2.5493,-2.5493,-2.5493,-2.5493,-1.7036,-1.8066,-1.9083,-1.9547,-2.0162,-2.0953,-2.2058,-2.2422,-2.2673,-2.3251,-2.3364,-2.3088,-2.2171,-2.2171,-2.2133,-2.1581,-2.138,-2.1314,-2.1412,-2.0604,0.0,0.0,0.0,0.0,0.0,0.0,0.0,0.0,0.0,0.0,0.0,0.0,0.0,-1.8688,-1.9043,-1.9207,-1.9207,-1.953,-1.9889,-2.0174,-2.0465,-2.0649,-2.0797,-2.107,-2.1477,-2.1853,-2.1853,-2.2032,-2.231,-2.231,-2.231,-2.231,-2.2423,-2.2538,-2.2651,-2.2651,-2.2651,-2.266,-2.284,-2.2704,-2.2473,-2.2652,-2.252,-2.231,-2.231,-2.231,-2.231,-2.231,-2.2361,-2.2562,-2.2962,-2.3218,-2.3418,-2.3548,-2.3566,-2.3581,-2.3578,-2.3729,-2.3895,-2.3895,-2.406,-2.419,-2.419,-2.419,-2.419,-2.419,-2.419,-2.419,-2.419,-2.3933,-2.3934,-2.4459,-2.4385,-2.4523,-2.5069,-2.5037,-2.4994,-2.4994,-2.5072,-2.5088,-2.501,-2.4981,-2.4949,-2.4883,-2.4434,-2.4517,-2.5147,-2.4677,-2.4759,-2.5387,-2.5387,-2.5387,-1.6541,-1.7525,-1.8696,-1.8869,-1.9426,-2.02,-2.1255,-2.1981,-2.2567,-2.3116,-2.2785,-2.2445,-2.2305,-2.1848,-2.1317,-2.0934,-2.0563,-2.02,-1.9799,0.0,0.0,0.0,0.0,0.0,0.0,0.0,0.0,0.0,0.0,0.0,0.0,0.0,0.0,0.0,-1.8688,-1.8968,-1.9169,-1.953,-1.969,-1.969,-1.9965,-2.0193,-2.0314,-2.0616,-2.1007,-2.1399,-2.1399,-2.1645,-2.2082,-2.2079,-2.2153,-2.231,-2.2136,-2.2068,-2.2082,-2.2254,-2.2209,-2.2118,-2.2456,-2.2436,-2.2321,-2.2527,-2.2436,-2.231,-2.231,-2.231,-2.231,-2.231,-2.231,-2.2344,-2.2536,-2.2806,-2.308,-2.315,-2.3197,-2.3212,-2.3192,-2.3373,-2.3547,-2.3533,-2.3798,-2.4042,-2.4042,-2.4135,-2.419,-2.419,-2.419,-2.419,-2.419,-2.419,-2.4266,-2.4478,-2.4685,-2.4828,-2.4943,-2.4855,-2.4804,-2.4804,-2.4823,-2.4845,-2.4845,-2.4814,-2.4775,-2.47,-2.4172,-2.425,-2.4943,-2.4366,-2.4465,-2.5138,-2.5192,-2.5203,-1.657,-1.7133,-1.8009,-1.849,-1.846,-1.8525,-1.9482,-2.0392,-2.1061,-2.1314,-2.0216,-1.9757,-2.1906,-2.0819,-1.9591,-1.9591,-1.9579,-1.9112,0.0,0.0,0.0,0.0,0.0,0.0,0.0,0.0,0.0,0.0,0.0,0.0,0.0,0.0,0.0,0.0,-1.8893,-1.9169,-1.969,-1.969,-1.969,-1.969,-1.969,-1.9909,-2.028,-2.028,-2.055,-2.0991,-2.0991,-2.123,-2.1606,-2.1599,-2.1877,-2.2248,-2.1782,-2.1578,-2.1653,-2.2111,-2.2003,-2.1658,-2.2135,-2.2282,-2.2282,-2.231,-2.231,-2.231,-2.231,-2.231,-2.231,-2.2282,-2.2282,-2.2282,-2.2282,-2.2491,-2.2779,-2.3119,-2.3179,-2.3203,-2.3203,-2.3193,-2.32,-2.3195,-2.3469,-2.371,-2.371,-2.3968,-2.419,-2.419,-2.4208,-2.4208,-2.419,-2.419,-2.4266,-2.4478,-2.4685,-2.4804,-2.4804,-2.479,-2.479,-2.479,-2.4607,-2.4495,-2.4495,-2.4685,-2.47,-2.4495,-2.47,-2.479,-2.4804,-2.4804,-2.4785,-2.4804,-2.4937,-2.501,-1.5702,-1.6443,-1.7345,-1.7739,-1.8328,-1.8877,-1.8837,-1.9794,-2.0864,-2.1327,-2.1037,-2.0692,-2.0496,-1.9803,-1.9125,-1.8726,-1.8418,-1.7963,0.0,0.0,0.0,0.0,0.0,0.0,0.0,0.0,0.0,0.0,0.0,0.0,0.0,0.0,0.0,0.0,-1.8145,-1.8574,-1.9132,-1.953,-1.969,-1.969,-1.969,-1.9747,-1.9874,-1.9874,-2.0104,-2.0516,-2.0516,-2.0764,-2.1182,-2.1163,-2.1444,-2.1771,-2.1338,-2.1175,-2.1166,-2.1327,-2.131,-2.1244,-2.1658,-2.1794,-2.1853,-2.218,-2.231,-2.231,-2.231,-2.231,-2.2237,-2.1899,-2.1794,-2.1794,-2.1794,-2.1873,-2.2028,-2.2451,-2.2569,-2.2549,-2.2549,-2.2716,-2.2858,-2.2832,-2.3112,-2.3348,-2.3348,-2.3427,-2.3566,-2.3816,-2.3837,-2.3937,-2.417,-2.4116,-2.4174,-2.4478,-2.4543,-2.4575,-2.4575,-2.4461,-2.4375,-2.4375,-2.4321,-2.4339,-2.4495,-2.4409,-2.4339,-2.4284,-2.3784,-2.3886,-2.4575,-2.403,-2.4162,-2.4937,-2.4986,-2.5077,-1.5742,-1.6417,-1.7224,-1.7774,-1.8141,-1.8375,-1.8342,-1.8979,-1.9768,-2.0445,-2.016,-1.9792,-1.9754,-1.8978,0.0,-1.7966,-1.7344,0.0,0.0,0.0,0.0,0.0,0.0,0.0,0.0,0.0,0.0,0.0,0.0,0.0,0.0,0.0,0.0,0.0,-1.7947,-1.8458,-1.9207,-1.953,-1.969,-1.969,-1.969,-1.969,-1.969,-1.969,-1.9839,-2.007,-2.0231,-2.045,-2.0707,-2.0717,-2.0974,-2.1309,-2.0892,-2.0728,-2.0754,-2.092,-2.0892,-2.0789,-2.1199,-2.1464,-2.1658,-2.1928,-2.2152,-2.231,-2.231,-2.231,-2.2209,-2.1718,-2.1582,-2.1552,-2.1399,-2.1368,-2.1538,-2.2152,-2.231,-2.231,-2.231,-2.244,-2.2553,-2.2553,-2.2806,-2.3005,-2.3005,-2.3116,-2.3259,-2.3459,-2.35,-2.3566,-2.3774,-2.3723,-2.3769,-2.3966,-2.3985,-2.4042,-2.4174,-2.4077,-2.4074,-2.419,-2.419,-2.4247,-2.4375,-2.4247,-2.419,-2.419,-2.3731,-2.3787,-2.4375,-2.3977,-2.4136,-2.4804,-2.4949,-2.5057,-1.63,-1.6707,-1.7241,-1.8196,-1.7906,-1.7539,-1.793,-1.8008,-1.8202,-1.9044,-1.8243,-1.7875,-1.9416,-1.8276,-1.7124,-1.728,-1.6444,0.0,0.0,0.0,0.0,0.0,0.0,0.0,0.0,0.0,0.0,0.0,0.0,0.0,0.0,0.0,0.0,-1.7987,-1.8066,-1.8574,-1.9603,-1.969,-1.969,0.0,-1.969,-1.969,-1.969,-1.969,-1.969,-1.9726,-2.0095,-2.0258,-2.0284,-2.0278,-2.0527,-2.0896,-2.0436,-2.0258,-2.0288,-2.0727,-2.063,-2.033,-2.0777,-2.1167,-2.1493,-2.1535,-2.1823,-2.218,-2.218,-2.218,-2.2077,-2.1628,-2.1491,-2.1399,-2.1023,-2.0926,-2.1166,-2.1974,-2.218,-2.218,-2.2237,-2.2237,-2.2254,-2.2282,-2.25,-2.2643,-2.2643,-2.2923,-2.3135,-2.3141,-2.3141,-2.3165,-2.3189,-2.3165,-2.3165,-2.3189,-2.3189,-2.3305,-2.3628,-2.3649,-2.3795,-2.4113,-2.4151,-2.417,-2.419,-2.419,-2.4209,-2.4228,-2.4228,-2.4247,-2.4266,-2.4445,-2.4526,-2.4559,-2.4858,-2.5003,-1.5054,-1.5454,-1.6079,-1.7318,-1.776,-1.79,-1.7988,-1.8008,-1.8076,-1.8269,-1.7799,-1.7504,-1.7875,-1.7079,-1.6357,-1.6347,0.0,0.0,0.0,0.0,0.0,0.0,0.0,0.0,0.0,0.0,0.0,0.0,0.0,0.0,0.0,0.0,0.0,-1.7463,-1.7867,-1.8419,-1.908,-1.9479,-1.969,0.0,-1.969,-1.969,-1.969,-1.969,-1.969,-1.969,-1.9771,-2.0021,-2.027,-1.9954,-2.0085,-2.0397,-1.998,-1.9837,-1.9837,-1.9933,-1.9918,-1.9903,-2.0304,-2.0512,-2.0646,-2.1022,-2.1193,-2.1291,-2.1291,-2.1291,-2.1181,-2.0699,-2.0567,-2.0567,-2.0483,-2.0449,-2.0583,-2.1166,-2.1291,-2.1354,-2.1688,-2.1764,-2.1869,-2.2237,-2.2349,-2.2388,-2.2388,-2.247,-2.2571,-2.2772,-2.2822,-2.2898,-2.3165,-2.2972,-2.2923,-2.3165,-2.3189,-2.3212,-2.33,-2.3323,-2.3437,-2.3795,-2.3816,-2.3917,-2.419,-2.419,-2.4266,-2.4426,-2.4445,-2.4512,-2.467,-2.4716,-2.4799,-2.4879,-2.4974,-2.5116,-1.4741,-1.54,-1.6035,-1.7353,-1.7852,-1.8008,-1.8008,-1.7852,-1.7764,-1.7969,-1.7676,-1.7314,-1.7109,-1.6523,-1.6056,0.0,0.0,0.0,0.0,0.0,0.0,0.0,0.0,0.0,0.0,0.0,0.0,0.0,0.0,0.0,0.0,-1.6522,-1.6752,-1.7271,-1.7827,-1.838,-1.8893,-1.9442,-1.969,-1.969,-1.969,-1.969,-1.969,-1.969,-1.969,-1.969,-1.969,-1.9818,-2.0,-1.9782,-1.9803,-2.0,-1.9782,-1.969,-1.969,-1.969,-1.969,-1.9741,-1.9933,-2.0125,-2.035,-2.059,-2.0828,-2.0991,-2.1006,-2.1006,-2.0894,-2.0449,-2.0314,-2.0246,-2.0054,-2.0,-2.007,-2.0311,-2.0698,-2.1055,-2.1275,-2.1306,-2.1385,-2.1615,-2.1691,-2.1691,-2.1691,-2.1691,-2.1777,-2.213,-2.2186,-2.2341,-2.2721,-2.2634,-2.2581,-2.2747,-2.2453,-2.2436,-2.292,-2.2643,-2.2716,-2.3414,-2.3459,-2.361,-2.3955,-2.3976,-2.4135,-2.4495,-2.4495,-2.4591,-2.4804,-2.485,-2.4924,-2.501,-2.5099,-2.5245,-1.4535,-1.5615,-1.6455,-1.7617,-1.79,-1.79,-1.79,-1.7578,-1.7363,-1.7715,-1.7451,-1.707,-1.6787,-1.6309,-1.5811,0.0,0.0,0.0,0.0,0.0,0.0,0.0,0.0,0.0,0.0,0.0,0.0,0.0,0.0,0.0,-1.6522,-1.6522,-1.671,-1.7146,-1.7787,-1.8302,-1.8765,-1.9406,-1.969,-1.969,-1.969,-1.9639,-1.9566,-1.9566,-1.9603,-1.969,-1.969,-1.969,-1.969,-1.969,-1.969,-1.969,-1.969,-1.969,-1.969,-1.969,-1.969,-1.969,-1.969,-1.9918,-2.0192,-2.0192,-2.0447,-2.0763,-2.0803,-2.0791,-2.0698,-2.033,-2.0193,-2.0124,-1.9782,-1.969,-1.969,-1.969,-2.0243,-2.0797,-2.0862,-2.0862,-2.0894,-2.0991,-2.0991,-2.0991,-2.0991,-2.0991,-2.1118,-2.143,-2.1568,-2.1718,-2.2135,-2.2237,-2.231,-2.231,-2.1765,-2.1715,-2.2552,-2.2079,-2.2119,-2.3049,-2.3116,-2.3265,-2.3606,-2.3678,-2.3926,-2.4389,-2.4493,-2.4654,-2.4828,-2.4993,-2.5046,-2.5065,-2.5224,-2.5339,-1.3104,-1.497,-1.6777,-1.7334,-1.7471,-1.7471,-1.7471,-1.7129,-1.6836,-1.6885,-1.6543,-1.6338,-1.667,-1.6055,-1.5361,0.0,0.0,0.0,0.0,0.0,0.0,0.0,0.0,0.0,0.0,0.0,0.0,0.0,0.0,0.0,-1.6522,-1.6522,-1.6522,-1.6595,-1.7585,-1.8145,-1.8224,-1.9207,-1.969,-1.969,-1.969,-1.9442,-1.9006,-1.9006,-1.9244,-1.969,-1.969,-1.969,-1.969,-1.969,-1.969,-1.969,-1.969,-1.969,-1.969,-1.969,-1.969,-1.969,-1.969,-1.9741,-1.9771,-1.9771,-1.9812,-1.9889,-1.9884,-1.9869,-1.9854,-1.9782,-1.9782,-1.9782,-1.9711,-1.969,-1.969,-1.969,-1.9782,-1.998,-2.0314,-2.0382,-2.0516,-2.0926,-2.0991,-2.0991,-2.0991,-2.0991,-2.1023,-2.1055,-2.1368,-2.1612,-2.1688,-2.2032,-2.231,-2.231,-2.2215,-2.2218,-2.2358,-2.2255,-2.2355,-2.2754,-2.2771,-2.2902,-2.3253,-2.3539,-2.382,-2.4062,-2.4519,-2.4842,-2.4974,-2.5182,-2.5264,-2.5264,-2.5303,-2.533,-1.241,-1.4101,-1.5576,-1.6449,-1.6843,-1.708,-1.7334,-1.6846,-1.6436,-1.668,-1.6182,-1.583,-1.6279,-1.5644,-1.5,0.0,0.0,0.0,0.0,0.0,0.0,0.0,0.0,0.0,0.0,0.0,0.0,0.0,0.0,-1.6522,-1.6522,-1.6522,-1.6522,-1.6522,-1.7229,-1.7787,-1.8106,-1.8855,-1.9244,-1.9244,-1.8968,-1.8688,-1.8458,-1.8458,-1.8574,-1.8817,-1.8817,-1.8817,-1.8817,-1.8817,-1.8817,-1.8803,-1.8777,-1.8804,-1.8811,-1.8811,-1.8986,-1.9227,-1.8905,-1.9212,-1.966,-1.9337,-1.9468,-1.969,-1.969,-1.969,-1.969,-1.969,-1.969,-1.969,-1.969,-1.969,-1.969,-1.969,-1.9479,-1.9317,-1.9471,-1.9737,-2.0035,-2.0243,-2.0277,-2.0277,-2.0277,-2.0277,-2.0364,-2.0571,-2.0744,-2.1054,-2.1549,-2.1764,-2.2006,-2.2265,-2.1928,-2.1849,-2.2275,-2.1938,-2.1911,-2.244,-2.2474,-2.2624,-2.2911,-2.3045,-2.3364,-2.3824,-2.4376,-2.4711,-2.4892,-2.5048,-2.5128,-2.5122,-2.5253,-2.533,-1.1672,-1.292,-1.4049,-1.5122,-1.577,-1.6254,-1.6687,-1.6321,-1.5996,-1.6328,-1.5869,-1.5508,-1.584,-1.5293,-1.4746,0.0,0.0,0.0,0.0,0.0,0.0,0.0,0.0,0.0,0.0,0.0,0.0,0.0,0.0,-1.6522,-1.6522,-1.6522,-1.6522,-1.6522,-1.7034,-1.7504,-1.7907,-1.8419,-1.8688,-1.8688,-1.8302,-1.8027,-1.7907,-1.7907,-1.7827,-1.7706,-1.7987,-1.8106,-1.8106,-1.8106,-1.8106,-1.8092,-1.8087,-1.8096,-1.809,-1.812,-1.8342,-1.8645,-1.823,-1.8629,-1.9226,-1.9002,-1.9169,-1.953,-1.9639,-1.969,-1.969,-1.969,-1.969,-1.969,-1.969,-1.969,-1.969,-1.953,-1.9281,-1.908,-1.893,-1.9207,-1.953,-1.969,-1.969,-1.969,-1.969,-1.969,-1.9788,-2.01,-2.0238,-2.0543,-2.1205,-2.1378,-2.1616,-2.2074,-2.1636,-2.1575,-2.2231,-2.1799,-2.1703,-2.2265,-2.231,-2.2378,-2.2587,-2.2666,-2.2989,-2.3557,-2.4056,-2.4445,-2.4723,-2.4881,-2.4979,-2.5,-2.5147,-2.5274,-1.047,-1.1375,-1.2386,-1.3142,-1.3925,-1.4616,-1.4967,-1.5223,-1.5449,-1.5478,-1.5449,-1.542,-1.5439,-1.5078,-1.4648,0.0,0.0,0.0,0.0,0.0,0.0,0.0,0.0,0.0,0.0,0.0,0.0,0.0,0.0,-1.6522,-1.6522,-1.6522,-1.6522,-1.6522,-1.7034,-1.7312,-1.7353,-1.7867,-1.8145,-1.8145,-1.8106,-1.7827,-1.7353,-1.7353,-1.7076,-1.6637,-1.7666,-1.8106,-1.8106,-1.8106,-1.8106,-1.812,-1.8111,-1.8097,-1.808,-1.8108,-1.8126,-1.8162,-1.812,-1.8138,-1.8286,-1.8734,-1.8936,-1.9043,-1.9566,-1.969,-1.969,-1.969,-1.969,-1.969,-1.969,-1.969,-1.9566,-1.9043,-1.9332,-1.953,-1.9006,-1.893,-1.9095,-1.9603,-1.969,-1.969,-1.969,-1.969,-1.9726,-1.9747,-2.0065,-2.0324,-2.035,-2.0774,-2.1193,-2.1585,-2.1591,-2.1782,-2.2248,-2.2248,-2.2248,-2.231,-2.231,-2.231,-2.2327,-2.257,-2.2875,-2.3212,-2.3563,-2.3989,-2.4516,-2.4709,-2.487,-2.4995,-2.5005,-2.5111,-0.9029,-1.006,-1.113,-1.1382,-1.2333,-1.3355,-1.3726,-1.4252,-1.4628,-1.4628,-1.505,-1.541,-1.541,-1.4844,-1.4316,0.0,0.0,0.0,0.0,0.0,0.0,0.0,0.0,0.0,0.0,0.0,0.0,0.0,0.0,0.0,-1.5389,-1.5688,-1.5908,-1.5908,-1.6484,-1.6951,-1.7312,-1.7504,-1.7585,-1.7585,-1.7229,-1.6951,-1.6795,-1.6795,-1.668,-1.6522,-1.6909,-1.7076,-1.7076,-1.7076,-1.7076,-1.7076,-1.7057,-1.7086,-1.7047,-1.7072,-1.7282,-1.7548,-1.7179,-1.7538,-1.8086,-1.7933,-1.8129,-1.8481,-1.8997,-1.9207,-1.9244,-1.9603,-1.969,-1.969,-1.969,-1.969,-1.9479,-1.8612,-1.8535,-1.8535,-1.7987,-1.8688,-1.9369,-1.9207,-1.9442,-1.969,-1.969,-1.969,-1.969,-1.969,-1.9822,-2.0014,-2.0273,-2.0446,-2.0819,-2.153,-2.1598,-2.1774,-2.2265,-2.231,-2.231,-2.231,-2.231,-2.231,-2.231,-2.2378,-2.2686,-2.3173,-2.3325,-2.3689,-2.4302,-2.4516,-2.4705,-2.4867,-2.4958,-2.5105,-0.8543,-0.8956,-0.9693,-1.0124,-1.0894,-1.17,-1.2405,-1.3118,-1.3661,-1.3661,-1.4182,-1.465,-1.4753,-1.4212,-1.3809,0.0,0.0,0.0,0.0,0.0,0.0,0.0,0.0,0.0,0.0,0.0,0.0,0.0,0.0,0.0,-1.4698,-1.5096,-1.541,-1.5576,-1.6008,-1.6497,-1.7034,-1.7034,-1.7034,-1.7034,-1.668,-1.638,-1.6194,-1.6194,-1.6107,-1.5932,-1.6107,-1.6324,-1.6522,-1.6522,-1.6522,-1.6522,-1.6522,-1.6522,-1.6522,-1.6522,-1.6739,-1.6982,-1.6615,-1.6969,-1.7548,-1.7353,-1.7544,-1.7923,-1.8447,-1.8765,-1.8968,-1.9332,-1.9566,-1.969,-1.969,-1.9566,-1.9281,-1.8765,-1.8496,-1.8263,-1.7907,-1.838,-1.8855,-1.865,-1.9043,-1.9442,-1.9442,-1.9566,-1.969,-1.969,-1.969,-1.9852,-2.0258,-2.0192,-2.0466,-2.1488,-2.1471,-2.1634,-2.2254,-2.231,-2.231,-2.231,-2.231,-2.231,-2.231,-2.231,-2.2515,-2.3012,-2.3146,-2.3468,-2.4024,-2.4283,-2.4512,-2.4701,-2.4867,-2.5067,0.0,0.0,0.0,-0.9277,-0.9469,-0.9716,-1.0916,-1.1905,-1.2522,-1.253,-1.2804,-1.3117,-1.3527,-1.3182,-1.3123,0.0,0.0,0.0,0.0,0.0,0.0,0.0,0.0,0.0,0.0,0.0,0.0,0.0,0.0,-1.4652,-1.4663,-1.4663,-1.4971,-1.5588,-1.5588,-1.5908,-1.6466,-1.6522,-1.6479,-1.6466,-1.6466,-1.6151,-1.5588,-1.5588,-1.5231,-1.4744,-1.532,-1.5908,-1.6436,-1.6479,-1.6522,-1.6522,-1.6522,-1.6522,-1.6522,-1.6522,-1.6522,-1.6522,-1.6522,-1.6522,-1.6582,-1.7124,-1.7274,-1.7394,-1.7907,-1.8458,-1.8893,-1.8893,-1.9281,-1.969,-1.9711,-1.9317,-1.908,-1.9566,-1.9281,-1.893,-1.8893,-1.8066,-1.7463,-1.8027,-1.8574,-1.893,-1.893,-1.9369,-1.969,-1.9726,-1.9726,-1.9852,-2.0273,-1.9969,-2.0231,-2.1472,-2.1231,-2.1354,-2.2225,-2.2282,-2.2282,-2.231,-2.231,-2.231,-2.231,-2.231,-2.244,-2.2683,-2.303,-2.3374,-2.3692,-2.4042,-2.4301,-2.4505,-2.4715,-2.4985,-0.9065,0.0,0.0,0.0,0.0,0.0,-0.8966,-0.9822,-1.0784,-1.1514,-1.2043,-1.2454,-1.2787,-1.2334,-1.1944,0.0,0.0,0.0,0.0,0.0,0.0,0.0,0.0,0.0,0.0,0.0,0.0,0.0,-1.405,-1.3873,-1.343,-1.3826,-1.4549,-1.5588,-1.5588,-1.5908,-1.6466,-1.6522,-1.6281,-1.5864,-1.5864,-1.5543,-1.4971,-1.4971,-1.488,-1.4698,-1.488,-1.5062,-1.5242,-1.6151,-1.6522,-1.6522,-1.6522,-1.6522,-1.6522,-1.6522,-1.6522,-1.6522,-1.6522,-1.6522,-1.6509,-1.6685,-1.6727,-1.6837,-1.7353,-1.7907,-1.8419,-1.8779,-1.9281,-1.9782,-2.0054,-2.0039,-1.9849,-1.9671,-1.9528,-1.9222,-1.8482,-1.8106,-1.8027,-1.8574,-1.9132,-1.9479,-1.9479,-1.9603,-1.9822,-2.0095,-2.0125,-2.0288,-2.0742,-2.0716,-2.0891,-2.1519,-2.1247,-2.1354,-2.2225,-2.2003,-2.1928,-2.2282,-2.231,-2.231,-2.231,-2.231,-2.244,-2.2683,-2.3035,-2.3375,-2.3692,-2.4042,-2.4377,-2.4717,-2.5018,-2.5207,-0.9974,-0.9467,-0.9152,-0.8315,0.0,0.0,-0.8087,-0.8432,-0.8851,0.0,-0.9884,-1.0265,-1.0652,-1.0343,-1.0141,-1.0317,0.0,0.0,0.0,0.0,0.0,0.0,0.0,0.0,0.0,0.0,0.0,-1.342,-1.342,-1.3286,-1.2929,-1.3238,-1.3988,-1.5176,-1.5207,-1.564,-1.6466,-1.6238,-1.5964,-1.5588,-1.532,-1.4915,-1.4329,-1.4329,-1.4201,-1.3978,-1.4201,-1.4329,-1.4376,-1.5377,-1.5744,-1.5744,-1.5744,-1.5915,-1.6102,-1.6102,-1.6293,-1.6522,-1.6522,-1.6522,-1.6522,-1.6522,-1.6522,-1.6552,-1.6879,-1.7504,-1.8185,-1.8496,-1.9132,-1.9747,-2.0,-2.007,-1.9984,-1.9702,-1.9651,-1.9471,-1.8878,-1.8765,-1.8727,-1.8574,-1.9006,-1.9369,-1.9369,-1.9677,-2.0029,-2.0273,-2.0472,-2.0748,-2.1198,-2.1101,-2.1234,-2.1835,-2.1516,-2.1554,-2.2237,-2.1869,-2.1718,-2.2003,-2.2003,-2.201,-2.2006,-2.2215,-2.2361,-2.2536,-2.296,-2.342,-2.3895,-2.4116,-2.4394,-2.4798,-2.5,-2.516,-1.1416,-1.0128,-0.9316,-0.995,-0.8467,0.0,-0.7845,-0.7504,-0.7059,0.0,-0.7286,-0.7518,-0.7925,-0.7973,-0.8032,-0.841,0.0,0.0,0.0,0.0,0.0,0.0,0.0,0.0,-1.2881,-1.2881,-1.2881,-1.2881,-1.2881,-1.2881,-1.2881,-1.2881,-1.3443,-1.4573,-1.4607,-1.5171,-1.6293,-1.5776,-1.5454,-1.5398,-1.488,-1.4283,-1.3684,-1.3684,-1.342,-1.2929,-1.3467,-1.3684,-1.3732,-1.4294,-1.4571,-1.4698,-1.4698,-1.5048,-1.55,-1.5574,-1.5942,-1.6398,-1.6466,-1.6522,-1.6522,-1.6522,-1.6522,-1.6522,-1.6522,-1.7229,-1.8039,-1.8143,-1.8887,-1.9645,-1.9741,-1.9756,-1.9756,-1.9782,-1.9782,-1.9747,-1.9726,-1.969,-1.9406,-1.8458,-1.865,-1.9006,-1.9029,-1.9745,-2.0324,-2.0431,-2.0782,-2.1204,-2.1625,-2.1368,-2.1446,-2.2215,-2.1899,-2.1794,-2.2254,-2.1823,-2.1582,-2.1658,-2.1615,-2.1635,-2.1687,-2.2085,-2.231,-2.231,-2.285,-2.3467,-2.413,-2.417,-2.4393,-2.4783,-2.479,-2.4975,-1.2861,-1.222,-1.1531,0.0,0.0,0.0,-0.7128,-0.6817,-0.6759,0.0,-0.6921,-0.6865,-0.7223,-0.7096,-0.6895,-0.7004,0.0,0.0,0.0,0.0,0.0,0.0,0.0,0.0,0.0,-1.2881,-1.2881,-1.2881,-1.2881,-1.2881,-1.2881,-1.2881,-1.3232,-1.3955,-1.3988,-1.4345,-1.5017,-1.4926,-1.4652,-1.4133,-1.405,-1.3647,-1.3055,-1.3055,-1.3017,-1.2929,-1.3017,-1.3055,-1.3055,-1.32,-1.3836,-1.4698,-1.4698,-1.4767,-1.4937,-1.5437,-1.5672,-1.5874,-1.6318,-1.6522,-1.6522,-1.6522,-1.6522,-1.6522,-1.6522,-1.6941,-1.7638,-1.8516,-1.8907,-1.9227,-1.9999,-2.0192,-2.0172,-2.0181,-2.02,-2.0089,-1.9782,-1.969,-1.9639,-1.9442,-1.9479,-1.966,-1.9969,-2.0178,-2.0522,-2.1226,-2.1424,-2.1653,-2.2096,-2.2102,-2.2119,-2.2265,-2.1899,-2.1794,-2.2254,-2.1584,-2.1415,-2.2106,-2.1829,-2.1751,-2.2141,-2.2248,-2.231,-2.231,-2.2623,-2.3135,-2.3799,-2.3955,-2.4228,-2.4561,-2.4723,-2.4892,-1.4082,-1.3301,0.0,-1.1098,0.0,0.0,0.0,-0.7368,-0.6972,-0.6387,-0.616,-0.6014,-0.584,-0.5669,-0.5555,-0.5555,0.0,0.0,0.0,0.0,0.0,0.0,0.0,0.0,0.0,-1.2169,-1.2501,-1.2881,-1.2881,-1.2881,-1.2881,-1.2881,-1.3182,-1.3788,-1.3805,-1.4079,-1.4698,-1.4376,-1.4097,-1.3815,-1.3505,-1.319,-1.2881,-1.2881,-1.2881,-1.2881,-1.2881,-1.2881,-1.2881,-1.2881,-1.3248,-1.38,-1.38,-1.3978,-1.4283,-1.4606,-1.4869,-1.5254,-1.582,-1.6037,-1.6125,-1.6392,-1.6522,-1.6522,-1.6522,-1.6883,-1.7464,-1.8275,-1.8489,-1.8607,-1.9066,-1.9199,-1.9288,-1.9532,-1.9396,-1.9291,-1.9651,-1.9483,-1.9388,-1.966,-1.969,-1.9747,-1.9965,-2.037,-2.0786,-2.1247,-2.1658,-2.2036,-2.2271,-2.231,-2.231,-2.231,-2.2106,-2.2032,-2.2282,-2.1678,-2.1481,-2.1906,-2.1724,-2.1698,-2.1924,-2.2178,-2.2443,-2.2721,-2.259,-2.2909,-2.3702,-2.3481,-2.3746,-2.4504,-2.4591,-2.4747,0.0,0.0,0.0,0.0,0.0,-1.0081,0.0,0.0,0.0,0.0,0.0,0.0,0.0,0.0,0.0,0.0,0.0,0.0,0.0,0.0,0.0,0.0,0.0,0.0,0.0,-1.1223,-1.1832,-1.2461,-1.2598,-1.2686,-1.2686,-1.2813,-1.3132,-1.3622,-1.3611,-1.3867,-1.434,-1.3873,-1.3542,-1.3426,-1.2939,-1.2666,-1.2666,-1.2559,-1.2569,-1.2666,-1.2666,-1.2666,-1.2715,-1.2822,-1.2881,-1.2881,-1.2881,-1.32,-1.3658,-1.3776,-1.4204,-1.479,-1.5402,-1.5674,-1.584,-1.6362,-1.6522,-1.6522,-1.6522,-1.6795,-1.7284,-1.7814,-1.7935,-1.7962,-1.8064,-1.8113,-1.8198,-1.8619,-1.8417,-1.8345,-1.9192,-1.9068,-1.8855,-1.9325,-1.9485,-1.96,-1.9767,-2.039,-2.0938,-2.1086,-2.1718,-2.2197,-2.2282,-2.231,-2.231,-2.231,-2.231,-2.231,-2.231,-2.1864,-2.1622,-2.1713,-2.1646,-2.1665,-2.1816,-2.2232,-2.2712,-2.3189,-2.273,-2.2873,-2.3709,-2.3146,-2.3365,-2.4251,-2.4321,-2.4425,0.0,0.0,0.0,0.0,-1.3032,0.0,0.0,0.0,-0.9054,-0.7653,0.0,0.0,0.0,0.0,0.0,0.0,0.0,0.0,0.0,0.0,0.0,0.0,0.0,0.0,0.0,0.0,-1.0965,-1.1023,-1.1576,-1.1923,-1.1923,-1.255,-1.292,-1.3007,-1.3007,-1.3055,-1.3113,-1.3017,-1.2647,-1.2012,-1.1972,-1.1913,-1.1913,-1.1316,-1.1375,-1.1913,-1.1913,-1.1913,-1.1972,-1.2618,-1.2881,-1.2881,-1.2881,-1.2929,-1.3065,-1.3621,-1.4183,-1.4797,-1.537,-1.5961,-1.6392,-1.6479,-1.6522,-1.6522,-1.6522,-1.6552,-1.6675,-1.7222,-1.7414,-1.7496,-1.7991,-1.8097,-1.8139,-1.8165,-1.8133,-1.814,-1.8249,-1.8235,-1.8221,-1.8249,-1.8654,-1.9275,-2.0097,-2.0314,-2.0662,-2.142,-2.1619,-2.1834,-2.2254,-2.231,-2.231,-2.231,-2.231,-2.231,-2.231,-2.1864,-2.1774,-2.2197,-2.1817,-2.1878,-2.2569,-2.2908,-2.3117,-2.3189,-2.3135,-2.3302,-2.371,-2.3601,-2.3491,-2.3334,-2.3661,-2.3735,0.0,0.0,0.0,0.0,0.0,0.0,-1.2638,0.0,-1.1081,0.0,0.0,0.0,0.0,0.0,0.0,0.0,-0.5058,0.0,0.0,0.0,0.0,0.0,0.0,0.0,0.0,0.0,0.0,0.0,0.0,-1.0937,-1.1749,-1.2101,-1.244,-1.2881,-1.2881,-1.2881,-1.2881,-1.2881,-1.255,-1.1814,-1.1814,-1.1814,-1.1814,-1.1516,-1.1516,-1.1814,-1.2236,-1.2187,-1.1864,-1.2608,-1.2881,-1.2881,-1.2881,-1.2881,-1.2929,-1.32,-1.346,-1.373,-1.4337,-1.4709,-1.5005,-1.5332,-1.5932,-1.638,-1.5656,-1.592,-1.6491,-1.6337,-1.6548,-1.6901,-1.7119,-1.7157,-1.7248,-1.756,-1.7387,-1.7338,-1.799,-1.7854,-1.7719,-1.8052,-1.8527,-1.9038,-1.9406,-1.9957,-2.0501,-2.115,-2.145,-2.1774,-2.2254,-2.231,-2.231,-2.231,-2.231,-2.231,-2.231,-2.2111,-2.2082,-2.2282,-2.2137,-2.2225,-2.2677,-2.2828,-2.3088,-2.3482,-2.3298,-2.3365,-2.3692,-2.3502,-2.3252,-2.2902,-2.3458,-2.3437,-1.6522,0.0,0.0,0.0,0.0,0.0,0.0,0.0,0.0,0.0,0.0,0.0,0.0,0.0,-0.7945,-0.6333,0.0,-0.5538,0.0,0.0,0.0,0.0,0.0,0.0,0.0,0.0,0.0,0.0,0.0,0.0,-1.0897,-1.1481,-1.2039,-1.2559,-1.2774,-1.2881,-1.2881,-1.2881,-1.255,-1.1814,-1.1616,-1.1516,-1.1516,-1.1166,-1.1166,-1.1566,-1.19,-1.1841,-1.1566,-1.2295,-1.2608,-1.2608,-1.2822,-1.2881,-1.2881,-1.2881,-1.3017,-1.319,-1.3637,-1.3909,-1.4097,-1.456,-1.5287,-1.5832,-1.4983,-1.5287,-1.5964,-1.5676,-1.5908,-1.6281,-1.6479,-1.6522,-1.6602,-1.6982,-1.6764,-1.6705,-1.7499,-1.738,-1.7192,-1.7572,-1.8106,-1.8472,-1.8475,-1.9405,-2.032,-2.092,-2.1263,-2.1645,-2.2225,-2.218,-2.2106,-2.2106,-2.2003,-2.1945,-2.1945,-2.1924,-2.1998,-2.2111,-2.2192,-2.2385,-2.2685,-2.2785,-2.3112,-2.3692,-2.3459,-2.35,-2.3837,-2.3588,-2.33,-2.2972,-2.3264,-2.2999,0.0,0.0,0.0,-1.6466,0.0,0.0,0.0,0.0,-1.4446,0.0,0.0,0.0,0.0,-1.0581,-0.9926,-0.7852,-0.6967,0.0,0.0,0.0,0.0,0.0,0.0,0.0,0.0,0.0,0.0,0.0,0.0,0.0,-0.8784,-1.0714,-1.1804,-1.1814,-1.251,-1.2881,-1.2881,-1.2881,-1.255,-1.1814,-1.1166,-1.0813,-1.0762,-0.9465,-0.9614,-1.0813,-1.0167,-1.0269,-1.0864,-1.1566,-1.1814,-1.1922,-1.2608,-1.2881,-1.2881,-1.2881,-1.3286,-1.3768,-1.3779,-1.419,-1.4652,-1.4698,-1.4744,-1.4744,-1.4698,-1.4744,-1.488,-1.5454,-1.5632,-1.5764,-1.6337,-1.6522,-1.6522,-1.6522,-1.6522,-1.6522,-1.6522,-1.6552,-1.6509,-1.6552,-1.6993,-1.7354,-1.7343,-1.8669,-2.0014,-2.0875,-2.1003,-2.1341,-2.2192,-2.1899,-2.1612,-2.1612,-2.1275,-2.1023,-2.1023,-2.1051,-2.1222,-2.1622,-2.1936,-2.2289,-2.2678,-2.3021,-2.3346,-2.3692,-2.3692,-2.3837,-2.417,-2.417,-2.3996,-2.3649,-2.2957,-2.2265,0.0,0.0,-1.6522,-1.6522,0.0,0.0,0.0,0.0,0.0,0.0,0.0,0.0,0.0,-1.2686,-1.2029,-0.9977,-0.9468,-0.8748,0.0,0.0,0.0,0.0,0.0,0.0,0.0,0.0,0.0,0.0,-0.6758,0.0,0.0,-0.9851,-1.0863,-1.1765,-1.203,-1.2403,-1.2881,-1.2403,-1.203,-1.1814,-1.1116,-1.1032,-1.141,-1.0527,-1.061,-1.1429,-1.0739,-1.057,-1.0853,-1.1531,-1.1801,-1.1862,-1.2628,-1.2881,-1.2881,-1.2881,-1.3017,-1.319,-1.319,-1.36,-1.4061,-1.3658,-1.4071,-1.4571,-1.3752,-1.4071,-1.4744,-1.4971,-1.5276,-1.5732,-1.6324,-1.6522,-1.6522,-1.6522,-1.6522,-1.6522,-1.6522,-1.6522,-1.6522,-1.6522,-1.6909,-1.731,-1.7287,-1.8341,-1.9395,-1.9972,-2.033,-2.0767,-2.1368,-2.1301,-2.1207,-2.1197,-2.1086,-2.0991,-2.0991,-2.1007,-2.107,-2.1198,-2.1315,-2.1649,-2.2283,-2.2424,-2.2737,-2.3369,-2.3373,-2.3302,-2.314,-2.3417,-2.3228,-2.2642,-2.2375,-2.2163,-1.6522,-1.6522,0.0,-1.6522,-1.6637,0.0,-1.6795,0.0,0.0,0.0,0.0,0.0,0.0,-1.4778,-1.4095,-1.232,-1.1683,-1.0548,0.0,-0.6109,0.0,0.0,0.0,-0.345,0.0,0.0,-0.4688,-0.5093,-0.6073,0.0,0.0,0.0,-1.0565,-1.1416,-1.1931,-1.2295,-1.2501,-1.2033,-1.1679,-1.1466,-1.1031,-1.1048,-1.141,-1.0981,-1.1166,-1.1731,-1.0839,-1.0578,-1.0845,-1.1277,-1.1451,-1.1518,-1.253,-1.2881,-1.2881,-1.2881,-1.2881,-1.2881,-1.2881,-1.3152,-1.342,-1.3017,-1.343,-1.3931,-1.3162,-1.343,-1.4165,-1.4571,-1.4971,-1.5466,-1.6293,-1.6522,-1.6522,-1.6522,-1.6522,-1.6522,-1.6522,-1.6522,-1.6522,-1.6522,-1.6795,-1.7002,-1.7012,-1.7757,-1.8616,-1.9464,-2.0,-2.0472,-2.0949,-2.0846,-2.0671,-2.0518,-2.0366,-2.0181,-1.9978,-1.9978,-2.0047,-2.0218,-2.0409,-2.0783,-2.1417,-2.1628,-2.1973,-2.2574,-2.2599,-2.2503,-2.2358,-2.2617,-2.2492,-2.2028,-2.1936,-2.191]},{"header":{"parameterUnit":"m.s-1","parameterCategory":1,"la1":30.6,"la2":29.2853,"lo1":-89.7004,"lo2":-87.6739,"dy":0.0162,"dx":0.0183,"nx":112,"ny":82,"refTime":"2025-08-20T00:00:00:Z","depth":0,"parameterNumber":3,"parameterNumberName":"V-component_of_WINDS"},"data":[0.0,0.0,0.0,0.0,0.0,0.0,0.0,0.0,0.0,0.0,0.0,0.0,0.0,0.0,0.0,0.0,0.0,0.0,0.0,0.0,0.0,0.0,0.0,0.0,0.0,0.0,0.0,0.0,0.0,0.0,0.0,0.0,0.0,0.0,0.0,0.0,0.0,0.0,0.0,0.0,0.0,0.0,0.0,0.0,0.0,0.0,0.0,0.0,0.0,0.0,0.0,0.0,0.0,0.0,0.0,0.0,0.0,0.0,0.0,0.0,0.0,0.0,0.0,0.0,0.0,0.0,0.0,0.0,0.0,0.0,0.0,0.0,0.0,0.0,0.0,0.0,0.0,0.0,0.0,0.0,0.0,0.0,0.0,0.0,0.0,0.0,0.0,0.0,0.0,0.0,-0.56,-0.5517,-0.6036,-0.675,-0.7568,-0.767,-0.7996,-0.8765,0.0,0.0,0.0,0.0,0.0,0.0,0.0,0.0,0.0,0.0,0.0,0.0,0.0,0.0,0.0,0.0,0.0,0.0,0.0,0.0,0.0,0.0,0.0,0.0,0.0,0.0,0.0,0.0,0.0,0.0,0.0,0.0,0.0,0.0,0.0,0.0,0.0,0.0,0.0,0.0,0.0,0.0,0.0,0.0,0.0,0.0,0.0,0.0,0.0,0.0,0.0,0.0,0.0,0.0,0.0,0.0,0.0,0.0,0.0,0.0,0.0,0.0,0.0,0.0,0.0,0.0,0.0,0.0,0.0,0.0,0.0,0.0,0.0,0.0,0.0,0.0,0.0,0.0,0.0,0.0,0.0,0.0,0.0,0.0,0.0,0.0,0.0,0.0,0.0,0.0,0.0,0.0,0.0,0.0,0.0,0.0,0.0,0.0,0.0,0.0,0.0,0.0,0.0,0.0,-0.4586,-0.5396,-0.5597,-0.6154,-0.7339,-0.7461,-0.7836,-0.8725,0.0,0.0,0.0,0.0,0.0,0.0,0.0,0.0,0.0,0.0,0.0,0.0,0.0,0.0,0.0,0.0,0.0,0.0,0.0,0.0,0.0,0.0,0.0,0.0,0.0,0.0,0.0,0.0,0.0,0.0,0.0,0.0,0.0,0.0,0.0,0.0,0.0,0.0,0.0,0.0,0.0,0.0,0.0,0.0,0.0,0.0,0.0,0.0,0.0,0.0,0.0,0.0,0.0,0.0,0.0,0.0,0.0,0.0,0.0,0.0,0.0,0.0,0.0,0.0,0.0,0.0,0.0,0.0,0.0,0.0,0.0,0.0,0.0,0.0,0.0,0.0,0.0,0.0,0.0,0.0,0.0,0.0,0.0,0.0,0.0,0.0,0.0,0.0,0.0,0.0,0.0,0.0,0.0,0.0,0.0,0.0,0.0,0.0,0.0,0.0,0.0,0.0,0.0,-0.4692,-0.4424,-0.4922,-0.4948,-0.5218,-0.5756,-0.6288,-0.7235,-0.8684,-0.8602,0.0,0.0,0.0,0.0,0.0,0.0,0.0,0.0,0.0,0.0,0.0,0.0,0.0,0.0,0.0,0.0,0.0,0.0,0.0,0.0,0.0,0.0,0.0,0.0,0.0,0.0,0.0,0.0,0.0,0.0,0.0,0.0,0.0,0.0,0.0,0.0,0.0,0.0,0.0,0.0,0.0,0.0,0.0,0.0,0.0,0.0,0.0,0.0,0.0,0.0,0.0,0.0,0.0,0.0,0.0,0.0,0.0,0.0,0.0,0.0,0.0,0.0,0.0,0.0,0.0,0.0,0.0,0.0,0.0,0.0,0.0,0.0,0.0,0.0,0.0,0.0,0.0,0.0,0.0,0.0,0.0,0.0,0.0,0.0,0.0,0.0,0.0,0.0,0.0,0.0,0.0,0.0,0.0,0.0,0.0,0.0,0.0,0.0,0.0,0.0,0.0,0.0,-0.372,-0.4509,-0.4508,-0.4519,-0.4508,-0.4481,-0.5179,-0.6509,-0.8644,-0.8785,0.0,0.0,0.0,0.0,0.0,0.0,0.0,0.0,0.0,0.0,0.0,0.0,0.0,0.0,0.0,0.0,0.0,0.0,0.0,0.0,0.0,0.0,0.0,0.0,0.0,0.0,0.0,0.0,0.0,0.0,0.0,0.0,0.0,0.0,0.0,0.0,0.0,0.0,0.0,0.0,0.0,0.0,0.0,0.0,0.0,0.0,0.0,0.0,0.0,0.0,0.0,0.0,0.0,0.0,0.0,0.0,0.0,0.0,0.0,0.0,0.0,0.0,0.0,0.0,0.0,0.0,0.0,0.0,0.0,0.0,0.0,0.0,0.0,0.0,0.0,0.0,0.0,0.0,0.0,0.0,0.0,0.0,0.0,0.0,0.0,0.0,0.0,0.0,0.0,0.0,0.0,0.0,0.0,0.0,0.0,0.0,0.0,0.0,0.0,0.0,0.0,0.0,-0.3319,-0.4519,-0.4519,-0.4519,-0.4515,-0.4515,-0.4573,-0.5783,-0.8594,-0.8806,0.0,0.0,0.0,0.0,0.0,0.0,0.0,0.0,0.0,0.0,0.0,0.0,0.0,0.0,0.0,0.0,0.0,0.0,0.0,0.0,0.0,0.0,0.0,0.0,0.0,0.0,0.0,0.0,0.0,0.0,0.0,0.0,0.0,0.0,0.0,0.0,0.0,0.0,0.0,0.0,0.0,0.0,0.0,0.0,0.0,0.0,0.0,0.0,0.0,0.0,0.0,0.0,0.0,0.0,0.0,0.0,0.0,0.0,0.0,0.0,0.0,0.0,0.0,0.0,0.0,0.0,0.0,0.0,0.0,0.0,0.0,0.0,0.0,0.0,0.0,0.0,0.0,0.0,0.0,0.0,0.0,0.0,0.0,0.0,0.0,0.0,0.0,0.0,0.0,0.0,0.0,0.0,0.0,0.0,0.0,0.0,0.0,0.0,0.0,0.0,0.0,0.0,-0.289,-0.449,-0.4508,-0.4519,-0.4519,-0.4519,-0.5027,-0.6357,-0.8661,0.0,0.0,0.0,0.0,0.0,0.0,0.0,0.0,0.0,0.0,0.0,0.0,0.0,0.0,0.0,0.0,0.0,0.0,0.0,0.0,0.0,0.0,0.0,0.0,0.0,0.0,0.0,0.0,0.0,0.0,0.0,0.0,0.0,0.0,0.0,0.0,0.0,0.0,0.0,0.0,0.0,0.0,0.0,0.0,0.0,0.0,0.0,0.0,0.0,0.0,0.0,0.0,0.0,0.0,0.0,0.0,0.0,0.0,0.0,0.0,0.0,0.0,0.0,0.0,0.0,0.0,0.0,0.0,0.0,0.0,0.0,0.0,0.0,0.0,0.0,0.0,0.0,0.0,0.0,0.0,0.0,0.0,0.0,0.0,0.0,0.0,0.0,0.0,0.0,0.0,0.0,0.0,0.0,0.0,0.0,0.0,0.0,0.0,0.0,0.0,0.0,0.0,-0.055,-0.2833,-0.4483,-0.4508,-0.4519,-0.4519,-0.4519,-0.5483,-0.673,-0.8162,0.0,0.0,0.0,0.0,0.0,0.0,0.0,0.0,0.0,0.0,0.0,0.0,0.0,0.0,0.0,0.0,0.0,0.0,0.0,0.0,0.0,0.0,0.0,0.0,0.0,0.0,0.0,0.0,0.0,0.0,0.0,0.0,0.0,0.0,0.0,0.0,0.0,0.0,0.0,0.0,0.0,0.0,0.0,0.0,0.0,0.0,0.0,0.0,0.0,0.0,0.0,0.0,0.0,0.0,0.0,0.0,0.0,0.0,0.0,0.0,0.0,0.0,0.0,0.0,0.0,0.0,0.0,0.0,0.0,0.0,0.0,0.0,0.0,0.0,0.0,0.0,0.0,0.0,0.0,0.0,0.0,0.0,0.0,0.0,0.0,0.0,0.0,0.0,0.0,0.0,0.0,0.0,0.0,0.0,0.0,0.0,0.0,0.0,0.0,0.0,0.0,0.0,-0.1458,-0.3222,-0.4487,-0.4519,-0.4519,-0.4519,-0.4519,-0.5769,-0.6716,0.0,0.0,0.0,0.0,0.0,0.0,0.0,0.0,0.0,0.0,0.0,0.0,0.0,0.0,0.0,0.0,0.0,0.0,0.0,0.0,0.0,0.0,0.0,0.0,0.0,0.0,0.0,0.0,0.0,0.0,0.0,0.0,0.0,0.0,0.0,0.0,0.0,0.0,0.0,0.0,0.0,0.0,0.0,0.0,0.0,0.0,0.0,0.0,0.0,0.0,0.0,0.0,0.0,0.0,0.0,0.0,0.0,0.0,0.0,0.0,0.0,0.0,0.0,0.0,0.0,0.0,0.0,0.0,0.0,0.0,0.0,0.0,0.0,0.0,0.0,0.0,0.0,0.0,0.0,0.0,0.0,0.0,0.0,0.0,0.0,0.0,0.0,0.0,0.0,0.0,0.0,0.0,0.0,0.0,0.0,0.0,0.0,0.0,0.0,0.0,0.0,0.0,0.0,-0.1558,-0.2657,-0.3738,-0.4408,-0.4519,-0.4508,-0.4484,-0.5806,-0.6881,-0.7611,0.0,0.0,0.0,0.0,0.0,0.0,0.0,0.0,0.0,0.0,0.0,0.0,0.0,0.0,0.0,0.0,0.0,0.0,0.0,0.0,0.0,0.0,0.0,0.0,0.0,0.0,0.0,0.0,0.0,0.0,0.0,0.0,0.0,0.0,0.0,0.0,0.0,0.0,0.0,0.0,0.0,0.0,0.0,0.0,0.0,0.0,0.0,0.0,0.0,0.0,0.0,0.0,0.0,0.0,0.0,0.0,0.0,0.0,0.0,0.0,0.0,0.0,0.0,0.0,0.0,0.0,0.0,0.0,0.0,0.0,0.0,0.0,0.0,0.0,0.0,0.0,0.0,0.0,0.0,0.0,0.0,0.0,0.0,0.0,0.0,0.0,0.0,0.0,0.0,0.0,0.0,0.0,0.0,0.0,0.0,0.0,0.0,0.0,0.0,0.0,0.0,0.0,-0.2263,-0.2726,-0.3453,-0.4405,-0.4519,-0.4732,-0.5316,-0.6317,-0.7222,-0.7987,0.0,0.0,0.0,0.0,0.0,0.0,0.0,0.0,0.0,0.0,0.0,0.0,0.0,0.0,0.0,0.0,0.0,0.0,0.0,0.0,0.0,0.0,0.0,0.0,0.0,0.0,0.0,0.0,0.0,0.0,0.0,0.0,0.0,0.0,0.0,0.0,0.0,0.0,0.0,0.0,0.0,0.0,0.0,0.0,0.0,0.0,0.0,0.0,0.0,0.0,0.0,0.0,0.0,0.0,0.0,0.0,0.0,0.0,0.0,0.0,0.0,0.0,0.0,0.0,0.0,0.0,0.0,0.0,0.0,0.0,0.0,0.0,0.0,0.0,0.0,0.0,0.0,0.0,0.0,0.0,0.0,0.0,0.0,0.0,0.0,0.0,0.0,0.0,0.0,0.0,0.0,0.0,0.0,0.0,0.0,0.0,0.0,0.0,0.0,0.0,0.0,0.0,-0.3229,-0.339,-0.368,-0.4408,-0.4519,-0.5018,-0.6296,-0.696,-0.7564,-0.8044,0.0,0.0,0.0,0.0,0.0,0.0,0.0,0.0,0.0,0.0,0.0,0.0,0.0,0.0,0.0,0.0,0.0,0.0,0.0,0.0,0.0,0.0,0.0,0.0,0.0,0.0,0.0,0.0,0.0,0.0,0.0,0.0,0.0,0.0,0.0,0.0,0.0,0.0,0.0,0.0,0.0,0.0,0.0,0.0,0.0,0.0,0.0,0.0,0.0,0.0,0.0,0.0,0.0,0.0,0.0,0.0,0.0,0.0,0.0,0.0,-0.0371,0.0,0.0,0.0,0.0,0.0,0.0,0.0,0.0,0.0,0.0,0.0,0.0,0.0,0.0,0.0,0.0,0.0,0.0,0.0,0.0,0.0,0.0,0.0,0.0,0.0,0.0,0.0,0.0,0.0,0.0,0.0,0.0,0.0,0.0,0.0,0.0,0.0,0.0,0.0,0.0,0.0,-0.3348,-0.3828,-0.4294,-0.4463,-0.4519,-0.4618,-0.4922,-0.6086,-0.6871,-0.7087,-0.7847,0.0,0.0,0.0,0.0,0.0,0.0,0.0,0.0,0.0,0.0,0.0,0.0,0.0,0.0,0.0,0.0,0.0,0.0,0.0,0.0,0.0,0.0,0.0,0.0,0.0,0.0,0.0,0.0,0.0,0.0,0.0,0.0,0.0,0.0,0.0,0.0,0.0,0.0,0.0,0.0,0.0,0.0,0.0,0.0,0.0,0.0,0.0,0.0,0.0,0.0,0.0,0.0,0.0,0.0,0.0,0.0,0.0,0.0,0.0,0.0,0.0,0.0,0.0,0.0,0.0,0.0,0.0,0.0,0.0,0.0,0.0,0.0,0.0,0.0,0.0,0.0,0.0,0.0,0.0,0.0,0.0,0.0,0.0,0.0,0.0,0.0,0.0,0.0,0.0,0.0,0.0,0.0,0.0,0.0,0.0,0.0,0.0,0.0,0.0,0.0,0.0,-0.3886,-0.4236,-0.4519,-0.4519,-0.4519,-0.4618,-0.4976,-0.5642,-0.6416,-0.7199,-0.7611,0.0,0.0,0.0,0.0,0.0,0.0,0.0,0.0,0.0,0.0,0.0,0.0,0.0,0.0,0.0,0.0,0.0,0.0,0.0,0.0,0.0,0.0,0.0,0.0,0.0,0.0,0.0,0.0,0.0,0.0,0.0,0.0,0.0,0.0,0.0,0.0,0.0,0.0,0.0,0.0,0.0,0.0,0.0,0.0,0.0,0.0,0.0,0.0,0.0,0.0,0.0,0.0,0.0,-0.1133,-0.0657,0.0,0.0,0.0,0.0,0.0,0.0,0.0,0.0,0.0,0.0,0.0,0.0,0.0,0.0,0.0,0.0,0.0,0.0,0.0,0.0,0.0,0.0,0.0,0.0,0.0,0.0,0.0,0.0,0.0,0.0,0.0,0.0,0.0531,-0.0332,0.0,0.0,0.0,0.0,0.0,0.0,0.0,0.0,0.0,0.0,0.0,0.0,-0.4501,-0.4519,-0.4519,-0.4519,-0.4519,-0.4732,-0.5273,-0.5433,-0.6086,-0.7396,-0.7419,-0.7719,0.0,0.0,0.0,0.0,0.0,0.0,0.0,0.0,0.0,0.0,0.0,0.0,0.0,0.0,0.0,0.0,0.0,0.0,0.0,0.0,0.0,0.0,0.0,0.0,0.0,0.0,0.0,0.0,0.0,0.0,0.0,0.0,0.4088,0.3168,0.0,0.0,0.0,0.0,0.0,0.0,0.0,0.0,0.0,0.0,0.0,0.0,0.0,-0.0414,-0.1408,-0.0606,-0.0601,-0.1547,-0.0613,-0.0089,0.0,0.0,0.0,0.0,0.0,0.0,0.0,0.0,0.0,0.0,0.0,0.0,0.0,0.0,0.0,0.0,0.0,0.0,0.0,0.0,0.0,0.0,0.0,0.0,0.0,0.0,0.0,0.0,0.0,0.0,0.1321,0.0417,0.0068,-0.0336,0.0,-0.2168,-0.2946,-0.4585,-0.4765,0.0,0.0,0.0,0.0,0.0,0.0,0.0,-0.4515,-0.4519,-0.4519,-0.4519,-0.4519,-0.4519,-0.4625,-0.5164,-0.5869,-0.6696,-0.7315,-0.7994,-0.8698,-0.847,0.0,0.0,0.0,0.0,0.0,0.0,0.0,0.0,0.0,0.0,0.0,0.0,0.0,0.0,0.0,0.0,0.0,0.0,0.0,0.0,0.0,0.0,0.0,0.0,0.0,0.0,0.0,0.0,0.0,0.6815,0.536,0.3808,0.2533,0.1462,0.0,0.0,0.0,0.0,0.0,0.0,0.0,0.0,0.0,0.0,0.0,-0.0252,-0.0706,-0.0266,-0.0266,-0.0708,-0.0268,0.0,0.0,0.0,0.0,0.0,0.0,0.0,0.0,0.0,0.0,0.0,0.0,0.0,0.0,0.0,0.0,-0.1734,-0.2666,-0.3283,0.0,0.0,0.0,0.0,0.0,0.0,0.0,0.0,0.0,0.0,0.0,0.0,0.0,0.0138,0.0,-0.0137,-0.0673,-0.092,-0.1725,0.0,-0.4689,-0.5015,-0.4709,0.0,0.0,0.0,0.0,-0.4519,-0.4519,-0.4519,-0.4519,-0.4519,-0.4519,-0.4519,-0.4519,-0.4787,-0.5222,-0.5928,-0.6691,-0.7396,-0.8156,-0.8469,-0.8786,0.0,0.0,0.0,0.0,0.0,0.0,0.0,0.0,0.0,0.0,0.0,0.0,0.0,0.0,0.0,0.0,0.0,0.0,0.0,0.0,0.0,0.0,0.0,0.0,0.0,0.0,0.0,0.0,0.7329,0.6336,0.4167,0.3664,0.2967,0.0,0.0,0.0,0.0,0.0,0.0,0.0079,0.0,0.0,0.0,0.0,0.0,0.0,0.0,0.0,0.0,0.0,0.0,0.0,0.0,0.0,0.0,0.0,0.0,0.0,0.0,0.0,0.0,0.0,0.0,0.0,0.0,-0.0515,-0.1326,-0.2342,-0.2895,-0.3188,-0.3723,0.0,-0.3858,-0.3356,0.0,0.0,0.0,0.0,0.0619,0.0606,0.0341,0.0,0.0,0.0,0.0,0.0,0.0,-0.0654,0.0,-0.4396,-0.5097,-0.4688,0.0,0.0,0.0,0.0,-0.4519,-0.4519,-0.4519,-0.4519,-0.4519,-0.4519,-0.4519,-0.4519,-0.4519,-0.4787,-0.5433,-0.6036,-0.6745,-0.767,-0.8209,-0.8691,-0.9077,0.0,0.0,0.0,0.0,0.0,0.0,0.0,0.0,0.0,0.0,0.0,0.0,0.0,0.0,0.0,0.0,0.0,0.0,0.0,0.0,0.0,0.0,0.0,0.0,0.0,0.0,0.0,0.0,0.0,0.4188,0.4225,0.0,0.0,0.0,0.0,0.1556,0.0638,0.0081,0.0,0.0,0.0,0.0,0.0,0.0,0.0,0.0,0.0,0.0,0.0,0.0,0.0,0.0,0.0,0.0,0.0,0.0,0.0,0.0,0.0,0.0,0.0,0.0,0.0,0.0,0.0,-0.0227,-0.1318,-0.2265,-0.3117,-0.3113,-0.3144,-0.3312,-0.4273,-0.3768,0.0,0.0,-0.1984,-0.1141,-0.1139,-0.0605,0.0,0.0,0.0,0.0,0.0,0.0,-0.0516,0.0,-0.3887,-0.4823,-0.4845,0.0,-0.4519,-0.4519,-0.4519,-0.4519,-0.4519,-0.4519,-0.4519,-0.4519,-0.4519,-0.4519,-0.4519,-0.4519,-0.4787,-0.5433,-0.5538,-0.6195,-0.7664,-0.7723,-0.8096,-0.8784,-0.8561,0.0,0.0,0.0,0.0,0.0,0.0,0.0,0.0,0.0,0.0,0.0,0.0,0.0,0.0,0.0,0.0,0.0,0.0,0.0,0.0,0.0,0.0,0.0,0.0,0.0,0.0,0.0,0.0,0.5711,0.5244,0.0,0.4243,0.3951,0.3612,0.2962,0.3117,0.2293,0.0089,0.0711,0.0795,0.0,0.0,0.0,0.0,0.0,0.0,0.0,0.0,0.0,0.0,0.0,0.0,0.0,0.0,0.0,0.0,0.0,0.0,0.0,0.0,0.0,0.0,0.0,0.0,-0.0154,-0.1228,-0.1836,-0.2134,-0.2101,-0.2521,-0.3174,-0.4348,-0.4163,-0.3589,-0.3958,-0.3458,-0.2603,-0.1729,-0.1157,-0.0669,-0.0132,0.0,0.0,0.0,0.0,-0.0187,-0.0854,-0.1862,-0.3069,-0.4412,-0.4563,-0.4519,-0.4519,-0.4519,-0.4519,-0.4519,-0.4519,-0.4519,-0.4519,-0.4525,-0.4525,-0.4519,-0.4525,-0.4581,-0.4842,-0.4871,-0.5354,-0.6504,-0.7278,-0.8049,-0.8804,-0.8704,-0.8606,0.0,0.0,0.0,0.0,0.0,0.0,0.0,0.0,0.0,0.0,0.0,0.0,0.0,0.0,0.0,0.0,0.0,0.0,0.0,0.0,0.0,0.0,0.0,0.0,0.0,0.0,0.8309,0.649,0.6028,0.5773,0.5477,0.5245,0.4814,0.4138,0.4631,0.4002,0.1781,0.1883,0.1779,0.1215,0.0423,0.0,0.0,0.0,0.0,0.0,0.0,0.0,0.0,0.0,0.0,0.0,0.0,0.0,0.0,0.0,0.0,0.0,0.0,0.0,0.0,0.0,0.0,-0.0077,-0.0828,-0.1045,-0.1116,-0.1463,-0.2179,-0.313,-0.4291,-0.458,-0.4549,-0.4921,-0.4329,-0.3523,-0.2977,-0.2173,-0.1331,-0.0714,-0.0323,0.0,0.0,0.0,0.0,0.0,-0.0932,-0.2087,-0.3258,-0.3852,-0.4125,-0.4125,-0.407,-0.4184,-0.446,-0.4519,-0.4519,-0.4519,-0.4525,-0.4525,-0.4519,-0.4525,-0.4525,-0.4519,-0.4494,-0.4976,-0.6072,-0.6902,-0.7777,-0.8758,-0.8711,-0.8564,-0.842,0.0,0.0,0.0,0.0,0.0,0.0,0.0,0.0,0.0,0.0,0.0,0.0,0.0,0.0,0.0,0.0,0.0,0.0,0.0,0.0,0.0,0.0,0.0,0.8764,0.8866,0.8389,0.657,0.6522,0.6644,0.6495,0.5697,0.5147,0.5173,0.4935,0.4809,0.4814,0.3315,0.2748,0.3445,0.1217,0.0,0.0,0.0,0.0,0.0,0.0,0.0,0.0,0.0,0.0,0.0,0.0,0.0,0.0,0.0,0.0,0.0,0.0,0.0,0.0,0.0,0.0,0.0,0.0,0.0,-0.0145,-0.1234,-0.2174,-0.3114,-0.4126,-0.4983,-0.5593,-0.5665,-0.4727,-0.3951,-0.5043,-0.3618,-0.1859,-0.1812,-0.09,0.0,0.0,0.0,0.0,0.0,-0.1205,-0.2028,-0.1574,-0.2512,-0.3345,-0.3231,-0.3231,0.0,-0.4349,-0.446,-0.4519,-0.4519,-0.4519,-0.4519,-0.4519,-0.4519,-0.4519,-0.4519,-0.4519,-0.5117,-0.6475,-0.6588,-0.7289,-0.8752,-0.853,-0.8383,-0.8377,0.0,0.0,0.0,0.0,0.0,0.0,0.0,0.0,0.0,0.0,0.0,0.0,0.0,0.0,0.0,0.0,0.0,0.0,0.0,0.0,0.0,1.1363,1.1314,1.001,0.9616,0.8902,0.7663,0.7064,0.6685,0.6644,0.6423,0.6293,0.6251,0.6173,0.5765,0.4949,0.4442,0.3212,0.1073,0.0325,0.0,0.0,0.0,0.0,0.0,0.0,0.0,0.0,0.0,0.0,0.0,0.0,0.0,0.0,0.0,0.0,0.0,0.0,0.0,0.0,0.0,0.0,0.0,0.0,0.0,-0.0069,-0.0344,-0.1511,-0.2819,-0.3225,-0.4351,-0.5467,-0.5715,-0.5354,-0.4831,-0.4626,-0.3944,-0.3241,-0.2589,-0.1185,0.0,0.0,0.0,0.0,0.0,-0.0902,-0.1752,-0.1962,-0.2009,-0.2004,-0.2004,-0.2284,0.0,-0.2788,-0.3796,-0.4473,-0.4473,-0.4473,-0.4525,-0.4519,-0.4525,-0.4525,-0.4519,-0.4519,-0.467,-0.5074,-0.6081,-0.702,-0.799,-0.8462,-0.832,0.0,0.0,0.0,0.0,0.0,0.0,0.0,0.0,0.0,0.0,0.0,0.0,0.0,0.0,0.0,0.0,0.0,0.0,0.0,0.0,0.0,0.0,1.175,1.1827,1.1307,1.0519,0.9658,0.8742,0.7825,0.7275,0.7345,0.6943,0.6702,0.6702,0.6702,0.6363,0.5696,0.5194,0.3981,0.1946,0.1055,0.0482,0.0,0.0,0.0,0.0,0.0,0.0,0.0,0.0,0.0,0.0,0.0,0.0,0.0,0.0,0.0,0.0,0.0,0.0,0.0,0.0,0.0,0.0,0.0,0.0,0.0,0.0,-0.1208,-0.2684,-0.2799,-0.4046,-0.544,-0.5593,-0.5487,-0.5271,-0.4733,-0.4527,-0.4347,-0.3928,-0.2232,-0.0595,-0.0113,0.0,0.0,0.0,0.0,0.0,-0.1231,-0.1285,-0.1227,-0.0892,-0.1395,-0.1842,-0.2174,-0.2959,-0.3519,-0.3519,-0.3747,-0.4024,-0.447,-0.4477,0.0,0.0,0.0,-0.4673,-0.5089,-0.6258,0.0,0.0,0.0,0.0,0.0,0.0,0.0,0.0,-1.0657,-1.1415,0.0,0.0,0.0,0.0,0.0,0.0,0.0,0.0,0.0,0.0,0.0,0.0,0.0,0.0,0.0,0.0,1.2118,1.2305,1.2305,1.1539,1.064,0.9782,0.864,0.8003,0.8171,0.7219,0.6651,0.6651,0.6651,0.6651,0.6651,0.0,0.0,0.0,0.0,0.1201,0.0,0.0,0.0,0.0,0.0,0.0,0.0,0.0,0.0,0.0,0.0,0.0,0.0,0.0,0.0,0.0,0.0,0.0,0.0,0.0,0.0,0.0,0.0,0.0,0.0,0.0,-0.1142,-0.2544,-0.2544,-0.3747,-0.5087,-0.5226,-0.5226,-0.519,-0.5105,-0.5068,-0.506,-0.5266,-0.3523,-0.1451,-0.045,-0.0112,0.0,0.0,0.0112,0.0168,0.0224,-0.0448,-0.0727,-0.0112,-0.0559,-0.1229,-0.1842,-0.2009,-0.2063,-0.2063,0.0,0.0,-0.4252,-0.4421,-0.4473,-0.4519,-0.4519,-0.4901,-0.5832,-0.6727,-0.7589,-0.8425,-0.7235,-0.7267,-0.8564,-0.8718,-0.9688,-1.1361,-1.1411,-1.1988,0.0,0.0,0.0,0.0,0.0,0.0,0.0,0.0,0.0,0.0,0.0,0.0,0.0,0.0,0.0,1.207,1.2118,1.2305,1.2305,1.215,1.1639,1.0703,0.8971,0.7846,0.7884,0.6965,0.6346,0.6346,0.6346,0.6346,0.6346,0.6185,0.0,0.3461,0.299,0.1886,0.0,0.0,0.0,0.0,0.0,0.0,0.0,0.0,0.0,0.0,0.0,0.0,0.0,0.0,0.0,0.0,0.0,0.0,0.0,0.0,0.0,0.0,0.0,0.0,0.0,0.0,-0.0739,-0.1541,-0.1541,-0.2338,0.0,-0.4079,-0.4278,-0.438,-0.4974,-0.468,-0.4361,-0.4779,-0.3112,-0.1455,-0.1746,-0.084,0.0,0.0,0.0672,0.1343,0.1736,0.0672,-0.0168,0.0,-0.0112,-0.028,-0.0392,-0.095,-0.134,-0.134,-0.1953,-0.2621,-0.3234,-0.4024,-0.4473,-0.4519,-0.4519,-0.4842,-0.5546,-0.5769,-0.5937,-0.6109,-0.6421,-0.6745,-0.7036,-0.8178,-0.9297,-1.0452,-1.1149,-1.2329,0.0,0.0,0.0,0.0,0.0,0.0,0.0,0.0,0.0,0.0,0.0,1.5945,1.4352,0.0,1.4037,1.2394,1.2204,1.2305,1.2305,1.2178,1.1985,1.1601,0.9739,0.8542,0.8542,0.7173,0.6338,0.6338,0.6338,0.6338,0.6338,0.6338,0.555,0.3982,0.3357,0.2345,0.0784,0.0235,0.0,0.0,0.0,0.0,0.0,0.0,0.0,0.0,0.0,0.0,0.0,0.0,0.0,0.0,0.0,0.0,0.0,0.0,0.0,0.0,0.0,0.0,0.0,0.0,-0.0605,-0.1273,-0.1273,-0.1939,-0.2804,-0.3209,-0.3374,-0.3445,-0.3731,-0.3537,-0.3276,-0.3475,-0.2348,-0.1198,-0.1122,-0.0504,0.0,0.0,0.0728,0.1566,0.2465,0.179,0.1006,0.0783,0.0336,0.0,0.0,-0.0336,-0.056,-0.056,-0.0895,-0.134,-0.2007,-0.3236,-0.4132,-0.446,-0.4519,-0.4625,-0.5003,-0.5003,-0.5003,-0.5003,-0.537,-0.5914,-0.6588,-0.8055,-0.9354,-1.0511,-1.0939,-1.1978,0.0,0.0,0.0,0.0,0.0,0.0,0.0,1.8957,1.7577,1.8615,1.8489,1.7745,1.6202,1.5787,1.4984,1.2914,1.2398,1.2218,1.2218,1.1964,1.187,1.2104,1.0501,0.9314,0.917,0.7555,0.6444,0.629,0.6244,0.6338,0.6338,0.6338,0.5786,0.4766,0.3671,0.2735,0.188,0.0628,0.0078,0.0303,0.0075,0.0,0.0,0.0,0.0,0.0,0.0,0.0,0.0,0.0,0.0,0.0,0.0,0.0,0.0,0.0,0.0,0.0,0.0,0.0,0.0,0.0,-0.0471,-0.1072,-0.1067,-0.1589,-0.2241,-0.2372,-0.2455,-0.2452,-0.2514,-0.2392,-0.2269,-0.2193,-0.1507,-0.0783,-0.0391,-0.0112,0.0,0.0,0.0783,0.1789,0.2802,0.2683,0.2287,0.1845,0.1007,0.0391,0.0389,0.0279,0.0224,0.0167,0.0056,-0.0336,-0.1229,-0.2732,-0.3846,-0.446,-0.4519,-0.4519,-0.4519,-0.4519,-0.4519,-0.4519,-0.4491,-0.5194,-0.6588,-0.789,-0.9253,-1.0695,-1.1276,-1.2057,1.7543,1.8524,2.0055,2.2141,2.1092,1.9863,0.0,2.0409,1.9566,1.9543,1.9341,1.9044,1.8577,1.6722,1.4919,1.3745,1.2655,1.1917,1.1917,1.1663,1.149,1.1523,1.0533,0.9541,0.8771,0.7788,0.6857,0.6129,0.6183,0.6338,0.6338,0.6338,0.5786,0.4766,0.3671,0.3046,0.2968,0.1019,0.0465,0.1435,0.0444,0.0,0.0,0.0,0.0,0.0,0.0,0.0,0.0,0.0,0.0,0.0,0.0,0.0,0.0,0.0,0.0,0.0,0.0,0.0,0.0,0.0,-0.0067,-0.0134,-0.0131,-0.0191,-0.0436,-0.1244,-0.1468,-0.1618,-0.2307,-0.1942,-0.1572,-0.208,-0.1118,-0.0336,-0.1174,-0.0616,0.0,0.0,0.151,0.285,0.2963,0.3125,0.3178,0.285,0.2345,0.1932,0.177,0.1317,0.094,0.0806,0.033,-0.056,-0.1952,-0.3511,-0.4405,-0.4519,-0.4519,-0.4519,-0.4519,-0.4519,-0.4519,-0.4519,-0.4515,-0.5167,-0.6588,-0.7225,-0.8468,-1.0327,-1.3045,-1.3786,1.8879,1.9344,2.0195,2.1794,2.1893,2.1758,2.2262,2.1599,2.0814,2.0835,2.0653,1.9924,1.8438,1.7581,1.6369,1.4049,1.312,1.2494,1.2013,1.147,1.1176,1.1176,1.0685,1.0031,0.9436,0.8065,0.7045,0.6691,0.6336,0.6125,0.6125,0.621,0.6103,0.5628,0.4608,0.3956,0.3899,0.2451,0.1579,0.1444,0.1001,0.0492,0.0,0.0,0.0,0.0,0.0,0.0,0.0,0.0,0.0,0.0,0.0,0.0,0.0,0.0,0.0,0.0,0.0,0.0,0.0,0.0,0.0,0.0,0.0,0.0,-0.0062,-0.0432,-0.0544,-0.065,-0.0941,-0.0811,-0.0627,-0.0842,-0.0448,-0.0112,-0.056,-0.028,0.0,0.0,0.1007,0.2011,0.2456,0.3012,0.3514,0.3852,0.2854,0.2051,0.2022,0.1776,0.1469,0.104,0.0389,-0.0448,-0.1452,-0.2565,-0.3345,-0.379,-0.4236,-0.4519,-0.4519,-0.4519,-0.4519,-0.4519,-0.4519,-0.5171,-0.6588,-0.682,-0.8053,-1.0261,-1.1995,-1.3243,2.0797,2.0898,2.1116,2.213,2.2803,2.3219,2.3161,2.2505,2.1946,2.2068,2.1592,2.0475,1.8512,1.8142,1.7241,1.4687,1.3753,1.302,1.2312,1.1512,1.0995,1.0995,1.0808,1.0575,1.0226,0.8736,0.7583,0.7145,0.6626,0.6205,0.6027,0.6095,0.6132,0.6132,0.5132,0.4631,0.4842,0.3507,0.2628,0.2094,0.1536,0.0965,0.0337,0.0135,0.0,0.0,0.0,0.0,0.0,0.0,0.0135,0.0336,0.0336,0.0538,0.074,0.0471,0.0201,0.0,0.0,0.0,0.0,0.0,0.0,0.0,0.0,0.0,0.0,0.0,0.0,0.0,0.0,0.0,0.0,0.0,0.0,0.0,0.0,0.0,0.0,0.0,0.0616,0.1284,0.1786,0.2732,0.3547,0.3971,0.3187,0.2572,0.2599,0.223,0.1776,0.1169,0.028,-0.0504,-0.1062,-0.1786,-0.2508,-0.3231,-0.3677,-0.3959,-0.4181,-0.4181,-0.4184,-0.4184,-0.4405,-0.5171,-0.6588,-0.6588,-0.7882,-1.0386,-1.1191,-1.249,2.3248,2.3593,2.3766,2.4535,2.41,2.3434,2.3303,2.3191,2.3069,2.3041,2.1888,2.0594,1.9471,1.8025,1.676,1.5981,1.4421,1.3224,1.2901,1.1776,1.0995,1.0995,1.0982,1.0989,0.0,1.0055,0.8795,0.7208,0.7086,0.6736,0.602,0.5891,0.5817,0.5817,0.4801,0.4726,0.5734,0.3702,0.3154,0.4117,0.2233,0.1309,0.1207,0.0404,0.0,0.0,0.0,0.0,0.0,0.0,0.0471,0.1274,0.1274,0.1809,0.2477,0.1608,0.0726,0.0,0.0,0.0,0.0,0.0,0.0,0.0,0.0,0.0,0.0,0.0,0.0,0.0,0.0,0.0,0.0,0.0,0.0,0.0,0.0,0.0,0.0,0.0,0.0616,0.1118,0.1118,0.2399,0.3271,0.3006,0.3524,0.3979,0.4125,0.2867,0.1776,0.1169,-0.0223,-0.1062,-0.1118,-0.1786,-0.2508,-0.3231,-0.2676,-0.2563,-0.3287,-0.34,-0.3456,-0.3456,-0.4125,-0.5171,-0.6588,-0.6588,-0.8053,-1.0813,-1.1423,-1.2145,2.3265,2.4296,2.4797,2.4091,2.3738,2.3472,2.3393,2.2729,2.2015,2.1665,2.1134,2.0159,1.8453,1.8262,1.7874,1.6175,1.5283,1.4371,1.3286,1.2616,1.2016,1.1344,1.1283,0.0,0.0,0.0,0.0,0.7926,0.7306,0.6628,0.5943,0.583,0.58,0.58,0.5437,0.5396,0.5661,0.4953,0.4466,0.4074,0.2173,0.1016,0.0404,0.0135,0.0,0.0,0.0,0.0,0.0067,0.0605,0.1006,0.134,0.2009,0.241,0.2673,0.2232,0.1601,0.0753,0.0192,0.0,0.0,0.0,0.0,0.0,0.0,0.0,0.0,0.0,0.0,0.0,0.0,0.0,0.0,0.0,0.0,0.0,0.0,0.0,0.0,0.0,0.0224,0.0504,0.1006,0.1507,0.2126,0.2794,0.3441,0.3924,0.4026,0.2876,0.1938,0.1835,0.0503,-0.0392,-0.0392,-0.1062,-0.1563,-0.184,-0.2063,-0.2286,-0.2565,-0.3065,-0.3345,-0.3345,-0.4556,-0.5655,-0.6588,-0.7528,-0.894,-1.0813,-1.1449,-1.2181,2.3554,2.4737,2.528,2.4323,2.3944,2.3725,2.3116,2.2306,2.1394,2.0568,2.0165,1.9417,1.7687,1.8035,1.8024,1.6567,1.5956,1.5354,1.4449,1.3553,1.2809,1.213,1.1784,1.1583,1.1583,0.0,0.0,0.8417,0.7792,0.6919,0.5789,0.5674,0.5644,0.5644,0.5644,0.5599,0.5508,0.5508,0.4842,0.3547,0.2342,0.1141,0.0,0.0,0.0,0.0,0.0,0.0202,0.0538,0.0996,0.166,0.2341,0.2845,0.3317,0.3602,0.3115,0.2649,0.2033,0.0809,0.0242,0.0,0.0,0.0,0.0,0.0,0.0,0.0,0.0,0.0,0.0,0.0,0.0,0.0,0.0,0.0,0.0,0.0,0.0,0.0,0.0,0.0,0.0168,0.0615,0.0877,0.1433,0.2732,0.317,0.3532,0.3869,0.3036,0.2408,0.2514,0.1497,0.0671,0.0392,-0.0056,-0.0559,-0.1062,-0.1284,-0.1675,-0.2174,-0.2676,-0.3065,-0.3345,-0.4772,-0.5869,-0.6588,-0.7747,-0.9207,-1.0813,-1.1266,-1.1823,2.4104,2.4859,2.5264,2.5045,2.4719,2.4067,2.2661,2.1987,2.1317,2.0003,1.9195,1.8402,1.737,1.7398,1.7411,1.704,1.6475,1.6039,1.6133,1.4574,1.3422,1.3359,1.2523,1.1955,1.1942,1.1617,0.0,0.8819,0.0,0.7604,0.5793,0.5511,0.5428,0.5428,0.5428,0.5428,0.5428,0.5428,0.4486,0.2744,0.2744,0.1811,0.0135,0.0067,0.0067,0.0135,0.0067,0.0538,0.1338,0.1304,0.2354,0.3995,0.3888,0.4496,0.5252,0.4193,0.3828,0.3539,0.1835,0.0747,0.0112,0.0056,0.0056,0.0112,0.0,0.0,0.0056,0.0,0.0,0.0,0.0,0.0,0.0,0.0,0.0,0.0,0.0,0.0,0.0,0.0,0.0,0.0,0.0,0.0529,0.1361,0.2657,0.2773,0.2996,0.3735,0.3447,0.3126,0.3139,0.2573,0.1952,0.1174,0.1118,0.0503,-0.095,-0.0392,-0.0615,-0.2009,-0.2174,-0.2565,-0.3345,-0.4772,-0.5928,-0.6588,-0.7396,-0.881,-1.0771,-1.0762,-1.1166,2.3616,2.3958,2.43,2.3692,2.3469,2.3269,2.2912,2.2098,2.1203,2.0457,1.9512,1.8502,1.7355,1.7793,1.8066,1.7147,1.7491,1.7589,1.6642,1.606,1.5225,1.3761,1.3403,1.2892,1.1962,1.1797,1.1153,0.0,0.8573,0.7655,0.6595,0.584,0.5428,0.5428,0.5428,0.5428,0.5428,0.5428,0.4821,0.368,0.368,0.308,0.2011,0.1275,0.1341,0.1944,0.1275,0.1475,0.2409,0.299,0.3479,0.3885,0.4498,0.4898,0.5013,0.4616,0.4121,0.3544,0.2969,0.2247,0.1563,0.1006,0.1174,0.1452,0.0336,0.0392,0.0727,0.0168,0.0,0.0,0.0,0.0,0.0,0.0,0.0,0.0,0.0,0.0,0.0,0.0,0.0,0.0,0.0,0.0574,0.1285,0.1992,0.2508,0.3125,0.3843,0.3863,0.3625,0.3284,0.3094,0.2498,0.1228,0.1118,0.0727,-0.0224,-0.0112,-0.0168,-0.056,-0.1619,-0.2286,-0.2508,-0.5042,-0.6421,-0.6588,-0.8389,-0.9547,-1.0064,-1.0568,-1.0914,2.3923,2.3706,2.3439,2.3226,2.3178,2.303,2.2506,2.1888,2.1234,2.0543,1.9759,1.8883,1.7747,1.7994,1.8095,1.7248,1.7754,1.8022,1.7328,1.6853,1.607,1.4522,1.3825,1.3106,1.2026,1.1637,1.1139,0.0,0.9311,0.8317,0.7412,0.6453,0.5943,0.5943,0.5624,0.5428,0.5428,0.5233,0.4739,0.3939,0.3828,0.3354,0.2452,0.1937,0.2001,0.2452,0.0,0.2259,0.3157,0.3498,0.3914,0.4335,0.4778,0.4928,0.4901,0.4748,0.4455,0.4082,0.3893,0.3566,0.301,0.1952,0.1842,0.2063,0.1229,0.1229,0.1507,0.1062,0.095,0.095,0.095,0.095,0.0895,0.056,0.0504,0.0392,0.0056,0.0,0.0,0.0,0.0,0.0,0.0,0.0359,0.0866,0.1676,0.2149,0.2856,0.4138,0.4402,0.4361,0.4026,0.4139,0.3657,0.223,0.1786,0.1284,0.0504,0.0168,-0.0168,-0.0448,-0.1563,-0.2343,-0.2676,-0.5261,-0.6588,-0.6588,-0.8455,-0.951,-0.9814,-1.0167,-1.0364,2.4392,2.3617,2.2801,2.316,2.3241,2.2984,2.1927,2.1642,2.1352,2.055,1.9974,1.9317,1.8366,1.8135,1.7959,1.7616,1.7765,1.7988,1.814,1.7354,1.6401,1.5379,1.419,1.3083,1.2032,1.1357,1.0982,1.0942,1.0271,0.9365,0.8231,0.7372,0.6837,0.6681,0.5847,0.5321,0.5304,0.505,0.4606,0.3948,0.3791,0.3317,0.2579,0.2456,0.2456,0.2579,0.0,0.0,0.374,0.3577,0.4065,0.4874,0.4745,0.4758,0.4843,0.4711,0.466,0.4643,0.4563,0.4519,0.4239,0.2788,0.2397,0.2454,0.2286,0.2286,0.2343,0.2174,0.223,0.2287,0.2287,0.2287,0.212,0.1284,0.1118,0.0895,0.0168,0.0,0.0,0.0,0.0,0.0,0.0,0.0,0.0396,0.1564,0.1827,0.257,0.4521,0.5057,0.5202,0.5084,0.5497,0.5156,0.3674,0.2783,0.2007,0.1174,0.0392,-0.028,-0.0951,-0.173,-0.2504,-0.3101,-0.5307,-0.646,-0.6436,-0.7925,-0.8949,-0.9503,-0.9607,-0.9666,2.3255,2.2896,2.2663,2.2517,2.2496,2.2434,2.2242,2.1899,2.146,2.0991,2.0181,1.9441,1.8878,1.8806,1.8862,1.8958,1.8817,1.8776,1.9041,1.8317,1.7232,1.5913,1.4993,1.3839,1.2285,1.1431,1.0895,0.0,1.0507,1.0027,0.9145,0.8221,0.7362,0.6497,0.5612,0.5114,0.4996,0.5009,0.4935,0.4706,0.462,0.4546,0.4424,0.3684,0.3747,0.4363,0.0,0.0,0.4671,0.4642,0.464,0.4728,0.4701,0.4629,0.4594,0.4567,0.456,0.4553,0.4525,0.4519,0.4349,0.34,0.3566,0.3846,0.2565,0.2676,0.2954,0.1893,0.2232,0.285,0.285,0.285,0.2569,0.1397,0.1118,0.0895,0.0168,0.0,0.0,0.0,0.0,0.0,0.0,0.0,0.0285,0.118,0.1884,0.2993,0.496,0.5671,0.5987,0.5964,0.6791,0.6455,0.4429,0.3542,0.2552,0.1174,0.0392,-0.0056,-0.0168,-0.1507,-0.2203,-0.2252,-0.4487,-0.5632,-0.5531,-0.7136,-0.7937,-0.809,-0.8685,-0.8956,2.3296,2.2475,2.1615,2.162,2.1615,2.1615,2.1615,2.1598,2.143,2.0781,2.0467,1.9958,1.8712,1.8728,1.8766,1.8153,1.8177,1.8337,1.8407,1.8073,1.7295,1.603,1.5451,1.451,1.2948,1.1981,1.1383,1.124,1.0863,1.0434,0.9977,0.9,0.7986,0.701,0.6014,0.5566,0.5707,0.5115,0.4783,0.4862,0.4718,0.468,0.468,0.4268,0.4271,0.468,0.4268,0.0,0.468,0.468,0.4636,0.4572,0.4572,0.4584,0.4519,0.4519,0.4519,0.4519,0.4519,0.4519,0.4463,0.407,0.4181,0.4349,0.3624,0.3677,0.3846,0.3229,0.34,0.3796,0.3796,0.3796,0.3514,0.251,0.1675,0.1118,0.1118,0.0828,0.0648,0.0989,0.0893,0.0724,0.0657,0.0287,0.0144,0.054,0.1426,0.2672,0.4204,0.5166,0.5871,0.6272,0.7288,0.7087,0.4836,0.3994,0.2999,0.1641,0.0902,0.0319,0.0,-0.1326,-0.2048,-0.2015,-0.4175,-0.5315,-0.5276,-0.6467,-0.7056,-0.7128,-0.7509,-0.767,2.34,2.2,2.0476,2.0766,2.083,2.083,2.083,2.1165,2.1228,2.0483,2.0583,2.0366,1.8736,1.8613,1.8481,1.7821,1.768,1.779,1.8023,1.7926,1.7329,1.6215,1.5705,1.5005,1.3723,1.2476,1.1834,1.1834,1.0982,0.0,1.0461,0.9359,0.8387,0.7674,0.6623,0.612,0.6366,0.514,0.4573,0.4758,0.4577,0.4519,0.4519,0.4519,0.4519,0.4519,0.4519,0.0,0.0,0.4519,0.4519,0.4519,0.4519,0.4519,0.4519,0.4519,0.4519,0.4519,0.4519,0.4519,0.4519,0.4519,0.4519,0.4519,0.4519,0.4519,0.4519,0.4519,0.4519,0.4519,0.4519,0.4519,0.4294,0.3566,0.2343,0.1507,0.2063,0.1721,0.1469,0.206,0.1893,0.1718,0.1803,0.1232,0.077,0.0764,0.1157,0.1956,0.3409,0.4398,0.535,0.6433,0.747,0.7291,0.5403,0.4496,0.345,0.206,0.131,0.0606,0.0,-0.116,-0.1855,-0.1939,-0.3764,-0.4785,-0.4954,-0.5789,-0.623,-0.6304,-0.6509,-0.6696,2.276,2.1084,1.9803,2.0187,2.0273,2.0273,2.0273,2.0668,2.0926,2.0416,2.0348,2.0177,1.966,1.8822,1.8618,2.003,1.8845,1.812,1.9371,1.8912,1.7974,1.6753,1.5946,1.5151,1.4219,1.2704,1.1834,1.1834,0.0,0.0,1.016,0.9081,0.8352,0.813,0.727,0.6543,0.5945,0.4992,0.4494,0.4539,0.4525,0.4519,0.4519,0.4519,0.4519,0.4519,0.4519,0.0,0.0,0.4519,0.4519,0.4519,0.4519,0.4519,0.4519,0.4519,0.4519,0.4519,0.4519,0.4519,0.4519,0.4519,0.4519,0.4519,0.4519,0.4519,0.4519,0.4519,0.4519,0.4519,0.4519,0.4519,0.4294,0.3511,0.2676,0.212,0.2174,0.2072,0.2078,0.2544,0.2472,0.2599,0.3573,0.3477,0.3257,0.3268,0.151,0.1017,0.3309,0.3698,0.4582,0.6699,0.7374,0.7296,0.6444,0.5376,0.3985,0.2112,0.131,0.0606,0.0,-0.0757,-0.1388,-0.1815,-0.2902,-0.3625,-0.3927,-0.5064,-0.5548,-0.5462,-0.6226,-0.6966,2.2655,2.1123,1.971,1.9498,1.9434,1.9411,1.9411,2.0008,2.0449,2.0035,2.0124,2.0074,1.9339,1.8612,1.8344,1.9034,1.8257,1.7857,1.8892,1.8402,1.7696,1.7093,1.6299,1.5628,1.4989,1.3897,1.2962,1.2218,0.0,0.0,1.0208,0.9345,0.8839,0.8794,0.7897,0.7454,0.7668,0.6416,0.5764,0.5745,0.534,0.4893,0.4519,0.4519,0.4519,0.4519,0.4519,0.0,0.0,0.4519,0.4519,0.4519,0.4519,0.4732,0.5109,0.5109,0.5386,0.5773,0.5773,0.5773,0.5714,0.5218,0.5214,0.5265,0.4677,0.4519,0.4519,0.4519,0.4519,0.4519,0.4519,0.4519,0.4405,0.4125,0.3456,0.3065,0.3511,0.3144,0.2918,0.337,0.3372,0.3386,0.3724,0.3658,0.3599,0.3595,0.2763,0.2534,0.347,0.3621,0.4452,0.6748,0.7758,0.7879,0.6904,0.6062,0.4843,0.3031,0.1966,0.1187,0.0585,-0.0439,-0.1076,-0.1231,-0.2024,-0.248,-0.2703,-0.3176,-0.3425,-0.3436,-0.4239,-0.4786,2.2751,2.1362,1.9804,1.9307,1.9063,1.8917,1.8898,1.9543,2.0035,1.9747,1.9945,1.9914,1.9281,1.8574,1.8179,1.8347,1.797,1.7844,1.8536,1.8098,1.7654,1.7541,1.6769,1.6207,1.6087,1.5023,1.3794,1.239,0.0,0.0,0.0,0.9634,0.9268,0.9112,0.8416,0.8293,0.8798,0.7538,0.6874,0.6802,0.6159,0.5601,0.5117,0.5003,0.4893,0.4787,0.0,0.0,0.0,0.4952,0.5066,0.4901,0.5066,0.5386,0.5814,0.5814,0.6145,0.6588,0.6588,0.6588,0.648,0.581,0.5742,0.5734,0.4761,0.4498,0.4505,0.4515,0.4519,0.4519,0.4519,0.4519,0.4519,0.4519,0.4125,0.3846,0.4405,0.3954,0.3626,0.3959,0.3883,0.3749,0.3632,0.3621,0.3609,0.3595,0.3581,0.3581,0.3581,0.3595,0.4196,0.5837,0.73,0.801,0.756,0.6793,0.5562,0.3628,0.2787,0.1932,0.0951,0.0144,-0.049,-0.0907,-0.1373,-0.1718,-0.1929,-0.2022,-0.2083,-0.2166,-0.2918,-0.3406,2.3134,2.1698,1.9878,1.9895,1.9387,1.892,1.8908,1.9332,1.9726,1.969,1.969,1.9711,1.969,1.8817,1.8259,1.8824,1.8506,1.8277,1.8584,1.8395,1.8315,1.8269,1.7337,1.691,1.7501,1.5835,1.3895,0.0,0.0,0.0,0.0,0.9821,0.9465,0.8811,0.8811,0.8785,0.8798,0.808,0.758,0.7404,0.682,0.6588,0.6588,0.6072,0.5742,0.0,0.0,0.0,0.0,0.5987,0.6317,0.5941,0.6372,0.6588,0.6588,0.6588,0.6588,0.6588,0.6588,0.6588,0.6529,0.6067,0.5896,0.5725,0.4765,0.4504,0.4529,0.4508,0.4519,0.4519,0.4519,0.4519,0.4519,0.4519,0.4519,0.4519,0.4519,0.4233,0.3973,0.4019,0.3785,0.3585,0.3581,0.3581,0.3581,0.3581,0.3581,0.3581,0.3581,0.3595,0.3618,0.3618,0.5647,0.7461,0.8571,0.7631,0.5998,0.3628,0.3687,0.2926,0.0999,0.1038,0.0453,-0.0857,-0.1043,-0.1331,-0.1805,-0.2046,-0.2132,-0.2014,-0.2918,-0.372,2.1769,2.109,2.0344,1.946,1.9063,1.8892,1.8898,1.9332,1.969,1.969,1.969,1.969,1.969,1.8817,1.8535,1.985,1.9321,1.9046,1.9908,1.9837,1.9574,1.9223,1.7995,1.6791,1.5772,0.0,1.4289,0.0,0.0,0.0,0.0,1.0712,0.9969,0.8857,0.8804,0.8818,0.8785,0.8546,0.8406,0.835,0.7693,0.7306,0.7112,0.6588,0.0,0.0,0.0,0.0,0.0,0.6426,0.6534,0.6372,0.6534,0.6912,0.7343,0.7343,0.767,0.8103,0.8103,0.8103,0.799,0.716,0.7374,0.7469,0.5197,0.4501,0.4522,0.4481,0.4481,0.4481,0.4481,0.4481,0.4488,0.4512,0.4519,0.4519,0.4519,0.4311,0.4093,0.4039,0.386,0.3693,0.3595,0.3581,0.3581,0.3581,0.3581,0.3581,0.3581,0.3615,0.3598,0.3618,0.4238,0.5749,0.847,0.7994,0.6926,0.5422,0.498,0.4183,0.2942,0.2038,0.1232,0.0487,-0.0055,-0.0431,-0.0565,-0.063,-0.1213,-0.2137,-0.3002,-0.3776,2.1485,2.1284,2.0966,1.9857,1.9384,1.9181,1.9176,1.9442,1.969,1.969,1.969,1.969,1.969,1.9006,1.8749,1.9798,1.9416,1.933,2.024,2.019,1.9906,1.9492,1.877,1.7567,0.0,1.5434,0.0,0.0,0.0,0.0,0.0,1.1416,1.0661,0.9562,0.9562,0.9309,0.8811,0.9061,0.9029,0.8811,0.834,0.8062,0.7925,0.7574,0.0,0.0,0.0,0.0,0.0,0.73,0.7413,0.743,0.7408,0.7723,0.8103,0.8103,0.8427,0.8804,0.8804,0.8804,0.8699,0.8143,0.8309,0.8474,0.6645,0.5383,0.4508,0.4508,0.5295,0.61,0.61,0.5299,0.4515,0.4481,0.4484,0.4488,0.4498,0.4706,0.4654,0.4096,0.4082,0.4064,0.365,0.3581,0.3581,0.3581,0.3581,0.3581,0.3581,0.3581,0.3615,0.3595,0.3967,0.5029,0.7039,0.7637,0.7693,0.7163,0.6313,0.525,0.4016,0.3195,0.223,0.1116,0.0671,0.0275,0.0,-0.0266,-0.1167,-0.2647,-0.3166,-0.3743,0.0,2.1883,2.1426,2.0754,2.0114,1.9691,1.97,1.969,0.0,1.969,1.969,1.972,1.9809,1.9346,1.8963,1.9142,1.915,1.9331,1.9825,1.9829,1.9592,1.9233,1.9557,1.8886,1.6669,1.6411,0.0,0.0,0.0,0.0,0.0,1.1913,1.1566,1.0914,1.0922,1.032,0.8956,0.9562,0.9562,0.8962,0.8962,0.8962,0.8962,0.8962,0.0,0.0,0.0,0.0,0.0,0.844,0.8791,0.8784,0.8778,0.8804,0.8804,0.8804,0.8804,0.8804,0.8804,0.8804,0.8804,0.8804,0.8804,0.8818,0.8825,0.6945,0.4815,0.4815,0.6756,0.8775,0.8775,0.6815,0.4815,0.4819,0.4819,0.4772,0.4682,0.5307,0.5557,0.4353,0.4566,0.4704,0.3883,0.3718,0.3711,0.3711,0.3711,0.3711,0.3667,0.3667,0.3667,0.3622,0.4552,0.5033,0.4661,0.6623,0.8068,0.8504,0.7427,0.6031,0.4414,0.4341,0.3374,0.1229,0.1062,0.0661,0.0,-0.0746,-0.1861,-0.3298,-0.3296,-0.3618,1.9772,0.0,2.0171,1.9478,1.9515,1.9708,0.0,1.969,1.969,1.969,1.969,2.0004,2.1036,1.9944,1.953,2.1415,2.0917,2.0471,2.1058,2.1081,2.0814,2.0169,1.9849,1.875,1.648,1.6271,0.0,0.0,0.0,0.0,0.0,1.288,1.2295,1.1566,1.2098,1.1742,1.0364,1.0466,1.0466,1.032,1.032,1.032,1.032,1.032,0.0,0.0,0.0,0.0,0.9204,0.8903,0.8818,0.8778,0.8811,0.8804,0.8804,0.8804,0.8804,0.8804,0.8804,0.8804,0.8804,0.8804,0.8804,0.8811,0.8824,0.8347,0.7806,0.7806,0.8277,0.8817,0.8817,0.8284,0.7764,0.7805,0.7763,0.7469,0.6367,0.602,0.6018,0.6477,0.6021,0.5433,0.5248,0.5021,0.4918,0.4918,0.4918,0.4744,0.4264,0.4339,0.4243,0.3672,0.3847,0.3978,0.3887,0.4886,0.5955,0.7005,0.6659,0.6197,0.5756,0.4658,0.3404,0.1952,0.0838,0.0167,0.0,-0.0718,-0.1599,-0.2479,-0.3111,-0.3776,1.9357,2.0071,2.0705,2.0304,2.0411,2.0602,2.0602,2.0124,1.969,1.969,1.9929,2.0378,2.1111,2.0903,2.0954,2.1987,2.1837,2.1654,2.1857,2.1644,2.1369,2.0962,1.9988,1.8654,0.0,0.0,0.0,0.0,0.0,0.0,0.0,1.3884,1.3399,1.2745,1.3351,1.2803,1.0813,1.1116,1.1116,1.0813,1.0813,1.0813,1.0813,1.0813,1.0813,0.0,0.0,0.0,1.0167,0.9211,0.8956,0.9211,0.891,0.8804,0.8804,0.8804,0.8804,0.8804,0.8804,0.8778,0.8776,0.8781,0.8813,0.8813,0.8813,0.8822,0.8798,0.8791,0.8805,0.8805,0.8805,0.8805,0.8818,0.8798,0.8804,0.8577,0.777,0.7406,0.7379,0.7934,0.7536,0.6907,0.6191,0.5929,0.5799,0.5748,0.5697,0.5525,0.5063,0.5089,0.4953,0.4422,0.4196,0.41,0.4089,0.4252,0.483,0.607,0.6208,0.6126,0.5905,0.5116,0.392,0.223,0.0727,-0.0168,-0.0504,-0.0895,-0.1452,-0.223,-0.2621,-0.3042,1.985,2.1024,2.199,2.1672,2.1733,2.1814,2.1724,2.0812,1.9989,1.9989,2.0468,2.0961,2.1261,2.2062,2.2585,2.2267,2.2594,2.2812,2.2617,2.2053,2.1648,2.1493,2.01,0.0,0.0,0.0,0.0,0.0,0.0,0.0,0.0,1.4744,1.4468,1.3956,1.4422,1.3632,1.1399,1.1855,1.1765,1.1124,1.1124,1.1124,1.1124,1.1124,1.1124,0.0,0.0,0.0,1.0864,0.9614,0.9406,0.9799,0.9204,0.8896,0.8784,0.8798,0.8804,0.8804,0.8804,0.9086,0.9438,0.9438,0.9445,0.943,0.943,0.9453,0.9327,0.8901,0.8784,0.8804,0.8804,0.8804,0.8804,0.8804,0.8804,0.8824,0.8825,0.8791,0.8823,0.8792,0.8792,0.8313,0.6962,0.6741,0.6665,0.6508,0.6455,0.633,0.5944,0.5927,0.5842,0.5507,0.5164,0.4924,0.4836,0.4321,0.4405,0.5345,0.5696,0.5715,0.5374,0.5214,0.4271,0.2397,0.0951,-0.0112,-0.0782,-0.0894,-0.1284,-0.2009,-0.2009,-0.2033,2.0384,2.1723,2.2483,2.1325,2.1789,2.2383,2.1814,2.153,2.138,2.138,2.147,2.2054,2.3714,2.3304,2.3204,2.4761,2.4531,2.4163,2.3997,2.3099,2.2213,2.1592,0.0,0.0,0.0,0.0,0.0,0.0,0.0,0.0,0.0,1.4971,1.4663,1.456,1.4652,1.4514,1.4122,1.37,1.316,1.2569,1.2569,1.2569,1.2569,1.2569,1.2569,0.0,0.0,1.1566,1.1566,1.0813,1.0324,1.0132,0.9791,0.9304,0.8788,0.8778,0.8804,0.8804,0.8804,1.0308,1.2268,1.225,1.2262,1.2273,1.2273,1.2291,1.1804,0.9431,0.882,0.8804,0.8804,0.8804,0.8804,0.8804,0.8804,0.8811,0.8818,0.8811,0.8798,0.8778,0.8615,0.837,0.7991,0.7791,0.7739,0.7854,0.7739,0.7475,0.6943,0.7065,0.6978,0.639,0.6089,0.5846,0.5505,0.4805,0.4399,0.4421,0.4491,0.4573,0.4673,0.4064,0.3564,0.3231,0.173,0.0894,0.0782,0.0112,-0.056,-0.1284,-0.1284,-0.1615,2.0541,2.1768,2.2728,2.242,2.3317,2.4193,2.3879,2.3251,2.2727,2.2727,2.3011,2.3565,2.4418,2.4712,2.5091,2.5965,2.5159,2.4448,2.4353,2.3311,2.2452,0.0,0.0,0.0,0.0,0.0,0.0,0.0,0.0,0.0,0.0,0.0,1.5511,1.5186,1.5511,1.5377,1.4709,1.4732,1.4457,1.3884,1.3563,1.3372,1.3372,1.3065,1.2881,1.2871,0.0,1.203,1.2295,1.1032,1.0705,1.1015,1.0804,1.0246,0.9592,0.9776,0.9865,0.9917,1.0169,1.0929,1.187,1.2641,1.2915,1.2908,1.2908,1.2907,1.2648,1.1366,0.9936,0.8822,0.8822,0.8817,0.8804,0.8804,0.8804,0.8804,0.8804,0.8804,0.8804,0.8804,0.8697,0.8604,0.8546,0.8439,0.841,0.8518,0.8461,0.8243,0.7839,0.7898,0.7793,0.7325,0.6563,0.6069,0.5917,0.4976,0.4337,0.4358,0.4365,0.4392,0.4515,0.3735,0.3345,0.34,0.2287,0.1675,0.1675,0.1341,0.1005,0.0669,0.0669,0.0501,2.0722,2.1799,2.2862,2.364,2.4627,2.5465,2.5764,2.4926,2.4103,2.4268,2.4717,2.5046,2.4836,2.5809,2.6545,2.6331,2.554,2.4826,2.4476,2.3529,2.2797,2.26,0.0,0.0,0.0,0.0,0.0,0.0,0.0,0.0,0.0,0.0,1.6281,1.582,1.6238,1.6064,1.5107,1.5599,1.5466,1.4698,1.4236,1.3956,1.3768,1.3324,1.3017,1.2881,1.2295,1.2393,1.2774,1.1423,1.1323,1.2039,1.189,1.1217,1.0386,1.0695,1.0813,1.0872,1.1192,1.1208,1.1195,1.2252,1.2734,1.2881,1.2881,1.289,1.2919,1.2919,1.136,0.9614,0.8961,0.8815,0.8778,0.8798,0.8804,0.8804,0.8804,0.8804,0.8804,0.8804,0.8804,0.8804,0.8804,0.8804,0.8804,0.8804,0.8804,0.8731,0.8504,0.8417,0.826,0.7898,0.6777,0.5987,0.5835,0.4869,0.4345,0.4512,0.4519,0.457,0.4732,0.4009,0.3677,0.3895,0.2952,0.2454,0.2454,0.2286,0.2174,0.2174,0.2174,0.2174,2.1276,2.2143,2.2981,2.4238,2.4582,2.5016,2.6243,2.5974,2.563,2.6258,2.6408,2.6258,2.5644,2.6123,2.6408,2.5744,2.6117,2.6007,2.4675,0.0,2.3393,0.0,0.0,0.0,0.0,0.0,0.0,0.0,0.0,0.0,0.0,0.0,0.0,1.6423,1.6479,1.6479,1.638,1.6423,1.5832,1.4698,1.4663,1.4329,1.3815,1.3779,1.342,1.2881,1.2822,1.2832,1.2881,1.2774,1.2764,1.2842,1.2801,1.1941,1.0754,1.0813,1.0813,1.0813,1.0821,1.1266,1.1697,1.163,1.2169,1.2881,1.2881,1.2881,1.2891,1.2891,1.2753,1.2,0.9453,0.8806,0.8788,0.8784,0.8804,0.8804,0.8804,0.8804,0.8804,0.8804,0.8804,0.8804,0.8804,0.8804,0.8804,0.8804,0.8804,0.8798,0.8778,0.8544,0.8209,0.7753,0.6816,0.5736,0.4703,0.4556,0.4508,0.4519,0.4519,0.4787,0.5378,0.4787,0.4732,0.532,0.3947,0.3234,0.3289,0.2565,0.2174,0.2174,0.2174,0.2174,2.0303,2.153,2.2843,2.3295,2.4029,2.4971,2.6288,2.6722,2.7021,2.7709,2.7844,2.7515,2.6422,2.6422,2.6378,2.5719,2.548,2.5178,2.4631,2.3703,0.0,0.0,0.0,0.0,0.0,0.0,0.0,0.0,0.0,0.0,0.0,0.0,0.0,1.7504,1.7146,1.6993,1.6993,1.668,1.625,1.5832,1.5421,1.5141,1.4903,1.4549,1.4014,1.3457,1.3457,1.3238,1.2881,1.2881,1.2881,1.2881,1.2881,1.2558,1.2107,1.2107,1.2107,1.2049,1.1575,1.1882,1.2393,1.1855,1.2227,1.2881,1.2881,1.2881,1.2881,1.2881,1.291,1.2635,1.1637,1.0704,1.0061,1.0056,1.0064,0.9828,0.8992,0.8813,0.8815,0.8815,0.8817,0.8804,0.8804,0.8804,0.8804,0.8804,0.8804,0.8804,0.8804,0.8711,0.8417,0.7771,0.6935,0.6114,0.5214,0.555,0.5828,0.5828,0.5386,0.5218,0.5487,0.571,0.5932,0.6204,0.5473,0.4988,0.4718,0.424,0.3866,0.3624,0.3624,0.3624,2.0156,2.1546,2.2985,2.3197,2.4204,2.5509,2.6842,2.7387,2.7868,2.8931,2.8645,2.7841,2.6819,2.6387,2.609,2.5621,2.5168,2.4834,2.478,0.0,0.0,0.0,0.0,0.0,0.0,0.0,0.0,0.0,0.0,0.0,0.0,0.0,0.0,0.0,1.7504,1.7229,1.7034,1.668,1.6522,1.6522,1.6095,1.5776,1.5588,1.5186,1.4641,1.4097,1.4097,1.3789,1.3268,1.3006,1.2919,1.2881,1.2909,1.3064,1.3268,1.2978,1.3017,1.3094,1.2384,1.2501,1.2822,1.2295,1.2501,1.2881,1.2881,1.2881,1.2881,1.2881,1.2881,1.29,1.288,1.219,1.1444,1.1479,1.1251,1.0762,0.9845,0.9562,0.9394,0.927,0.9016,0.881,0.881,0.8784,0.8804,0.8804,0.8804,0.8804,0.8804,0.8804,0.8533,0.7777,0.702,0.6421,0.5873,0.6312,0.6588,0.6588,0.6362,0.6195,0.6195,0.6475,0.6696,0.6966,0.6533,0.6159,0.5873,0.5681,0.5424,0.5171,0.4897,0.4842,2.1209,2.2329,2.3576,2.4315,2.5408,2.6703,2.8084,2.7939,2.8076,3.0019,2.8738,2.7194,2.6693,2.594,2.5416,2.5416,2.54,2.5363,0.0,0.0,0.0,0.0,0.0,0.0,0.0,0.0,0.0,0.0,0.0,0.0,0.0,0.0,0.0,0.0,1.7312,1.7034,1.6522,1.6522,1.6522,1.6522,1.6522,1.6194,1.5632,1.5632,1.5276,1.4698,1.4698,1.4455,1.4031,1.3236,1.2887,1.291,1.2895,1.3418,1.3994,1.322,1.3286,1.3732,1.3104,1.2929,1.2929,1.2881,1.2881,1.2881,1.2881,1.2881,1.2881,1.2929,1.2929,1.2929,1.2929,1.292,1.2888,1.2881,1.2195,1.1505,1.1505,1.1124,1.0695,1.0327,0.9482,0.8806,0.8806,0.8842,0.8804,0.8804,0.8811,0.8811,0.8804,0.8804,0.8533,0.7777,0.702,0.6588,0.6588,0.6642,0.6642,0.6642,0.7289,0.7723,0.7723,0.702,0.6966,0.7723,0.6966,0.6642,0.6588,0.6588,0.6583,0.6588,0.5814,0.5487,2.1811,2.2841,2.4094,2.4869,2.6054,2.7338,2.8731,2.8936,2.9116,3.0177,2.9904,2.9143,2.8081,2.7257,2.6566,2.6132,2.5584,2.5068,0.0,0.0,0.0,0.0,0.0,0.0,0.0,0.0,0.0,0.0,0.0,0.0,0.0,0.0,0.0,0.0,1.8066,1.7626,1.7076,1.668,1.6522,1.6522,1.6522,1.6423,1.6238,1.6238,1.592,1.532,1.532,1.5017,1.449,1.4275,1.3993,1.3736,1.3725,1.4082,1.4547,1.4589,1.451,1.4329,1.3732,1.3552,1.3457,1.3065,1.2881,1.2881,1.2881,1.2881,1.2968,1.342,1.3552,1.3552,1.3552,1.3536,1.3433,1.3027,1.2704,1.2499,1.2499,1.2398,1.2218,1.214,1.1335,1.0702,1.0702,1.0431,1.0064,0.9562,0.951,0.9309,0.8857,0.8778,0.8442,0.7777,0.7503,0.7396,0.7396,0.783,0.8156,0.8156,0.8374,0.8262,0.7723,0.799,0.8262,0.848,0.8074,0.7703,0.7396,0.7175,0.6644,0.5814,0.5597,0.5273,2.3448,2.4454,2.5535,2.66,2.7669,2.8704,2.9786,3.0079,3.0152,3.0312,3.0315,2.9903,2.8608,2.7743,0.0,2.6636,2.5713,0.0,0.0,0.0,0.0,0.0,0.0,0.0,0.0,0.0,0.0,0.0,0.0,0.0,0.0,0.0,0.0,0.0,1.8263,1.7747,1.6993,1.668,1.6522,1.6522,1.6522,1.6522,1.6522,1.6522,1.6281,1.5964,1.5949,1.5763,1.5392,1.4914,1.4823,1.506,1.504,1.5198,1.5427,1.5693,1.5601,1.5313,1.4638,1.414,1.3732,1.3372,1.3113,1.2881,1.2881,1.2881,1.3017,1.3637,1.3815,1.3862,1.4097,1.4143,1.392,1.3113,1.2881,1.2881,1.2881,1.289,1.289,1.289,1.219,1.1595,1.1595,1.115,1.0661,1.0261,1.0218,1.0064,0.9666,0.9585,0.9363,0.896,0.8908,0.881,0.856,0.8942,0.9061,0.8804,0.8804,0.8586,0.8156,0.8586,0.8804,0.8804,0.8637,0.8423,0.8156,0.7675,0.7092,0.6357,0.576,0.5269,2.5464,2.6478,2.7458,2.8979,2.98,3.0378,3.1055,3.119,3.1055,3.0477,3.0212,2.975,2.865,2.7744,2.7139,2.6994,2.5812,0.0,0.0,0.0,0.0,0.0,0.0,0.0,0.0,0.0,0.0,0.0,0.0,0.0,0.0,0.0,0.0,1.8224,1.8145,1.7626,1.6595,1.6522,1.6522,0.0,1.6522,1.6522,1.6522,1.6522,1.6522,1.6479,1.6492,1.6478,1.6352,1.528,1.5468,1.6399,1.6475,1.6478,1.6502,1.6487,1.6483,1.6389,1.5657,1.4821,1.4025,1.3852,1.3505,1.3065,1.3065,1.3065,1.32,1.3779,1.3956,1.4097,1.4652,1.4789,1.4479,1.3334,1.3065,1.3065,1.2968,1.2968,1.2978,1.2929,1.2344,1.1913,1.1913,1.1366,1.0973,1.0914,1.0914,1.0864,1.0813,1.0864,1.0864,1.0813,1.0813,1.0559,0.9969,0.9917,0.9614,0.8956,0.891,0.8857,0.8804,0.8804,0.8752,0.8699,0.8699,0.8646,0.8593,0.7943,0.7557,0.745,0.614,0.5429,2.5429,2.6236,2.7296,2.94,3.0454,3.1004,3.1157,3.119,3.1151,3.1015,3.0521,3.0015,2.975,2.8565,2.7631,2.7614,0.0,0.0,0.0,0.0,0.0,0.0,0.0,0.0,0.0,0.0,0.0,0.0,0.0,0.0,0.0,0.0,0.0,1.8727,1.8341,1.7787,1.7105,1.671,1.6522,0.0,1.6522,1.6522,1.6522,1.6522,1.6522,1.6522,1.6516,1.6212,1.5836,1.6015,1.5976,1.5864,1.6324,1.6498,1.6498,1.6504,1.6492,1.648,1.6296,1.6098,1.57,1.4448,1.416,1.4294,1.4294,1.4294,1.4422,1.5039,1.5219,1.5219,1.5365,1.541,1.5231,1.4479,1.4294,1.4201,1.3684,1.36,1.3467,1.2968,1.2774,1.2666,1.2666,1.252,1.2255,1.1665,1.1566,1.1416,1.0864,1.1266,1.1366,1.0864,1.0813,1.0762,1.0618,1.0568,1.0312,0.9614,0.9562,0.9361,0.8804,0.8804,0.8533,0.7937,0.7943,0.767,0.7074,0.6912,0.6529,0.5973,0.5651,0.4882,2.5792,2.6674,2.7774,3.0057,3.092,3.119,3.119,3.092,3.0768,3.1123,3.0615,2.9989,2.9634,2.8619,2.7671,0.0,0.0,0.0,0.0,0.0,0.0,0.0,0.0,0.0,0.0,0.0,0.0,0.0,0.0,0.0,0.0,1.969,1.9442,1.893,1.838,1.7827,1.7312,1.6752,1.6522,1.6522,1.6522,1.6522,1.6522,1.6522,1.6522,1.6522,1.6522,1.6337,1.6051,1.638,1.6324,1.6051,1.638,1.6522,1.6522,1.6522,1.6522,1.6491,1.6504,1.6516,1.6333,1.5516,1.4994,1.4766,1.4914,1.4846,1.4835,1.541,1.5588,1.5676,1.5952,1.6051,1.5964,1.5656,1.5107,1.4606,1.4283,1.4236,1.4154,1.3836,1.3752,1.3752,1.3752,1.3752,1.3542,1.2841,1.2745,1.2511,1.1891,1.2098,1.2197,1.1841,1.1813,1.1804,1.1805,1.1787,1.1388,1.0364,1.0261,0.9961,0.9316,0.9263,0.8784,0.7723,0.7723,0.7343,0.6588,0.6253,0.5869,0.5487,0.5164,0.4395,2.5953,2.7182,2.8501,3.0514,3.1004,3.1004,3.1004,3.0446,3.0074,3.0683,3.0226,2.9567,2.9076,2.8247,2.7385,0.0,0.0,0.0,0.0,0.0,0.0,0.0,0.0,0.0,0.0,0.0,0.0,0.0,0.0,0.0,1.969,1.969,1.9479,1.9043,1.8419,1.7907,1.7422,1.6795,1.6522,1.6522,1.6522,1.6552,1.6637,1.6637,1.6595,1.6522,1.6522,1.6522,1.6522,1.6522,1.6522,1.6522,1.6522,1.6522,1.6522,1.6522,1.6522,1.6522,1.6522,1.6492,1.6497,1.6497,1.5832,1.5085,1.5393,1.5245,1.5107,1.5599,1.5776,1.5864,1.638,1.6522,1.6522,1.6522,1.5744,1.4971,1.488,1.488,1.4835,1.4698,1.4698,1.4698,1.4698,1.4698,1.4514,1.405,1.3873,1.3637,1.3104,1.2968,1.2881,1.2881,1.2885,1.2855,1.2694,1.2812,1.2387,1.1242,1.115,1.0787,1.002,0.9747,0.9065,0.7925,0.7664,0.7128,0.6421,0.5655,0.5324,0.5328,0.4732,0.407,2.504,2.7007,2.9059,3.0023,3.026,3.026,3.026,2.9668,2.9161,2.9245,2.8653,2.8298,2.8873,2.7807,2.6607,0.0,0.0,0.0,0.0,0.0,0.0,0.0,0.0,0.0,0.0,0.0,0.0,0.0,0.0,0.0,1.969,1.969,1.969,1.9603,1.8612,1.8066,1.7987,1.6993,1.6522,1.6522,1.6522,1.6752,1.7188,1.7188,1.6951,1.6522,1.6522,1.6522,1.6522,1.6522,1.6522,1.6522,1.6522,1.6522,1.6522,1.6522,1.6522,1.6522,1.6522,1.6491,1.6516,1.6516,1.6405,1.625,1.6318,1.6306,1.6293,1.638,1.638,1.638,1.6466,1.6522,1.6522,1.6522,1.638,1.6107,1.5588,1.5499,1.532,1.4789,1.4698,1.4698,1.4698,1.4698,1.4652,1.4606,1.4143,1.3768,1.3684,1.3238,1.2881,1.2881,1.289,1.257,1.1826,1.2464,1.2842,1.2613,1.2622,1.205,1.072,0.957,0.8847,0.8639,0.7379,0.6367,0.5651,0.4952,0.4625,0.4625,0.4519,0.4125,2.5587,2.6943,2.8391,2.9983,2.9921,2.9583,3.0023,2.9178,2.8467,2.889,2.8027,2.7418,2.8197,2.7097,2.5981,0.0,0.0,0.0,0.0,0.0,0.0,0.0,0.0,0.0,0.0,0.0,0.0,0.0,0.0,1.969,1.969,1.969,1.969,1.969,1.8968,1.8419,1.8106,1.7353,1.6951,1.6951,1.7229,1.7504,1.7747,1.7747,1.7626,1.7394,1.7394,1.7394,1.7394,1.7394,1.7394,1.7381,1.7206,1.6857,1.6496,1.6496,1.6504,1.6494,1.6507,1.6481,1.6497,1.6515,1.6481,1.6522,1.6522,1.6522,1.6522,1.6522,1.6522,1.6522,1.6522,1.6522,1.6522,1.6522,1.671,1.6866,1.6629,1.6343,1.6008,1.5744,1.57,1.57,1.57,1.57,1.5555,1.5083,1.521,1.4811,1.3465,1.3077,1.2898,1.292,1.2916,1.2742,1.2347,1.2666,1.2907,1.289,1.291,1.2605,1.1991,1.1427,1.0525,0.9384,0.8334,0.7144,0.5747,0.4925,0.4714,0.5054,0.468,0.4125,2.576,2.649,2.7278,2.9362,2.9197,2.8728,2.9493,2.8556,2.7706,2.8281,2.7486,2.686,2.7435,2.6488,2.5541,0.0,0.0,0.0,0.0,0.0,0.0,0.0,0.0,0.0,0.0,0.0,0.0,0.0,0.0,1.969,1.969,1.969,1.969,1.969,1.9169,1.8688,1.8302,1.7787,1.7504,1.7504,1.7907,1.8185,1.8302,1.8302,1.838,1.8496,1.8224,1.8106,1.8106,1.8106,1.8106,1.8092,1.793,1.7475,1.6943,1.7195,1.733,1.7235,1.6705,1.6847,1.7235,1.6664,1.659,1.668,1.6552,1.6522,1.6522,1.6522,1.6522,1.6522,1.6522,1.6522,1.6522,1.668,1.6909,1.7105,1.7271,1.6993,1.668,1.6522,1.6522,1.6522,1.6522,1.6522,1.6312,1.5704,1.6098,1.5835,1.4036,1.3554,1.3246,1.2938,1.2872,1.2899,1.29,1.2905,1.2912,1.292,1.2881,1.292,1.2909,1.2889,1.184,0.9578,0.9054,0.7943,0.6279,0.5345,0.4969,0.5257,0.4718,0.4229,2.4667,2.5251,2.5967,2.7553,2.7626,2.7489,2.8297,2.7604,2.6759,2.681,2.6759,2.6708,2.6742,2.6116,2.5372,0.0,0.0,0.0,0.0,0.0,0.0,0.0,0.0,0.0,0.0,0.0,0.0,0.0,0.0,1.969,1.969,1.969,1.969,1.969,1.9169,1.8893,1.8855,1.8341,1.8066,1.8066,1.8106,1.838,1.8855,1.8855,1.9132,1.9566,1.8535,1.8106,1.8106,1.8106,1.8106,1.812,1.843,1.8335,1.8159,1.9166,1.9523,1.9222,1.7195,1.7824,1.9185,1.7167,1.6827,1.7146,1.6637,1.6522,1.6522,1.6522,1.6522,1.6522,1.6522,1.6522,1.6637,1.7146,1.6879,1.668,1.7188,1.7271,1.7118,1.6595,1.6522,1.6522,1.6522,1.6522,1.6479,1.6423,1.6467,1.6458,1.6333,1.5302,1.416,1.3034,1.2909,1.2895,1.291,1.291,1.291,1.2881,1.2881,1.2881,1.2891,1.29,1.1592,0.891,0.881,0.8319,0.732,0.6333,0.54,0.4576,0.4522,0.4484,2.5147,2.5216,2.5446,2.7144,2.7219,2.7081,2.7835,2.7525,2.7083,2.7083,2.6873,2.6691,2.6691,2.571,2.4797,0.0,0.0,0.0,0.0,0.0,0.0,0.0,0.0,0.0,0.0,0.0,0.0,0.0,0.0,0.0,2.0514,2.0261,2.0089,2.0089,1.9645,1.9244,1.8893,1.8688,1.8612,1.8612,1.8968,1.9244,1.9406,1.9406,1.953,1.969,1.9281,1.9132,1.9132,1.9132,1.9132,1.9132,1.928,1.9228,1.9184,1.9553,1.9706,1.9575,1.8829,1.9056,1.948,1.8249,1.7972,1.8003,1.7256,1.6993,1.6951,1.6595,1.6522,1.6522,1.6522,1.6522,1.671,1.7585,1.7666,1.7666,1.8224,1.7504,1.6837,1.6993,1.6752,1.6522,1.6522,1.6522,1.6522,1.6522,1.6485,1.6498,1.649,1.6118,1.5405,1.4183,1.3826,1.3474,1.292,1.2881,1.2881,1.2881,1.2881,1.2881,1.2881,1.292,1.1999,1.0136,1.0081,0.9511,0.8309,0.732,0.6504,0.5855,0.5362,0.4937,2.4986,2.4945,2.5087,2.6721,2.6627,2.6433,2.7379,2.7349,2.7103,2.7103,2.7099,2.6982,2.6614,2.5507,2.4658,0.0,0.0,0.0,0.0,0.0,0.0,0.0,0.0,0.0,0.0,0.0,0.0,0.0,0.0,0.0,2.0991,2.0682,2.0449,2.0299,2.0035,1.966,1.9169,1.9169,1.9169,1.9169,1.953,1.9782,1.9909,1.9909,1.998,2.012,1.998,1.9803,1.969,1.969,1.969,1.969,1.969,1.969,1.969,1.969,1.9685,1.9708,1.9713,1.9694,1.9575,1.8855,1.865,1.8559,1.7814,1.7422,1.7229,1.6879,1.6637,1.6522,1.6522,1.6637,1.6909,1.7422,1.7706,1.7947,1.8302,1.7827,1.7353,1.7544,1.7146,1.6752,1.6752,1.6637,1.6522,1.6522,1.6522,1.651,1.6478,1.6497,1.6061,1.4838,1.4482,1.3915,1.2978,1.2881,1.2881,1.2881,1.2881,1.2881,1.2881,1.2881,1.248,1.1536,1.104,1.0143,0.8803,0.8184,0.767,0.7317,0.5855,0.4929,0.0,0.0,0.0,2.6199,2.5839,2.5476,2.685,2.6897,2.6702,2.6719,2.7303,2.7501,2.6405,2.5594,2.4942,0.0,0.0,0.0,0.0,0.0,0.0,0.0,0.0,0.0,0.0,0.0,0.0,0.0,0.0,2.1023,2.1039,2.1039,2.0797,2.0314,2.0314,2.0089,1.9711,1.969,1.9726,1.9711,1.9711,1.9945,2.0314,2.0314,2.0583,2.0959,2.0516,2.0089,1.9762,1.9726,1.969,1.969,1.969,1.969,1.969,1.969,1.969,1.969,1.969,1.969,1.9588,1.8852,1.8769,1.8817,1.8302,1.7747,1.7312,1.7312,1.6909,1.6522,1.6466,1.6866,1.7105,1.6637,1.6909,1.7271,1.7312,1.8145,1.8727,1.8185,1.7626,1.7271,1.7271,1.6837,1.6522,1.6479,1.6479,1.651,1.649,1.6461,1.5949,1.4827,1.4729,1.4201,1.3027,1.2929,1.2929,1.2881,1.2881,1.2881,1.2881,1.2881,1.289,1.2899,1.1545,1.0163,0.8799,0.881,0.8785,0.8678,0.582,0.4518,2.3926,0.0,0.0,0.0,0.0,0.0,2.6039,2.6271,2.6524,2.6961,2.6579,2.6259,2.6511,2.5428,2.4489,0.0,0.0,0.0,0.0,0.0,0.0,0.0,0.0,0.0,0.0,0.0,0.0,0.0,2.143,2.1568,2.1915,2.1598,2.107,2.0314,2.0314,2.0089,1.9711,1.969,1.9839,2.0124,2.0124,2.0348,2.0797,2.0797,2.0862,2.0991,2.0862,2.0731,2.0599,1.9945,1.969,1.969,1.969,1.969,1.969,1.969,1.969,1.969,1.969,1.969,1.9675,1.9449,1.9413,1.9369,1.8855,1.8302,1.7787,1.7435,1.6909,1.638,1.5952,1.594,1.6145,1.6361,1.6532,1.6857,1.7693,1.8106,1.8185,1.7626,1.7076,1.671,1.671,1.6595,1.6485,1.6492,1.6516,1.6502,1.6499,1.4982,1.4224,1.5068,1.4877,1.4201,1.3027,1.3286,1.3372,1.2929,1.2881,1.2881,1.2881,1.2881,1.289,1.2899,1.2507,1.115,0.8799,0.881,0.8453,0.7734,0.5546,0.4501,2.3498,2.3728,2.3998,2.4672,0.0,0.0,2.565,2.595,2.6263,0.0,2.6435,2.6227,2.6199,2.5439,2.4635,2.4159,0.0,0.0,0.0,0.0,0.0,0.0,0.0,0.0,0.0,0.0,0.0,2.1899,2.1899,2.2003,2.2282,2.2032,2.154,2.0793,2.0552,2.02,1.9711,1.9874,2.007,2.0314,2.0516,2.0813,2.1244,2.1244,2.1354,2.1524,2.1354,2.1244,2.1213,2.0499,2.0243,2.0243,2.0243,2.0008,1.9708,1.9708,1.9677,1.969,1.969,1.969,1.969,1.969,1.969,1.9639,1.9332,1.8688,1.8027,1.7706,1.7076,1.6423,1.6051,1.5964,1.6039,1.6386,1.6416,1.6629,1.7299,1.7422,1.7463,1.7626,1.7188,1.6837,1.6837,1.6658,1.6511,1.649,1.5638,1.5005,1.4981,1.3768,1.3269,1.418,1.4309,1.3931,1.2968,1.3467,1.3637,1.3286,1.3286,1.316,1.2898,1.289,1.291,1.288,1.2924,1.155,0.8815,0.8778,0.8221,0.7052,0.5887,0.5062,2.2898,2.3432,2.3955,2.4628,2.4764,0.0,2.5459,2.5745,2.5891,0.0,2.6497,2.6655,2.5721,2.5481,2.5093,2.4082,0.0,0.0,0.0,0.0,0.0,0.0,0.0,0.0,2.231,2.231,2.231,2.231,2.231,2.231,2.231,2.231,2.2045,2.1504,2.0959,2.0409,1.9854,2.0193,2.0416,2.0434,2.0862,2.1275,2.1688,2.1688,2.1899,2.2282,2.1869,2.1688,2.1658,2.1291,2.1103,2.0991,2.0991,2.0523,1.9839,1.9756,1.9687,1.9717,1.9711,1.969,1.969,1.969,1.969,1.969,1.969,1.8968,1.8118,1.7985,1.7231,1.6484,1.6491,1.6504,1.6504,1.638,1.638,1.6423,1.6479,1.6522,1.6795,1.7747,1.7544,1.7188,1.7133,1.6789,1.6458,1.6325,1.4485,1.3058,1.2929,1.2902,1.2886,1.289,1.342,1.3552,1.2978,1.3505,1.3815,1.3732,1.3836,1.3585,1.2902,1.288,1.2881,1.2881,1.2601,1.1319,0.9022,0.8857,0.8103,0.6815,0.6642,0.5823,2.2276,2.239,2.2753,0.0,0.0,0.0,2.4858,2.5005,2.5223,0.0,2.5605,2.5397,2.5825,2.5374,2.4862,2.4629,0.0,0.0,0.0,0.0,0.0,0.0,0.0,0.0,0.0,2.231,2.231,2.231,2.231,2.231,2.231,2.231,2.224,2.2118,2.154,2.1068,2.0764,2.0829,2.1023,2.1352,2.143,2.1735,2.2163,2.2163,2.2209,2.2282,2.2209,2.2163,2.2163,2.2077,2.1615,2.0991,2.0991,2.0894,2.0653,1.9937,1.9703,1.9691,1.9707,1.969,1.969,1.969,1.969,1.969,1.969,1.9148,1.8264,1.7116,1.6654,1.6494,1.6486,1.6497,1.6335,1.5696,1.564,1.5908,1.638,1.6522,1.6552,1.6752,1.671,1.6497,1.6027,1.6267,1.6179,1.521,1.4655,1.3994,1.3016,1.289,1.2899,1.292,1.342,1.3552,1.2978,1.3884,1.4107,1.3152,1.3973,1.4058,1.2977,1.291,1.2881,1.2881,1.073,0.988,1.041,0.9316,0.8639,0.8337,0.674,0.5747,2.1479,2.1811,0.0,2.288,0.0,0.0,0.0,2.4482,2.4719,2.5381,2.5175,2.505,2.5552,2.531,2.5056,2.5056,0.0,0.0,0.0,0.0,0.0,0.0,0.0,0.0,0.0,2.2529,2.2436,2.231,2.231,2.231,2.231,2.231,2.2157,2.1853,2.1565,2.1271,2.0991,2.1213,2.1399,2.1582,2.1823,2.2061,2.231,2.231,2.231,2.231,2.231,2.231,2.231,2.231,2.2049,2.1661,2.1661,2.1524,2.1275,2.1055,2.0654,2.0151,2.0158,2.0161,2.0091,1.9797,1.969,1.969,1.969,1.9251,1.8565,1.7571,1.7317,1.7276,1.7092,1.706,1.6841,1.6101,1.5989,1.6115,1.6416,1.6494,1.6486,1.6497,1.6522,1.6423,1.6095,1.6276,1.6095,1.4877,1.42,1.357,1.2988,1.2881,1.2881,1.2881,1.3152,1.3238,1.2929,1.381,1.415,1.3556,1.4243,1.4704,1.4718,1.3524,1.2569,1.1891,1.1202,1.1173,1.1817,1.0454,0.9474,0.8738,0.7343,0.6573,0.0,0.0,0.0,0.0,0.0,2.3325,0.0,0.0,0.0,0.0,0.0,0.0,0.0,0.0,0.0,0.0,0.0,0.0,0.0,0.0,0.0,0.0,0.0,0.0,0.0,2.2884,2.273,2.248,2.2381,2.2309,2.2309,2.2304,2.2073,2.1589,2.1573,2.1456,2.126,2.1568,2.1777,2.1803,2.2186,2.2388,2.2388,2.2426,2.2443,2.2388,2.2388,2.2388,2.236,2.2321,2.231,2.231,2.231,2.2077,2.1751,2.2046,2.1562,2.0734,2.0626,2.0519,2.0366,1.9848,1.969,1.969,1.969,1.9406,1.8945,1.8528,1.8411,1.8358,1.8064,1.7877,1.765,1.7061,1.6877,1.6811,1.6831,1.6796,1.6829,1.6799,1.6642,1.6446,1.6367,1.6438,1.5994,1.456,1.3637,1.3075,1.2929,1.2881,1.2881,1.2881,1.2881,1.2881,1.2881,1.3662,1.4041,1.39,1.4395,1.496,1.5561,1.3624,1.195,1.0813,1.1832,1.2354,1.2277,1.104,1.0038,0.9309,0.8374,0.7877,0.0,0.0,0.0,0.0,2.1905,0.0,0.0,0.0,2.3742,2.4271,0.0,0.0,0.0,0.0,0.0,0.0,0.0,0.0,0.0,0.0,0.0,0.0,0.0,0.0,0.0,0.0,2.3117,2.3111,2.2598,2.2306,2.2306,2.2296,2.2265,2.2192,2.2192,2.2163,2.2152,2.2209,2.2354,2.2591,2.2634,2.2643,2.2643,2.2947,2.294,2.2643,2.2643,2.2643,2.2634,2.2415,2.231,2.231,2.231,2.2282,2.218,2.1797,2.153,2.1231,2.0771,2.0246,1.9797,1.9726,1.969,1.969,1.969,1.9639,1.9611,1.9551,1.9511,1.9517,1.9462,1.8987,1.8458,1.8405,1.8133,1.7905,1.7933,1.792,1.7906,1.7933,1.7168,1.6317,1.5772,1.6159,1.5712,1.345,1.3575,1.371,1.2978,1.2881,1.2881,1.2881,1.2881,1.2881,1.2881,1.3662,1.3805,1.3075,1.41,1.4005,1.2382,1.1484,1.0965,1.0813,1.0604,1.0375,1.0125,0.9416,0.979,1.1192,1.0288,0.971,0.0,0.0,0.0,0.0,0.0,0.0,2.2,0.0,2.2845,0.0,0.0,0.0,0.0,0.0,0.0,0.0,2.5141,0.0,0.0,0.0,0.0,0.0,0.0,0.0,0.0,0.0,0.0,0.0,0.0,2.2676,2.2332,2.2521,2.2559,2.231,2.231,2.231,2.231,2.231,2.2409,2.2695,2.2695,2.2695,2.2695,2.2848,2.2848,2.2695,2.2537,2.2563,2.2669,2.2398,2.231,2.231,2.231,2.231,2.2282,2.2077,2.1965,2.1867,2.1356,2.1007,2.0748,2.0532,2.012,1.9782,2.0311,2.0104,1.9741,1.9995,1.9897,1.9701,1.9693,1.9478,1.924,1.9248,1.9142,1.8921,1.8467,1.8408,1.8349,1.8131,1.7505,1.6918,1.6795,1.6598,1.6017,1.4536,1.4197,1.3805,1.2978,1.2881,1.2881,1.2881,1.2881,1.2881,1.2881,1.322,1.3268,1.2929,1.3367,1.3027,1.1679,1.1382,1.0889,1.021,1.0434,1.0281,0.9814,0.9915,1.0535,1.1669,1.0506,1.0312,1.969,0.0,0.0,0.0,0.0,0.0,0.0,0.0,0.0,0.0,0.0,0.0,0.0,0.0,2.4095,2.4709,0.0,2.4979,0.0,0.0,0.0,0.0,0.0,0.0,0.0,0.0,0.0,0.0,0.0,0.0,2.2847,2.2778,2.2643,2.2426,2.2349,2.231,2.231,2.231,2.2409,2.2695,2.2797,2.2848,2.2848,2.3021,2.3021,2.2822,2.2738,2.2747,2.2822,2.2527,2.2398,2.2398,2.2321,2.231,2.231,2.231,2.2209,2.2061,2.1718,2.1521,2.1399,2.1086,2.0565,2.0174,2.0812,2.0565,2.007,2.0246,2.0089,1.9839,1.9726,1.969,1.9698,1.9708,1.9715,1.956,1.9013,1.8884,1.8844,1.8598,1.8106,1.776,1.7841,1.7093,1.6308,1.5693,1.4751,1.3789,1.3027,1.3065,1.3152,1.3152,1.3286,1.3382,1.3382,1.3304,1.3218,1.322,1.3007,1.2472,1.1621,1.1423,1.0839,0.9814,1.0261,1.0218,0.951,1.0012,1.0618,1.1266,1.0602,1.1032,0.0,0.0,0.0,1.9711,0.0,0.0,0.0,0.0,2.1118,0.0,0.0,0.0,0.0,2.2952,2.3243,2.4166,2.4497,0.0,0.0,0.0,0.0,0.0,0.0,0.0,0.0,0.0,0.0,0.0,0.0,0.0,2.4135,2.2976,2.2436,2.2695,2.2453,2.231,2.231,2.231,2.2409,2.2695,2.3021,2.3189,2.3212,2.3876,2.3795,2.3189,2.3522,2.3477,2.3165,2.2822,2.2695,2.266,2.2398,2.231,2.231,2.231,2.2003,2.1612,2.1628,2.1337,2.1023,2.0991,2.0959,2.0959,2.0991,2.0959,2.0862,2.0416,2.028,2.0177,1.9818,1.969,1.969,1.969,1.969,1.969,1.969,1.9639,1.9675,1.9639,1.9207,1.8774,1.8598,1.741,1.6498,1.6457,1.512,1.3793,1.3007,1.342,1.3768,1.3768,1.4283,1.4652,1.4652,1.4266,1.4046,1.4041,1.3246,1.2483,1.1805,1.1166,1.0517,0.9814,0.9814,0.951,0.8857,0.8857,0.9211,0.9917,1.1073,1.2406,0.0,0.0,1.969,1.969,0.0,0.0,0.0,0.0,0.0,0.0,0.0,0.0,0.0,2.1972,2.2271,2.3221,2.3433,2.3711,0.0,0.0,0.0,0.0,0.0,0.0,0.0,0.0,0.0,0.0,2.5001,0.0,0.0,2.3783,2.3295,2.2721,2.2625,2.249,2.231,2.249,2.2625,2.2695,2.3045,2.3129,2.301,2.3234,2.3282,2.3175,2.29,2.3193,2.3815,2.3255,2.279,2.2427,2.232,2.231,2.231,2.231,2.2209,2.2061,2.2061,2.1764,2.1446,2.1751,2.1462,2.1103,2.1691,2.1462,2.0959,2.0797,2.055,2.0227,1.9803,1.969,1.969,1.969,1.969,1.969,1.969,1.969,1.969,1.969,1.9281,1.8974,1.9284,1.8341,1.731,1.661,1.5599,1.4677,1.4143,1.4032,1.4103,1.4365,1.456,1.4698,1.4698,1.4573,1.4481,1.4501,1.3975,1.3267,1.2415,1.2239,1.1648,1.0466,0.9562,0.9003,0.8825,0.9402,0.986,1.0081,1.171,1.2667,1.969,1.969,0.0,1.969,1.9566,0.0,1.9406,0.0,0.0,0.0,0.0,0.0,0.0,2.0719,2.1095,2.2,2.2323,2.2881,0.0,2.4504,0.0,0.0,0.0,2.5352,0.0,0.0,2.5292,2.5313,2.5056,0.0,0.0,0.0,2.3453,2.2898,2.2678,2.2527,2.2436,2.2513,2.2677,2.2873,2.2869,2.2904,2.301,2.3023,2.3021,2.3023,2.2853,2.3211,2.3798,2.3379,2.2968,2.2606,2.2375,2.231,2.231,2.231,2.231,2.231,2.231,2.2106,2.1899,2.2209,2.1915,2.1554,2.2123,2.1915,2.1401,2.1103,2.0797,2.0431,1.9854,1.969,1.969,1.969,1.969,1.969,1.969,1.969,1.969,1.969,1.9406,1.9302,1.9657,1.8959,1.7977,1.6697,1.6051,1.5638,1.536,1.4869,1.4744,1.5252,1.5487,1.5696,1.5891,1.5891,1.5804,1.5584,1.5171,1.4552,1.371,1.3449,1.2878,1.1877,1.0961,1.0434,1.0189,1.0788,1.1092,1.1103,1.2474,1.31]}]]